[[{"header":{"parameterUnit":"m.s-1","parameterCategory":1,"la1":30.6,"la2":28.766,"lo1":-90.7593,"lo2":-88.6598,"dy":0.0162,"dx":0.0183,"nx":116,"ny":114,"refTime":"2023-04-21T12:00:00:Z","depth":0,"parameterNumber":2,"parameterNumberName":"U-component_of_WINDS"},"data":[0.0,0.0,0.0,0.0,0.0,0.0,0.0,0.0,0.0,0.0,0.0,0.0,0.0,0.0,0.0,0.0,0.0,0.0,0.0,0.0,0.0,0.0,0.0,0.0,0.0,0.0,0.0,0.0,0.0,0.0,0.0,0.0,0.0,0.0,0.0,0.0,0.0,0.0,0.0,0.0,0.0,0.0,0.0,0.0,0.0,0.0,0.0,0.0,0.0,0.0,0.0,0.0,0.0,0.0,0.0,0.0,0.0,0.0,0.0,0.0,0.0,0.0,0.0,0.0,0.0,0.0,0.0,0.0,0.0,0.0,0.0,0.0,0.0,0.0,0.0,0.0,0.0,0.0,0.0,0.0,0.0,0.0,0.0,0.0,0.0,0.0,0.0,0.0,0.0,0.0,0.0,0.0,0.0,0.0,0.0,0.0,0.0,0.0,0.0,0.0,0.0,0.0,0.0,0.0,0.0,0.0,0.0,0.0,0.0,0.0,0.0,0.0,0.0,0.0,0.0,0.0,0.0,0.0,0.0,0.0,0.0,0.0,0.0,0.0,0.0,0.0,0.0,0.0,0.0,0.0,0.0,0.0,0.0,0.0,0.0,0.0,0.0,0.0,0.0,0.0,0.0,0.0,0.0,0.0,0.0,0.0,0.0,0.0,0.0,0.0,0.0,0.0,0.0,0.0,0.0,0.0,0.0,0.0,0.0,0.0,0.0,0.0,0.0,0.0,0.0,0.0,0.0,0.0,0.0,0.0,0.0,0.0,0.0,0.0,0.0,0.0,0.0,0.0,0.0,0.0,0.0,0.0,0.0,0.0,0.0,0.0,0.0,0.0,0.0,0.0,0.0,0.0,0.0,0.0,0.0,0.0,0.0,0.0,0.0,0.0,0.0,0.0,0.0,0.0,0.0,0.0,0.0,0.0,0.0,0.0,0.0,0.0,0.0,0.0,0.0,0.0,0.0,0.0,0.0,0.0,0.0,0.0,0.0,0.0,0.0,0.0,0.0,0.0,0.0,0.0,0.0,0.0,0.0,0.0,0.0,0.0,0.0,0.0,0.0,0.0,0.0,0.0,0.0,0.0,0.0,0.0,0.0,0.0,0.0,0.0,0.0,0.0,0.0,0.0,0.0,0.0,0.0,0.0,0.0,0.0,0.0,0.0,0.0,0.0,0.0,0.0,0.0,0.0,0.0,0.0,0.0,0.0,0.0,0.0,0.0,0.0,0.0,0.0,0.0,0.0,0.0,0.0,0.0,0.0,0.0,0.0,0.0,0.0,0.0,0.0,0.0,0.0,0.0,0.0,0.0,0.0,0.0,0.0,0.0,0.0,0.0,0.0,0.0,0.0,0.0,0.0,0.0,0.0,0.0,0.0,0.0,0.0,0.0,0.0,0.0,0.0,0.0,0.0,0.0,0.0,0.0,0.0,0.0,0.0,0.0,0.0,0.0,0.0,0.0,0.0,0.0,0.0,0.0,0.0,0.0,0.0,0.0,0.0,0.0,0.0,0.0,0.0,0.0,0.0,0.0,0.0,0.0,0.0,0.0,0.0,0.0,0.0,0.0,0.0,0.0,0.0,0.0,0.0,0.0,0.0,0.0,0.0,0.0,0.0,0.0,0.0,0.0,0.0,0.0,0.0,0.0,0.0,0.0,0.0,0.0,0.0,0.0,0.0,0.0,0.0,0.0,0.0,0.0,0.0,0.0,0.0,0.0,0.0,0.0,0.0,0.0,0.0,0.0,0.0,0.0,0.0,0.0,0.0,0.0,0.0,0.0,0.0,0.0,0.0,0.0,0.0,0.0,0.0,0.0,0.0,0.0,0.0,0.0,0.0,0.0,0.0,0.0,0.0,0.0,0.0,0.0,0.0,0.0,0.0,0.0,0.0,0.0,0.0,0.0,0.0,0.0,0.0,0.0,0.0,0.0,0.0,0.0,0.0,0.0,0.0,0.0,0.0,0.0,0.0,0.0,0.0,0.0,0.0,0.0,0.0,0.0,0.0,0.0,0.0,0.0,0.0,0.0,0.0,0.0,0.0,0.0,0.0,0.0,0.0,0.0,0.0,0.0,0.0,0.0,0.0,0.0,0.0,0.0,0.0,0.0,0.0,0.0,0.0,0.0,0.0,0.0,0.0,0.0,0.0,0.0,0.0,0.0,0.0,0.0,0.0,0.0,0.0,0.0,0.0,0.0,0.0,0.0,0.0,0.0,0.0,0.0,0.0,0.0,0.0,0.0,0.0,0.0,0.0,0.0,0.0,0.0,0.0,0.0,0.0,0.0,0.0,0.0,0.0,0.0,0.0,0.0,0.0,0.0,0.0,0.0,0.0,0.0,0.0,0.0,0.0,0.0,0.0,0.0,0.0,0.0,0.0,0.0,0.0,0.0,0.0,0.0,0.0,0.0,0.0,0.0,0.0,0.0,0.0,0.0,0.0,0.0,0.0,0.0,0.0,0.0,0.0,0.0,0.0,0.0,0.0,0.0,0.0,0.0,0.0,0.0,0.0,0.0,0.0,0.0,0.0,0.0,0.0,0.0,0.0,0.0,0.0,0.0,0.0,0.0,0.0,0.0,0.0,0.0,0.0,0.0,0.0,0.0,0.0,0.0,0.0,0.0,0.0,0.0,0.0,0.0,0.0,0.0,0.0,0.0,0.0,0.0,0.0,0.0,0.0,0.0,0.0,0.0,0.0,0.0,0.0,0.0,0.0,0.0,0.0,0.0,0.0,0.0,0.0,0.0,0.0,0.0,0.0,0.0,0.0,0.0,0.0,0.0,0.0,0.0,0.0,0.0,0.0,0.0,0.0,0.0,0.0,0.0,0.0,0.0,0.0,0.0,0.0,0.0,0.0,0.0,0.0,0.0,0.0,0.0,0.0,0.0,0.0,0.0,0.0,0.0,0.0,0.0,0.0,0.0,0.0,0.0,0.0,0.0,0.0,0.0,0.0,0.0,0.0,0.0,0.0,0.0,0.0,0.0,0.0,0.0,0.0,0.0,0.0,0.0,0.0,0.0,0.0,0.0,0.0,0.0,0.0,0.0,0.0,0.0,0.0,0.0,0.0,0.0,0.0,0.0,0.0,0.0,0.0,0.0,0.0,0.0,0.0,0.0,0.0,0.0,0.0,0.0,0.0,0.0,0.0,0.0,0.0,0.0,0.0,0.0,0.0,0.0,0.0,0.0,0.0,0.0,0.0,0.0,0.0,0.0,0.0,0.0,0.0,0.0,0.0,0.0,0.0,0.0,0.0,0.0,0.0,0.0,0.0,0.0,0.0,0.0,0.0,0.0,0.0,0.0,0.0,0.0,0.0,0.0,0.0,0.0,0.0,0.0,0.0,0.0,0.0,0.0,0.0,0.0,0.0,0.0,0.0,0.0,0.0,0.0,0.0,0.0,0.0,0.0,0.0,0.0,0.0,0.0,0.0,0.0,0.0,0.0,0.0,0.0,0.0,0.0,0.0,0.0,0.0,0.0,0.0,0.0,0.0,0.0,0.0,0.0,0.0,0.0,0.0,0.0,0.0,0.0,0.0,0.0,0.0,0.0,0.0,0.0,0.0,0.0,0.0,0.0,0.0,0.0,0.0,0.0,0.0,0.0,0.0,0.0,0.0,0.0,0.0,0.0,0.0,0.0,0.0,0.0,0.0,0.0,0.0,0.0,0.0,0.0,0.0,0.0,0.0,0.0,0.0,0.0,0.0,0.0,0.0,0.0,0.0,0.0,0.0,0.0,0.0,0.0,0.0,0.0,0.0,0.0,0.0,0.0,0.0,0.0,0.0,0.0,0.0,0.0,0.0,0.0,0.0,0.0,0.0,0.0,0.0,0.0,0.0,0.0,0.0,0.0,0.0,0.0,0.0,0.0,0.0,0.0,0.0,0.0,0.0,0.0,0.0,0.0,0.0,0.0,0.0,0.0,0.0,0.0,0.0,0.0,0.0,0.0,0.0,0.0,0.0,0.0,0.0,0.0,0.0,0.0,0.0,0.0,0.0,0.0,0.0,0.0,0.0,0.0,0.0,0.0,0.0,0.0,0.0,0.0,0.0,0.0,0.0,0.0,0.0,0.0,0.0,0.0,0.0,0.0,0.0,0.0,0.0,0.0,0.0,0.0,0.0,0.0,0.0,0.0,0.0,0.0,0.0,0.0,0.0,0.0,0.0,0.0,0.0,0.0,0.0,0.0,0.0,0.0,0.0,0.0,0.0,0.0,0.0,0.0,0.0,0.0,0.0,0.0,0.0,0.0,0.0,0.0,0.0,0.0,0.0,0.0,0.0,0.0,0.0,0.0,0.0,0.0,0.0,0.0,0.0,0.0,0.0,0.0,0.0,0.0,0.0,0.0,0.0,0.0,0.0,0.0,0.0,0.0,0.0,0.0,0.0,0.0,0.0,0.0,0.0,0.0,0.0,0.0,0.0,0.0,0.0,0.0,0.0,0.0,0.0,0.0,0.0,0.0,0.0,0.0,0.0,0.0,0.0,0.0,0.0,0.0,0.0,0.0,0.0,0.0,0.0,0.0,0.0,0.0,0.0,0.0,0.0,0.0,0.0,0.0,0.0,0.0,0.0,0.0,0.0,0.0,0.0,0.0,0.0,0.0,0.0,0.0,0.0,0.0,0.0,0.0,0.0,0.0,0.0,0.0,0.0,0.0,0.0,0.0,0.0,0.0,0.0,0.0,0.0,0.0,0.0,0.0,0.0,0.0,0.0,0.0,0.0,0.0,0.0,0.0,0.0,0.0,0.0,0.0,0.0,0.0,0.0,0.0,0.0,0.0,0.0,0.0,0.0,0.0,0.0,0.0,0.0,0.0,0.0,0.0,0.0,0.0,0.0,0.0,0.0,0.0,0.0,0.0,0.0,0.0,0.0,0.0,0.0,0.0,0.0,0.0,0.0,0.0,0.0,0.0,0.0,0.0,0.0,0.0,0.0,0.0,0.0,0.0,0.0,0.0,0.0,0.0,0.0,0.0,0.0,0.0,0.0,0.0,0.0,0.0,0.0,0.0,0.0,0.0,0.0,0.0,0.0,0.0,0.0,0.0,0.0,0.0,0.0,0.0,0.0,0.0,0.0,0.0,0.0,0.0,0.0,0.0,0.0,0.0,0.0,0.0,0.0,0.0,0.0,0.0,0.0,0.0,0.0,0.0,0.0,0.0,0.0,0.0,0.0,0.0,0.0,0.0,0.0,0.0,0.0,0.0,0.0,0.0,0.0,0.0,0.0,0.0,0.0,0.0,0.0,0.0,0.0,0.0,0.0,0.0,0.0,0.0,0.0,0.0,0.0,0.0,0.0,0.0,0.0,0.0,0.0,0.0,0.0,0.0,0.0,0.0,0.0,0.0,0.0,0.0,0.0,0.0,0.0,0.0,0.0,0.0,0.0,0.0,0.0,0.0,0.0,0.0,0.0,0.0,0.0,0.0,0.0,0.0,0.0,0.0,0.0,0.0,0.0,0.0,0.0,0.0,0.0,0.0,0.0,0.0,0.0,0.0,0.0,0.0,0.0,0.0,0.0,0.0,0.0,0.0,0.0,0.0,0.0,0.0,0.0,0.0,0.0,0.0,0.0,0.0,0.0,0.0,0.0,0.0,0.0,0.0,0.0,0.0,0.0,0.0,0.0,0.0,0.0,0.0,0.0,0.0,0.0,0.0,0.0,0.0,0.0,0.0,0.0,0.0,0.0,0.0,0.0,0.0,0.0,0.0,0.0,0.0,0.0,0.0,0.0,0.0,0.0,0.0,0.0,0.0,0.0,0.0,0.0,0.0,0.0,0.0,0.0,0.0,0.0,0.0,0.0,0.0,0.0,0.0,0.0,0.0,0.0,0.0,0.0,0.0,0.0,0.0,0.0,0.0,0.0,0.0,0.0,0.0,0.0,0.0,0.0,0.0,0.0,0.0,0.0,0.0,0.0,0.0,0.0,0.0,0.0,0.0,0.0,0.0,0.0,0.0,0.0,0.0,0.0,0.0,0.0,0.0,0.0,0.0,0.0,0.0,0.0,0.0,0.0,0.0,0.0,0.0,0.0,0.0,0.0,0.0,0.0,0.0,0.0,0.0,0.0,0.0,0.0,0.0,0.0,0.0,0.0,0.0,0.0,0.0,0.0,-1.7233,0.0,0.0,0.0,0.0,0.0,0.0,0.0,0.0,0.0,0.0,0.0,0.0,0.0,0.0,0.0,0.0,0.0,0.0,0.0,0.0,0.0,0.0,0.0,0.0,0.0,0.0,0.0,0.0,0.0,0.0,0.0,0.0,0.0,0.0,0.0,0.0,0.0,0.0,-1.2305,-1.2081,-1.1994,-1.2029,-1.2123,-1.2058,-1.1904,0.0,0.0,0.0,0.0,0.0,0.0,0.0,0.0,0.0,0.0,0.0,0.0,0.0,0.0,0.0,0.0,0.0,0.0,0.0,0.0,0.0,0.0,0.0,0.0,0.0,0.0,0.0,0.0,0.0,0.0,0.0,0.0,0.0,0.0,0.0,0.0,0.0,0.0,0.0,0.0,0.0,0.0,0.0,0.0,0.0,0.0,0.0,0.0,0.0,0.0,0.0,0.0,0.0,0.0,0.0,0.0,0.0,0.0,0.0,0.0,0.0,0.0,0.0,0.0,0.0,0.0,0.0,0.0,0.0,0.0,0.0,-1.7291,0.0,0.0,0.0,0.0,0.0,0.0,0.0,0.0,0.0,0.0,0.0,0.0,0.0,0.0,0.0,0.0,0.0,0.0,0.0,0.0,0.0,0.0,0.0,-0.6538,-0.6641,-0.6826,-0.783,-0.8863,0.0,0.0,0.0,0.0,0.0,0.0,-1.2703,-1.2425,-1.2284,-1.219,-1.1674,-1.1786,-1.2458,-1.1497,-1.1187,-1.1507,-1.164,0.0,0.0,0.0,0.0,0.0,0.0,0.0,0.0,0.0,0.0,0.0,0.0,0.0,0.0,0.0,0.0,0.0,0.0,0.0,0.0,0.0,0.0,0.0,0.0,0.0,0.0,0.0,0.0,0.0,0.0,0.0,0.0,0.0,0.0,0.0,0.0,0.0,0.0,0.0,0.0,0.0,0.0,0.0,0.0,0.0,0.0,0.0,0.0,0.0,0.0,0.0,0.0,0.0,0.0,0.0,0.0,0.0,0.0,0.0,0.0,0.0,0.0,0.0,-1.981,-2.0489,-2.1502,-2.0781,-2.0918,-2.1483,-1.8773,-1.8555,-1.9863,-1.7768,0.0,0.0,0.0,0.0,0.0,0.0,0.0,0.0,0.0,0.0,0.0,0.0,0.0,0.0,0.0,0.0,0.0,0.0,0.0,0.0,0.0,-0.6421,-0.6416,-0.6641,-0.6903,-0.7785,-0.9539,0.0,0.0,0.0,0.0,0.0,-1.2358,-1.2318,-1.2093,-1.1674,-1.1042,-1.1341,-1.2475,-1.155,-1.2142,-1.3948,-1.1807,-1.131,-1.2059,0.0,0.0,0.0,0.0,0.0,0.0,0.0,0.0,0.0,0.0,0.0,0.0,0.0,0.0,0.0,0.0,0.0,0.0,0.0,0.0,0.0,0.0,0.0,0.0,0.0,0.0,0.0,0.0,0.0,0.0,0.0,0.0,0.0,0.0,0.0,0.0,0.0,0.0,0.0,0.0,0.0,-1.2982,-1.336,0.0,0.0,0.0,0.0,0.0,0.0,0.0,0.0,0.0,0.0,0.0,0.0,0.0,-1.9902,-2.0693,-2.1108,-2.1674,-2.2294,-2.2337,-2.2562,-2.2953,-2.2773,-2.2945,-2.3359,-2.1855,0.0,-2.0488,-2.0155,0.0,0.0,0.0,0.0,0.0,0.0,0.0,0.0,0.0,0.0,0.0,0.0,0.0,0.0,0.0,0.0,0.0,0.0,0.0,0.0,0.0,-0.6532,-0.6585,-0.682,-0.7753,-0.8519,-0.8953,-1.0182,0.0,0.0,0.0,-1.2194,-1.2305,-1.2043,-1.2014,-1.2204,-1.203,-1.2787,-1.4437,-1.3474,-1.3827,-1.5251,-1.3479,-1.294,-1.3349,-1.2144,0.0,0.0,0.0,0.0,0.0,0.0,0.0,0.0,0.0,0.0,0.0,0.0,0.0,0.0,0.0,0.0,0.0,0.0,0.0,0.0,0.0,0.0,0.0,0.0,0.0,0.0,0.0,0.0,0.0,0.0,0.0,0.0,0.0,0.0,0.0,0.0,0.0,0.0,0.0,-1.2617,-1.3275,-1.3234,-1.3944,-1.4236,0.0,0.0,0.0,0.0,0.0,0.0,0.0,0.0,0.0,-2.0454,-2.0885,-2.1286,-2.175,-2.2535,-2.3083,-2.3409,-2.3776,-2.403,-2.4124,-2.4124,-2.4313,-2.4609,-2.4048,-2.3266,-2.2266,-2.0801,-2.0,-1.9609,0.0,0.0,0.0,0.0,-1.7676,-1.7168,0.0,0.0,0.0,0.0,0.0,0.0,0.0,0.0,0.0,0.0,0.0,0.0,-0.6723,-0.6871,-0.7023,-0.7196,-0.8351,-0.8955,-0.8564,-1.0053,-1.0868,-1.0718,-1.1354,-1.1887,-1.235,-1.1918,-1.1905,-1.2286,-1.2801,-1.4026,-1.5889,-1.5232,-1.5652,-1.6917,-1.5604,-1.4934,-1.467,-1.2966,-1.2858,-1.3585,0.0,0.0,0.0,0.0,0.0,0.0,0.0,0.0,0.0,0.0,0.0,0.0,0.0,0.0,0.0,0.0,0.0,0.0,0.0,0.0,0.0,0.0,0.0,0.0,0.0,0.0,0.0,0.0,0.0,0.0,0.0,0.0,0.0,0.0,0.0,0.0,0.0,-1.2906,-1.3573,-1.3253,-1.4103,-1.4442,0.0,0.0,0.0,0.0,0.0,0.0,-1.877,-1.9749,-2.0829,-2.1909,-2.2026,-2.2335,-2.2942,-2.3851,-2.43,-2.4368,-2.4864,-2.5107,-2.5043,-2.5043,-2.5134,-2.5186,-2.5186,-2.4679,-2.3609,-2.1697,-2.084,-2.0625,-1.9551,-1.9004,-1.8773,-1.889,-1.8496,-1.7949,0.0,0.0,0.0,0.0,0.0,0.0,0.0,0.0,0.0,0.0,0.0,-0.6844,-0.7323,-0.7584,-0.7753,-0.7753,-0.7972,-0.8247,-0.8684,-0.8631,-0.9151,-1.0443,-1.0746,-1.1364,-1.2478,-1.2081,-1.1634,-1.118,-1.2574,-1.4151,-1.5729,-1.6008,-1.7386,-1.9561,-1.8006,-1.6665,-1.5475,-1.4107,-1.4204,-1.511,-1.3054,0.0,0.0,0.0,0.0,0.0,0.0,0.0,0.0,0.0,0.0,0.0,0.0,0.0,0.0,0.0,0.0,0.0,0.0,0.0,0.0,0.0,0.0,0.0,0.0,0.0,0.0,0.0,0.0,0.0,0.0,0.0,0.0,0.0,0.0,0.0,0.0,0.0,0.0,-1.328,-1.4981,0.0,0.0,0.0,0.0,-1.618,-1.7376,-1.8692,-1.9951,-1.8899,-1.9849,-2.3286,-2.2687,-2.304,-2.4647,-2.512,-2.5445,-2.5703,-2.5722,-2.567,-2.5459,-2.5459,-2.5251,-2.4941,-2.4941,-2.4449,-2.3689,-2.3628,-2.2656,-2.1112,-2.0664,-2.0018,-1.9297,-1.9707,-1.957,-1.9316,0.0,0.0,0.0,0.0,0.0,0.0,0.0,0.0,-0.4363,-0.6021,-0.5913,-0.6138,-0.7376,-0.7254,-0.7492,-0.8414,-0.8669,-0.8657,-0.844,-0.8559,-0.9069,-0.9989,-0.988,-1.014,-1.0987,-1.1221,-1.2171,-1.3909,-1.4661,-1.6235,-1.8576,-1.8736,-1.921,-2.0007,-1.9481,-1.8861,-1.8181,-1.617,-1.5428,-1.5451,-1.3306,-1.2745,0.0,0.0,0.0,0.0,0.0,0.0,0.0,0.0,0.0,0.0,0.0,0.0,0.0,0.0,0.0,0.0,0.0,0.0,0.0,0.0,0.0,0.0,0.0,0.0,0.0,0.0,0.0,0.0,0.0,0.0,0.0,0.0,0.0,0.0,0.0,0.0,0.0,-1.5164,-1.5992,0.0,-1.5982,-1.6755,-1.6996,-1.6242,-1.909,-2.0791,-2.0688,-2.2026,-2.3394,-2.4702,-2.4675,-2.4945,-2.5598,-2.5949,-2.6076,-2.5906,-2.5648,-2.5367,-2.5061,-2.4783,-2.4678,-2.4627,-2.4627,-2.4425,-2.4051,-2.382,-2.3005,-2.1823,-2.1337,-2.1091,-2.0937,-2.082,-2.0664,-2.0547,0.0,0.0,0.0,0.0,0.0,0.0,0.0,0.0,-0.4343,-0.5937,-0.6034,-0.6304,-0.7321,-0.764,-0.8133,-0.9178,-0.9313,-0.9035,-0.8384,-0.8353,-0.8567,-0.9117,-0.9475,-0.9832,-1.0192,-1.0837,-1.2099,-1.3976,-1.4892,-1.6578,-1.8951,-1.9521,-2.0028,-2.0521,-2.0521,-2.0361,-2.0027,-1.8396,-1.7339,-1.656,-1.4546,-1.3948,-1.4064,0.0,0.0,0.0,0.0,0.0,0.0,0.0,0.0,0.0,0.0,0.0,0.0,0.0,0.0,0.0,0.0,0.0,0.0,0.0,0.0,0.0,0.0,0.0,0.0,0.0,0.0,0.0,0.0,0.0,0.0,0.0,0.0,0.0,0.0,-1.4861,-1.6099,-1.638,-1.7114,-1.7484,-1.7181,-1.7925,-1.8067,-1.7175,-2.0132,-2.1751,-2.1217,-2.3178,-2.4622,-2.5326,-2.5613,-2.5919,-2.6223,-2.6444,-2.6444,-2.6223,-2.5819,-2.5414,-2.4959,-2.4606,-2.438,-2.4399,-2.4399,-2.4256,-2.401,-2.3729,-2.3145,-2.2326,-2.1797,-2.1713,-2.1823,-2.1283,-2.1129,-2.1052,0.0,0.0,0.0,0.0,0.0,0.0,0.0,-0.3679,-0.418,-0.5234,-0.6613,-0.7394,-0.713,-0.8678,-0.9829,-0.9984,-0.9788,-0.9293,-0.854,-0.7835,-0.7524,-0.7891,-0.9562,-1.041,-1.0222,-1.1117,-1.1382,-1.1061,-1.3147,-1.4961,-1.6506,-1.8267,-1.9763,-2.1059,-2.1059,-2.0913,-2.0722,-2.0646,-1.982,-1.8437,-1.6967,-1.6339,-1.6126,0.0,0.0,0.0,0.0,0.0,0.0,0.0,0.0,0.0,0.0,0.0,0.0,0.0,0.0,0.0,0.0,0.0,0.0,0.0,0.0,0.0,0.0,0.0,0.0,0.0,0.0,0.0,0.0,0.0,0.0,0.0,0.0,0.0,-1.4175,-1.5973,-1.7166,-1.686,-1.837,-1.9078,-1.8169,-1.9822,-2.0444,-1.9042,-2.0454,-2.1496,-2.1598,-2.2009,-2.3145,-2.5059,-2.5269,-2.5716,-2.6482,-2.6537,-2.6537,-2.6518,-2.6151,-2.58,-2.5414,-2.4941,-2.4537,-2.4152,-2.4202,-2.3914,-2.345,-2.348,-2.3193,-2.2609,-2.2045,-2.1811,-2.176,-2.1151,-2.0907,-2.0851,0.0,0.0,0.0,0.0,0.0,0.0,0.0,-0.3353,-0.3643,-0.4681,-0.5408,-0.6132,-0.686,-0.781,-0.8899,-1.0216,-0.9903,-0.9334,-0.8689,-0.7848,-0.7448,-0.7546,-0.9163,-1.0068,-1.0129,-1.0718,-1.1689,-1.304,-1.4997,-1.646,-1.7613,-1.9564,-2.0515,-2.0657,-1.9727,-2.0048,-2.1085,-1.9819,-1.9663,-2.022,-1.8199,-1.7077,-1.649,0.0,0.0,0.0,0.0,0.0,0.0,0.0,0.0,0.0,0.0,0.0,0.0,0.0,0.0,0.0,0.0,0.0,0.0,0.0,0.0,0.0,0.0,0.0,0.0,0.0,0.0,0.0,0.0,0.0,0.0,0.0,-1.5169,-1.6281,-1.6019,-1.7395,-1.8718,-1.9492,-2.0201,-2.0535,-2.0294,-2.0584,-2.0536,-1.9893,-2.1075,-2.1875,-2.1875,-2.2839,-2.3497,-2.3901,-2.3942,-2.3951,-2.3999,-2.4834,-2.5293,-2.5276,-2.5485,-2.5525,-2.5396,-2.4698,-2.3845,-2.3038,-2.3854,-2.3502,-2.2376,-2.2835,-2.2813,-2.2391,-2.2441,-2.2358,-2.217,-2.1726,-2.118,-2.065,0.0,0.0,0.0,0.0,0.0,0.0,0.0,-0.2905,-0.3199,-0.34,-0.4478,-0.5482,-0.6089,-0.7005,-0.8273,-0.988,-0.9553,-0.9076,-0.8465,-0.7828,-0.7577,-0.7828,-0.9017,-0.9858,-1.0182,-1.058,-1.1388,-1.27,-1.3917,-1.5125,-1.6262,-1.8157,-1.9233,-1.9681,-1.8816,-1.9107,-2.0165,-1.9135,-1.9108,-1.9863,-1.9162,-1.8532,-1.7889,-1.6662,-1.5644,-1.4812,-1.4828,-1.4545,-1.4163,-1.3978,0.0,0.0,0.0,0.0,0.0,0.0,0.0,0.0,0.0,0.0,0.0,0.0,0.0,0.0,0.0,0.0,0.0,0.0,0.0,0.0,0.0,0.0,0.0,0.0,-1.647,-1.7874,-1.849,-1.9292,-2.0187,-2.1122,-2.1376,-2.1483,-2.1483,-2.1323,-2.1096,-2.0802,-2.1458,-2.176,-2.1633,-2.2824,-2.3261,-2.2846,-2.3356,-2.3409,-2.2974,-2.3704,-2.4055,-2.4039,-2.3954,-2.3912,-2.393,-2.3642,-2.3138,-2.2585,-2.3687,-2.3412,-2.2158,-2.2479,-2.228,0.0,0.0,0.0,0.0,0.0,-2.0855,-2.0163,0.0,0.0,0.0,0.0,0.0,0.0,0.0,-0.2304,-0.2687,-0.1883,-0.3681,-0.5033,-0.5021,-0.6355,-0.7812,-0.9102,-0.8959,-0.8615,-0.8056,-0.7834,-0.797,-0.8581,-0.9171,-0.9761,-1.0365,-1.0656,-1.0928,-1.1192,-1.1684,-1.2567,-1.3806,-1.5405,-1.6974,-1.825,-1.7884,-1.7984,-1.8362,-1.8205,-1.8195,-1.8444,-1.9732,-2.0041,-1.9615,-1.8285,-1.7479,-1.6932,-1.5935,-1.5394,-1.5133,-1.508,0.0,0.0,0.0,0.0,0.0,0.0,0.0,0.0,0.0,0.0,0.0,0.0,0.0,0.0,0.0,0.0,0.0,0.0,0.0,0.0,0.0,0.0,0.0,0.0,-1.7577,-1.9286,-2.0992,-2.1283,-2.1483,-2.1977,-2.2071,-2.2071,-2.2031,-2.2031,-2.1897,-2.1641,-2.1614,-2.143,-2.1122,-2.2187,0.0,0.0,0.0,-2.3235,-2.2595,-2.2749,-2.2789,-2.2742,-2.2173,-2.1878,-2.1884,-2.216,-2.2266,-2.2165,-2.3338,-2.3153,-2.208,-2.189,-2.1514,-2.0989,-2.149,-2.1687,-2.1595,-2.09,-2.0186,-1.9559,0.0,0.0,0.0,0.0,0.0,0.0,0.0,-0.1552,-0.1603,-0.1506,-0.2716,-0.3802,-0.4365,-0.5692,-0.7097,-0.8518,-0.8525,-0.8395,-0.8248,-0.8282,-0.8635,-0.9361,-0.9849,-1.0385,-1.0982,-1.1172,-1.1287,-1.1348,-1.2801,-1.3418,-1.3412,-1.5366,-1.6265,-1.6245,-1.5234,-1.5672,-1.6967,-1.5482,-1.6422,-1.8879,-1.8734,-1.8927,-1.9261,-1.8984,-1.7988,-1.676,-1.7247,-1.7077,-1.6653,-1.6365,-1.6594,-1.6747,-1.5468,-1.4591,0.0,0.0,0.0,0.0,0.0,0.0,0.0,0.0,0.0,0.0,0.0,0.0,0.0,0.0,0.0,0.0,0.0,0.0,0.0,-1.7598,-1.9207,-2.065,-2.1965,-2.2365,-2.2472,-2.2352,-2.2552,-2.2592,-2.2352,-2.2338,-2.2124,-2.1655,-2.1614,-2.143,-2.1122,-2.1132,-2.0958,-2.0544,-2.0585,-2.0472,-2.0111,-2.106,-2.1439,-2.1171,0.0,0.0,-2.1586,-2.1325,-2.0723,-1.9901,-2.103,-2.0718,-1.9376,-2.0018,-1.9715,-1.9089,-2.0971,-2.1687,-2.1506,-2.0067,-1.9424,-1.9089,0.0,0.0,0.0,0.0,0.0,0.0,0.0,-0.1031,-0.1162,-0.0734,-0.1957,-0.3068,-0.3701,-0.4789,-0.6052,-0.7381,-0.7445,-0.7654,-0.8102,-0.8455,-0.9014,-1.0012,-1.0412,-1.0826,-1.1267,-1.1355,-1.143,-1.1504,-1.2359,-1.2663,-1.2507,-1.4162,-1.4841,-1.4789,-1.4064,-1.4333,-1.5203,-1.4339,-1.4876,-1.6353,-1.6685,-1.7402,-1.8249,-1.8939,-1.8668,-1.7913,-1.8079,-1.7913,-1.7648,-1.751,-1.764,-1.7703,-1.6742,-1.5833,-1.5002,0.0,0.0,0.0,0.0,0.0,0.0,0.0,0.0,0.0,0.0,0.0,0.0,0.0,0.0,-1.4126,-1.4762,0.0,-1.7136,-1.8585,-1.9788,-2.0899,-2.193,-2.2219,-2.2327,-2.2319,-2.2493,-2.2464,-2.2115,-2.2102,-2.1854,-2.1293,-2.1437,-2.1318,-2.0882,-2.0913,-2.0695,-2.018,-2.0094,-1.9813,-1.943,-1.9996,-2.02,-2.0032,-2.0166,-2.012,-1.9999,-2.0023,-1.9746,-1.928,-2.0416,-2.0118,-1.8913,-1.8964,-1.8512,-1.7949,-1.96,-1.996,-1.9454,-1.9033,-1.8482,-1.7887,0.0,0.0,0.0,0.0,0.0,0.0,0.0,-0.0601,-0.0816,-0.0089,-0.1166,-0.2313,-0.3044,-0.3871,-0.4879,-0.6264,-0.6578,-0.7051,-0.7898,-0.8523,-0.9359,-1.0451,-1.0847,-1.1192,-1.143,-1.1463,-1.1525,-1.1619,-1.1619,-1.1619,-1.1619,-1.2619,-1.3255,-1.3452,-1.3248,-1.3279,-1.3507,-1.3507,-1.3571,-1.3701,-1.4716,-1.5789,-1.7016,-1.8244,-1.8886,-1.9099,-1.858,-1.8263,-1.8167,-1.8178,-1.8175,-1.8015,-1.7633,-1.6956,-1.6106,-1.506,-1.4465,0.0,0.0,0.0,0.0,0.0,0.0,0.0,0.0,-1.3306,-1.3529,-1.4574,-1.5035,-1.5489,-1.6311,-1.7183,-1.8179,-1.936,-2.0055,-2.0797,-2.1696,-2.176,-2.1897,-2.2035,-2.2173,-2.2104,-2.1829,-2.176,-2.1531,-2.0971,-2.1132,-2.1084,-2.0514,-2.0687,-2.0535,-2.0059,-1.9886,-1.9595,-1.9198,-1.9132,-1.9105,-1.9105,-1.8576,-1.8298,-1.8218,-1.8554,-1.876,-1.8864,-1.9737,-1.9559,-1.8634,-1.8024,-1.7437,-1.7005,-1.7826,-1.7594,-1.6978,-1.7842,-1.752,-1.6708,0.0,0.0,0.0,0.0,0.0,0.0,0.0,0.0,-0.0131,0.0,-0.018,-0.0944,-0.2751,-0.3029,-0.3881,-0.5796,-0.6613,-0.7279,-0.7886,-0.8883,-0.9844,-1.0577,-1.1171,-1.1558,-1.1592,-1.1714,-1.1728,-1.1619,-1.1619,-1.1619,-1.1619,-1.1743,-1.1814,-1.1828,-1.1814,-1.189,-1.2022,-1.2022,-1.2809,-1.3994,-1.3796,-1.45,-1.5817,-1.6561,-1.7794,-1.9063,-1.8734,-1.8179,-1.7599,-1.7864,-1.7622,-1.7271,-1.7441,-1.7101,-1.6459,-1.5648,-1.4703,-1.3686,-1.2644,-1.2402,-1.2487,-1.2656,-1.2887,-1.3504,0.0,-1.5176,-1.5333,-1.7089,-1.7489,-1.778,-1.8591,-1.8858,-1.9285,-2.0422,-2.0699,-2.1009,-2.1721,-2.176,-2.1691,-2.1346,-2.1622,-2.1829,-2.176,-2.176,-2.1531,-2.0971,-2.0933,-2.0691,-2.0196,-1.9747,-1.944,-1.9376,-1.8647,-1.8352,-1.8532,-1.8288,-1.8173,-1.816,-1.7853,-1.7516,-1.7261,-1.7036,-1.716,-1.7424,-1.7315,-1.715,-1.6931,-1.6397,-1.5917,-1.5629,-1.5722,-1.5581,-1.5342,-1.6287,-1.6564,-1.6227,0.0,0.0,0.0,0.0,0.0,0.0,0.0,0.0,0.0,0.0,-0.0431,-0.1229,-0.2539,-0.3542,-0.4467,-0.5287,-0.6082,-0.6821,-0.7487,-0.8575,-0.95,-1.0241,-1.0741,-1.1004,-1.1015,-1.1364,-1.1477,-1.151,-1.173,-1.1877,-1.1877,-1.1877,-1.1877,-1.1877,-1.1877,-1.1911,-1.1959,-1.187,-1.2195,-1.2743,-1.2428,-1.309,-1.4308,-1.5156,-1.6275,-1.7434,-1.7482,-1.731,0.0,-1.6791,-1.667,-1.6694,-1.7117,-1.6779,-1.6163,-1.5825,-1.4968,-1.4075,-1.3785,-1.3592,-1.364,-1.4377,-1.4883,-1.5487,-1.6573,-1.6767,-1.7068,-1.8312,-1.8698,-1.9,-1.9652,-1.9905,-2.0178,-2.0654,-2.0772,-2.0808,-2.1126,-2.1015,-2.0786,-2.0502,-2.0613,-2.0805,-2.1113,-2.0866,-2.0595,-2.036,-2.0235,-2.0015,-1.9625,-1.9409,-1.9239,-1.9086,-1.8728,-1.8466,-1.8415,-1.83,-1.825,-1.825,-1.797,-1.769,-1.7355,-1.7063,-1.6902,-1.6895,-1.678,-1.6575,-1.6199,-1.5969,-1.5645,-1.5235,-1.5235,-1.5157,-1.5153,-1.6,-1.5877,-1.5255,0.0,0.0,0.0,0.0,0.0,0.0,0.0,0.0,0.0,0.0,-0.0547,-0.1345,-0.2372,-0.3797,-0.474,-0.4979,-0.5583,-0.625,-0.7027,-0.7974,-0.8933,-0.9733,-1.0223,-1.0468,-1.0596,-1.0969,-1.1212,-1.1239,-1.1538,-1.1762,-1.1762,-1.1836,-1.1911,-1.1911,-1.206,-1.2088,-1.2115,-1.1959,-1.1898,-1.1864,-1.1525,-1.1894,-1.2754,-1.3609,-1.4471,-1.5364,-1.6251,-1.6344,-1.5958,-1.5415,-1.5318,-1.5487,-1.5958,-1.5861,-1.5547,-1.5475,-1.4751,-1.4039,-1.4316,-1.4401,-1.4666,-1.5728,-1.6513,-1.7177,-1.7781,-1.807,-1.8432,-1.9241,-1.9507,-1.9748,-2.0291,-2.0484,-2.0581,-2.0653,-2.0665,-2.0665,-2.0665,-2.0448,-2.0183,-1.9917,-1.9748,-1.9845,-2.0291,-2.0062,-1.9881,-1.9881,-1.9707,-1.9444,-1.9173,-1.9087,-1.8885,-1.8608,-1.8458,-1.8282,-1.8023,-1.801,-1.801,-1.801,-1.781,-1.7679,-1.7478,-1.7114,-1.6854,-1.6577,-1.6501,-1.6251,-1.5897,-1.572,-1.5466,-1.5083,-1.5083,-1.5083,-1.5175,-1.575,-1.5363,-1.4604,0.0,0.0,0.0,0.0,0.0,0.0,0.0,0.0,0.0,0.0,0.0,0.0,0.0,-0.3285,-0.4146,-0.494,-0.5313,-0.5772,-0.641,-0.7345,-0.8277,-0.8986,-0.9847,-1.0398,-1.0527,-1.0798,-1.0859,-1.079,-1.0865,-1.0865,-1.0865,-1.1239,-1.1388,-1.1463,-1.1911,-1.2142,-1.2271,-1.2121,-1.2054,-1.2013,-1.1572,-1.1212,-1.1022,-1.1799,-1.2363,-1.3108,-1.5443,-1.5463,-1.4292,-1.3761,-1.3423,-1.3266,-1.3532,-1.4147,-1.4702,-1.4425,-1.3785,-1.3173,-1.3483,-1.4111,-1.4956,-1.6006,-1.7056,-1.8046,-1.8843,-1.9036,-1.9265,-2.0074,-2.005,-2.0038,-2.0557,-2.046,-2.0376,-2.0629,-2.0665,-2.0665,-2.0665,-2.0448,-2.0183,-1.9917,-1.9422,-1.9205,-1.9536,-1.9736,-1.9881,-1.9881,-1.9615,-1.9403,-1.9136,-1.864,-1.8228,-1.7937,-1.7441,-1.7174,-1.7162,-1.7162,-1.7162,-1.7162,-1.715,-1.715,-1.7126,-1.687,-1.6584,-1.6311,-1.6051,-1.5933,-1.5884,-1.5369,-1.5094,-1.5083,-1.5083,-1.5083,-1.5083,-1.5105,-1.4927,-1.4515,0.0,0.0,0.0,0.0,0.0,0.0,0.0,0.0,0.0,0.0,0.0,0.0,0.0,0.0,0.0,0.0,-0.5077,-0.5745,-0.6062,-0.6954,-0.7629,-0.7983,-0.8759,-0.9274,-0.9414,-0.9951,-1.0314,-1.0491,-1.0715,-1.0865,-1.0865,-1.1014,-1.1089,-1.1096,-1.1642,-1.1865,-1.1897,-1.2053,-1.2135,-1.2013,-1.1463,-1.1002,-1.0713,-1.1379,-1.1825,-1.2152,0.0,-1.2875,-1.3109,-1.2216,-1.1986,-1.2139,-1.2783,-1.3157,-1.3435,-1.3701,-1.3966,-1.4352,-1.5137,-1.5813,-1.6585,-1.7829,-1.8674,-1.9326,-1.9772,-2.0014,-2.011,-2.0038,-1.9519,-1.9036,-1.8843,-1.8746,-1.8831,-1.9277,-1.9796,-2.0267,-2.0617,-2.0448,-2.005,-1.9422,-1.9338,-1.9169,-1.8734,-1.8927,-1.9229,-1.9579,-1.9193,-1.8831,-1.8565,-1.8215,-1.7889,-1.7624,-1.7443,-1.7358,-1.7358,-1.7358,-1.7358,-1.7346,-1.6996,-1.6827,-1.6815,-1.6381,-1.6131,-1.6045,-1.596,-1.5817,-1.5599,-1.5228,-1.501,-1.4814,-1.4618,-1.4592,-1.4592,-1.4592,-1.4483,-1.437,0.0,0.0,0.0,0.0,0.0,0.0,0.0,0.0,0.0,0.0,0.0,0.0,0.0,0.0,0.0,0.0,0.0,-0.5289,-0.5842,-0.641,-0.6855,-0.7182,-0.7682,-0.8062,-0.8307,-0.8761,-0.9126,-0.9382,-0.9724,-0.996,-1.0013,-1.0293,-1.0432,-1.0438,-1.102,-1.1231,-1.1218,-1.1371,-1.1358,-1.1308,-1.0772,-1.0256,-0.9944,-1.0308,-1.059,0.0,-1.0052,-1.0504,-1.1324,-1.0781,-1.0995,-1.1597,-1.224,-1.2626,-1.2964,-1.3495,-1.4159,-1.4968,-1.6115,-1.696,-1.7841,-1.9169,-1.9772,-2.0122,-2.0472,-2.0545,-2.0352,-1.9724,-1.8951,-1.8227,-1.7696,-1.7443,-1.7527,-1.8155,-1.8686,-1.9314,-2.019,-2.0014,-1.9724,-1.9398,-1.9422,-1.9265,-1.8758,-1.8782,-1.9,-1.9499,-1.9072,-1.871,-1.8444,-1.8179,-1.7853,-1.7491,-1.7575,-1.7527,-1.7346,-1.7527,-1.7575,-1.7479,-1.7141,-1.6887,-1.6682,-1.6332,-1.6079,-1.5885,-1.5885,-1.5692,-1.5342,-1.5173,-1.4896,-1.4545,-1.4364,-1.4292,-1.4292,-1.4292,-1.4292,-1.4267,0.0,0.0,0.0,0.0,0.0,0.0,0.0,0.0,0.0,0.0,0.0,0.0,0.0,0.0,0.0,0.0,0.0,0.0,-0.5804,-0.5893,-0.6105,-0.6562,-0.6725,-0.691,-0.7193,-0.7269,-0.7453,-0.7693,-0.803,-0.8258,-0.8378,-0.9126,-0.9497,-0.9503,-1.005,-1.0327,-1.0244,-1.0115,-1.0034,-0.9896,-0.9464,-0.9137,-0.8824,-0.8567,-0.8772,-0.9108,-0.838,-0.8589,-0.9208,-0.9579,-1.0521,-1.1597,-1.1886,-1.2566,-1.3314,-1.3882,-1.4437,-1.5149,-1.6501,-1.7624,-1.8722,-2.0002,-2.0315,-2.0436,-2.0977,-2.0605,-1.9989,-1.9169,-1.8324,-1.7563,-1.7008,-1.6549,-1.6501,-1.7298,-1.7503,-1.8022,-1.9338,-1.9314,-1.9338,-1.9833,-1.9664,-1.9495,-1.9446,-1.9229,-1.9193,-1.9487,-1.9217,-1.8951,-1.8674,-1.8432,-1.8046,-1.7503,-1.772,-1.7612,-1.7117,-1.7612,-1.7732,-1.7479,-1.7455,-1.7177,-1.6706,-1.667,-1.638,-1.5885,-1.5885,-1.5608,-1.5149,-1.5113,-1.4799,-1.434,-1.4304,-1.4292,-1.4292,-1.4292,-1.4292,-1.422,0.0,0.0,0.0,0.0,0.0,0.0,0.0,0.0,0.0,0.0,0.0,0.0,0.0,0.0,0.0,0.0,0.0,0.0,-0.5459,-0.5757,-0.5958,-0.6078,-0.6545,-0.6872,-0.7024,-0.723,-0.7352,-0.7568,-0.7655,-0.7714,-0.7752,-0.7961,-0.8005,-0.8072,-0.8573,-0.8818,-0.8875,-0.9088,-0.926,-0.9364,-0.8936,-0.8712,-0.8554,-0.814,-0.8343,-0.8764,-0.7752,-0.8428,-0.978,-0.9732,-1.0897,-1.2518,-1.3194,-1.3821,-1.4533,-1.5656,-1.6368,-1.7117,-1.865,-1.9555,-2.0195,-2.0726,-2.0929,-2.0868,-2.0533,-1.9905,-1.9096,-1.8094,-1.6779,-1.5523,-1.4594,-1.4968,-1.5668,-1.6465,-1.7756,-1.906,-2.0207,-2.0371,-2.0171,-1.9917,-1.9989,-1.9833,-1.9229,-1.9289,-1.9314,-1.9181,-1.912,-1.8879,-1.842,-1.8336,-1.8046,-1.7503,-1.7551,-1.7515,-1.7382,-1.7515,-1.7551,-1.7479,-1.708,-1.6827,-1.6682,-1.6284,-1.6018,-1.5885,-1.5885,-1.5813,-1.5656,-1.527,-1.5028,-1.4859,-1.4461,-1.4292,-1.4292,-1.4292,-1.4292,-1.4148,0.0,0.0,0.0,0.0,0.0,0.0,0.0,0.0,0.0,0.0,0.0,0.0,0.0,0.0,0.0,0.0,0.0,0.0,0.0,-0.5638,-0.5725,-0.567,-0.5991,-0.6203,-0.6274,-0.6404,-0.6507,-0.6578,-0.6785,-0.6888,-0.6893,-0.7105,-0.7203,-0.7209,-0.7561,-0.7732,-0.7732,-0.7961,-0.8082,0.0,0.0,-0.7661,-0.757,-0.7281,-0.7499,-0.7834,-0.7214,-0.808,-0.9613,-0.9855,-1.1288,-1.3056,-1.3243,-1.3989,-1.5078,-1.6342,-1.7385,-1.8336,-1.982,-2.0533,-2.1001,-2.1317,-2.1219,-2.0714,-2.0074,-1.9205,-1.8118,-1.6585,-1.5463,-1.4497,-1.3664,-1.4099,-1.492,-1.5946,-1.7189,-1.8481,-1.9784,-2.0062,-2.0158,-2.0219,-2.0364,-2.0267,-1.982,-1.9808,-1.9712,-1.9446,-1.9108,-1.8722,-1.8312,-1.8179,-1.7913,-1.7491,-1.7587,-1.766,-1.766,-1.743,-1.737,-1.7479,-1.7068,-1.6875,-1.6863,-1.6441,-1.5903,-1.5298,0.0,-1.5068,-1.493,-1.4539,-1.4574,-1.4896,-1.4461,-1.4292,-1.4292,-1.4292,-1.4004,-1.3488,0.0,0.0,0.0,0.0,0.0,0.0,0.0,0.0,0.0,0.0,0.0,0.0,0.0,0.0,0.0,0.0,0.0,0.0,0.0,0.0,-0.5486,-0.542,-0.5462,-0.5462,-0.5462,-0.5462,-0.5462,-0.5462,-0.5833,-0.604,-0.6045,-0.6464,-0.666,-0.6665,-0.6774,-0.6817,-0.6817,-0.6817,-0.6792,-0.6683,-0.6574,-0.6467,-0.6384,0.0,-0.6567,-0.6751,-0.6789,-0.7759,-0.9108,-0.9717,-1.145,-1.3258,-1.2823,-1.3732,-1.523,-1.6551,-1.781,-1.9006,-2.0533,-2.104,-2.1389,-2.1764,-2.1293,-2.0541,-1.9531,-1.8419,-1.7014,-1.5026,-1.428,-1.3861,-1.3498,-1.3713,-1.4364,-1.5765,-1.6453,-1.737,-1.9012,-1.9434,-1.9911,-2.0581,-2.0665,-2.0641,-2.0569,-2.0364,-2.011,-1.9857,-1.9084,-1.8541,-1.8312,-1.7937,-1.7482,-1.7009,-1.7363,-1.753,-1.753,-1.7228,-1.7165,-1.743,-1.6992,-1.6827,-1.6851,-1.6384,-1.5501,-1.4338,-1.4049,0.0,-1.3614,-1.3329,-1.3667,-1.4281,-1.4012,-1.3883,-1.3908,-1.3908,-1.3318,-1.2484,0.0,0.0,0.0,0.0,0.0,0.0,0.0,0.0,0.0,0.0,0.0,-0.0313,0.0,0.0,0.0,0.0,0.0,0.0,0.0,0.0,0.0,-0.5626,-0.5626,-0.5626,-0.5626,-0.5626,-0.5626,-0.5626,-0.5707,-0.575,-0.575,-0.5837,-0.5874,-0.5874,-0.5896,-0.5901,-0.5901,-0.5901,-0.6053,-0.6213,-0.619,-0.6272,-0.6384,-0.6384,0.0,0.0,-0.6783,-0.7794,-0.8931,-0.8595,-1.0413,-1.2908,-1.3453,-1.4196,-1.525,-1.7208,-1.8168,-1.9127,-2.1363,-2.2091,-2.2029,-2.1897,-2.1426,-2.0626,-1.8879,-1.7054,-1.5509,-1.4566,-1.3194,-1.2383,-1.3028,-1.358,-1.4485,-1.6272,-1.7008,-1.7986,-1.9808,-2.011,-2.0267,-2.0629,-2.0665,-2.0496,-2.0062,-1.9977,-1.9833,-1.9555,-1.8807,-1.8348,-1.83,-1.7234,-1.595,-1.4391,-1.5184,-1.5693,-1.5693,-1.64,-1.6899,-1.7153,-1.5852,-1.5327,-1.5503,-1.3984,-1.3158,-1.2942,-1.2785,0.0,-1.2612,-1.2356,-1.2248,-1.2281,-1.2013,-1.1826,-1.1755,-1.1755,-1.1609,-1.1317,0.0,0.0,0.0,0.0,0.0,0.0,0.0,0.0,0.0,0.0,0.0,-0.0359,-0.1301,-0.0987,-0.1525,0.0,0.0,0.0,0.0,0.0,0.0,0.0,-0.5561,-0.5594,-0.5594,-0.5594,-0.5594,-0.5594,0.0,-0.5659,-0.5594,-0.5659,-0.5653,-0.5599,-0.5659,-0.5653,-0.5599,-0.5664,-0.5774,-0.5908,-0.5908,-0.5952,-0.6035,0.0,0.0,0.0,-0.6536,-0.7176,-0.7868,-0.775,-0.892,-1.0613,-1.1429,-1.259,-1.3821,-1.5105,-1.6134,-1.7438,-1.9799,-1.9811,-1.9236,-2.0078,-1.9246,-1.7713,-1.5905,-1.4494,-1.3216,-1.2042,-1.1191,-1.086,-1.1506,-1.207,-1.2867,-1.4208,-1.5523,-1.6808,-1.8134,-1.9245,-2.0014,-2.0412,-2.046,-2.0364,-2.011,-1.9965,-1.9487,-1.8604,-1.8083,-1.7759,-1.7497,-1.5924,-1.464,-1.3825,-1.4222,-1.4399,-1.4399,-1.4641,-1.4866,-1.5077,-1.423,-1.4016,-1.4217,-1.3375,-1.2596,-1.192,-1.1561,0.0,-1.1202,-1.0791,-1.0983,-1.1394,-1.1087,-1.1016,-1.1073,-1.1021,-1.073,-1.0288,0.0,0.0,0.0,0.0,0.0,0.0,0.0,0.0,0.0,0.0,0.0,-0.0449,-0.1615,-0.1525,-0.2195,0.0,0.0,0.0,0.0,0.0,0.0,0.0,0.0,0.0,-0.5545,0.0,0.0,-0.5545,-0.5642,0.0,0.0,0.0,0.0,0.0,-0.5621,-0.561,-0.5551,-0.5621,-0.5664,0.0,0.0,-0.5691,-0.5691,0.0,0.0,0.0,0.0,-0.6475,-0.6786,-0.7021,-0.7527,-0.8247,-0.8949,-1.0412,-1.2025,-1.2705,-1.389,-1.5437,-1.7681,-1.7232,-1.6534,-1.7873,-1.6771,-1.4882,-1.3153,-1.2156,-1.1203,-0.9814,-0.9432,-0.9604,-1.0234,-1.0646,-1.1144,-1.214,-1.356,-1.4874,-1.5905,-1.7433,-1.8673,-1.9288,-1.9347,-1.9335,-1.93,-1.9115,-1.8396,-1.7139,-1.6664,-1.6254,-1.5895,-1.425,-1.3217,-1.3101,-1.312,-1.3182,-1.3182,-1.301,-1.2994,-1.3089,-1.2652,-1.2581,-1.2808,-1.2431,-1.1687,-1.0674,-1.019,0.0,0.0,-0.9237,-0.9594,-1.0363,-1.0079,-1.0086,-1.0213,-1.0112,-0.9632,-0.9065,0.0,0.0,0.0,0.0,0.0,0.0,0.0,0.0,0.0,0.0,0.0,-0.0719,-0.2553,-0.1927,-0.2195,0.0,0.0,0.0,0.0,0.0,0.0,0.0,0.0,0.0,0.0,0.0,0.0,-0.5675,-0.5686,0.0,0.0,0.0,0.0,0.0,0.0,-0.5578,-0.5664,-0.5567,0.0,0.0,0.0,0.0,0.0,0.0,0.0,0.0,0.0,-0.5928,-0.62,-0.6338,-0.6713,-0.716,-0.7343,-0.864,-1.0372,-1.1844,-1.299,-1.4207,-1.6171,-1.6561,-1.6448,-1.6339,-1.5567,-1.4396,-1.2581,-1.1164,-1.0073,-0.966,-0.8939,-0.8794,-1.036,-1.0289,-1.0496,-1.2061,-1.2043,-1.2477,-1.4321,-1.4876,-1.5376,-1.6196,-1.6409,-1.637,-1.5982,-1.5924,-1.5759,-1.5381,-1.3994,-1.3161,-1.2998,-1.2283,-1.1408,-1.0411,-1.1139,-1.1492,-1.1492,-1.2284,-1.2627,-1.2632,-1.1329,-1.0742,-1.0812,-0.9442,-0.88,-0.8659,-0.8339,-0.822,0.0,-0.8058,-0.8056,-0.8104,-0.8078,-0.7914,-0.7744,-0.7731,-0.7598,-0.7434,0.0,0.0,0.0,0.0,0.0,0.0,0.0,0.0,0.0,0.0,0.0,-0.0494,-0.1837,-0.1658,-0.2195,-0.4121,0.0,0.0,0.0,0.0,0.0,0.0,0.0,0.0,0.0,0.0,-0.5615,-0.5691,-0.5691,0.0,0.0,0.0,0.0,0.0,0.0,-0.5605,-0.5583,-0.5605,0.0,0.0,0.0,0.0,0.0,0.0,0.0,0.0,0.0,0.0,-0.5882,-0.5931,-0.617,-0.6426,-0.6328,-0.7018,-0.8096,-0.9337,-1.02,-1.126,-1.3417,-1.3402,-1.301,-1.3851,-1.2795,-1.123,-0.9877,-0.8913,-0.8172,-0.7788,-0.7323,-0.7243,-0.7983,-0.8056,-0.8236,-0.8878,-0.966,-1.0636,-1.1937,-1.3051,-1.4188,-1.5318,-1.5472,-1.549,-1.5498,-1.5236,-1.4585,-1.3244,-1.1754,-1.0909,-1.0753,-1.0712,-1.0521,-1.0181,-1.0134,-1.0148,-1.0148,-1.012,-1.0008,-0.9827,-0.9356,-0.9211,-0.9211,-0.8717,-0.8402,-0.8323,-0.8043,-0.7841,0.0,-0.7546,-0.7468,-0.7402,-0.7334,-0.735,-0.7411,-0.7328,-0.7319,-0.7313,0.0,0.0,0.0,0.0,0.0,0.0,0.0,0.0,0.0,0.0,0.0,-0.0359,-0.1301,-0.1391,-0.1972,-0.3314,-0.43,0.0,0.0,0.0,0.0,0.0,0.0,0.0,0.0,0.0,-0.5605,-0.5691,-0.5691,-0.5691,0.0,0.0,-0.5642,-0.5561,0.0,0.0,0.0,0.0,0.0,0.0,0.0,0.0,0.0,0.0,0.0,0.0,0.0,0.0,0.0,0.0,0.0,-0.5953,-0.5739,-0.5971,-0.6524,-0.7377,-0.8155,-0.904,-1.0771,-1.0754,-1.0448,-1.1574,-1.0402,-0.8849,-0.8002,-0.7362,-0.6797,-0.6403,-0.623,-0.6237,-0.6372,-0.6567,-0.67,-0.67,-0.7674,-0.8738,-0.9529,-1.0757,-1.199,-1.2995,-1.3219,-1.3406,-1.3643,-1.3453,-1.2744,-1.1393,-1.0219,-0.9539,-0.9469,-0.9697,-0.9873,-0.9962,-0.9471,-0.922,-0.9281,-0.8698,-0.829,-0.7995,-0.807,-0.8043,-0.8028,-0.8111,-0.8105,-0.7965,-0.7748,-0.755,0.0,-0.7216,-0.7161,-0.7155,-0.7106,-0.7176,-0.7294,-0.715,-0.72,-0.724,0.0,0.0,0.0,0.0,0.0,0.0,0.0,0.0,0.0,0.0,0.0,-0.0359,-0.1301,-0.1391,-0.1391,-0.1436,-0.233,0.0,0.0,0.0,0.0,0.0,0.0,0.0,0.0,0.0,-0.5686,-0.5691,-0.5691,-0.5691,-0.5691,-0.5691,-0.5691,-0.568,0.0,0.0,0.0,0.0,0.0,0.0,0.0,0.0,0.0,0.0,0.0,0.0,0.0,0.0,0.0,0.0,0.0,0.0,0.0,-0.5691,-0.5815,-0.6458,-0.7399,-0.8323,-0.8749,-0.9292,-0.9677,-0.9752,-0.8954,-0.8117,-0.7627,-0.6872,-0.6261,-0.6116,-0.608,-0.6169,-0.634,-0.6384,-0.6384,-0.6384,-0.6435,-0.6624,-0.7267,-0.7694,-0.8053,-0.8452,-0.8794,-0.9156,-0.936,-0.9568,-0.9716,-0.9838,-0.954,-0.9398,-0.9321,-0.938,-0.9331,-0.9131,-0.8989,-0.8915,-0.8915,-0.8579,-0.8264,-0.7974,-0.7725,-0.7505,-0.7334,-0.7339,-0.7339,-0.7328,-0.7265,-0.715,0.0,-0.6986,-0.6986,-0.6997,-0.7166,-0.7139,-0.6986,-0.6986,-0.6904,-0.6785,0.0,0.0,0.0,0.0,0.0,0.0,0.0,0.0,-0.0045,-0.0269,-0.0135,-0.018,-0.0673,-0.0538,-0.0449,-0.0449,-0.1929,0.0,0.0,0.0,0.0,0.0,0.0,0.0,0.0,0.0,-0.5691,-0.5691,-0.5691,-0.5691,-0.5691,-0.5691,-0.5691,-0.5686,-0.5648,-0.5653,0.0,0.0,0.0,0.0,0.0,0.0,-0.5691,0.0,0.0,0.0,0.0,0.0,0.0,0.0,0.0,0.0,0.0,0.0,0.0,-0.5912,-0.6665,-0.7459,-0.7818,-0.8231,-0.8634,-0.8634,-0.8024,-0.7415,-0.71,-0.6502,-0.601,-0.5863,-0.5753,-0.572,-0.5891,-0.608,-0.6242,-0.6337,-0.6361,-0.6587,-0.7082,-0.7449,-0.7944,-0.8645,-0.9408,-0.9819,-0.9712,-0.9578,-0.94,-0.9233,-0.9087,-0.8861,-0.8567,-0.8674,-0.8857,-0.9197,-0.8959,-0.8768,-0.8679,-0.8179,-0.7791,-0.7503,-0.7399,-0.7287,-0.7214,-0.7214,-0.7214,-0.7209,-0.7226,0.0,0.0,-0.6986,-0.6986,-0.6991,-0.7024,-0.7117,-0.7155,-0.7155,-0.7029,-0.6921,0.0,0.0,0.0,0.0,0.0,0.0,0.0,-0.0265,-0.0314,-0.0493,-0.0359,-0.0314,-0.0493,-0.0359,-0.0269,-0.0269,-0.1389,0.0,0.0,0.0,0.0,0.0,0.0,0.0,-0.5151,-0.5508,-0.5691,-0.5691,-0.5691,-0.5691,-0.5691,-0.5691,-0.5691,-0.5691,-0.5691,-0.5691,0.0,0.0,0.0,0.0,0.0,0.0,-0.5691,0.0,0.0,0.0,0.0,0.0,0.0,0.0,0.0,0.0,0.0,0.0,0.0,0.0,-0.6132,-0.6676,-0.7127,-0.7578,-0.7932,-0.8037,-0.7593,-0.7029,-0.679,-0.6268,-0.5795,-0.5632,-0.5529,-0.5529,-0.5605,-0.5786,-0.5981,-0.606,-0.6093,-0.6268,-0.6608,-0.6977,-0.751,-0.819,-0.9027,-0.9423,-0.9245,-0.9279,-0.9162,-0.8954,-0.8758,-0.8519,-0.8183,-0.835,-0.8556,-0.8875,-0.8632,-0.8398,-0.829,-0.7845,-0.7535,-0.7277,-0.7214,-0.721,-0.721,-0.721,-0.721,-0.721,-0.721,0.0,0.0,-0.6986,-0.6959,-0.6921,-0.697,-0.7029,-0.715,-0.7193,-0.7166,-0.7046,0.0,0.0,0.0,0.0,0.0,0.0,0.0,-0.0697,-0.0714,-0.0716,-0.0716,-0.0717,-0.0717,-0.0717,-0.0717,-0.0717,0.0,0.0,0.0,0.0,0.0,0.0,0.0,0.0,-0.421,-0.5062,-0.5508,-0.5508,-0.5518,-0.5518,-0.5518,-0.5484,-0.5484,-0.5518,-0.5518,-0.5518,0.0,0.0,0.0,0.0,0.0,0.0,0.0,0.0,0.0,0.0,0.0,0.0,0.0,0.0,0.0,0.0,0.0,0.0,0.0,0.0,0.0,0.0,0.0,-0.7033,-0.76,-0.7703,-0.7312,-0.6839,-0.6616,-0.6079,0.0,-0.5442,-0.548,-0.5508,-0.5518,-0.561,-0.5691,-0.5702,-0.5696,-0.5729,-0.5899,-0.6366,-0.6877,-0.7298,-0.8046,-0.8426,-0.8285,-0.8625,-0.889,-0.8874,-0.8622,-0.8378,-0.8188,-0.8356,-0.8356,-0.8225,-0.8122,-0.7959,-0.7731,-0.7589,-0.7459,-0.7277,-0.7214,-0.721,-0.721,-0.721,-0.721,0.0,-0.721,0.0,0.0,-0.6975,-0.6904,-0.6812,-0.6915,-0.6964,-0.6986,-0.7144,-0.7182,-0.7172,0.0,0.0,0.0,0.0,0.0,0.0,0.0,0.0,0.0,0.0,-0.0789,-0.0794,-0.0985,-0.0807,-0.0717,0.0,0.0,0.0,0.0,0.0,0.0,0.0,0.0,0.0,-0.3444,-0.3537,-0.3537,-0.3537,-0.3545,-0.3572,-0.3572,-0.3536,-0.3579,-0.3572,-0.3572,-0.3542,0.0,0.0,0.0,0.0,0.0,0.0,0.0,0.0,0.0,0.0,-0.3537,-0.3537,0.0,0.0,0.0,0.0,0.0,0.0,0.0,0.0,-0.4674,-0.4546,-0.4018,0.0,-0.6333,-0.6361,-0.6198,-0.6034,0.0,-0.5777,-0.5561,-0.5599,-0.5551,-0.5534,-0.5626,-0.5669,-0.5718,-0.585,-0.5745,-0.5806,-0.6013,-0.6855,-0.7627,-0.8106,-0.8715,-0.8976,-0.8677,-0.8916,-0.9014,-0.8829,-0.8649,-0.8497,-0.8383,-0.8405,-0.8318,-0.81,-0.816,-0.8122,-0.8032,-0.7671,-0.7459,-0.7277,-0.7214,-0.721,-0.721,-0.721,-0.721,-0.721,0.0,0.0,-0.698,-0.6883,-0.6828,-0.6796,-0.673,-0.6763,-0.685,-0.6877,-0.6888,-0.6893,0.0,0.0,0.0,0.0,0.0,0.0,0.0,0.0,0.0,0.0,0.0,-0.1096,-0.1208,-0.1122,0.0,0.0,0.0,0.0,0.0,0.0,0.0,0.0,0.0,-0.2285,-0.2372,-0.2732,-0.288,-0.2905,-0.2892,-0.2918,-0.2899,-0.2904,-0.2888,-0.2902,-0.2878,-0.2897,0.0,0.0,0.0,0.0,-0.2911,0.0,0.0,0.0,0.0,0.0,-0.2911,-0.2911,0.0,-0.2942,-0.3249,-0.3678,0.0,0.0,0.0,0.0,-0.3671,-0.3547,-0.3086,-0.3737,-0.4589,-0.4635,-0.461,-0.4564,-0.4526,-0.441,-0.4301,-0.4225,-0.4212,-0.422,-0.4314,-0.4795,-0.4994,-0.4596,-0.5347,-0.6149,-0.66,-0.7307,-0.7937,-0.8367,-0.8796,-0.9003,-0.8867,-0.8921,-0.8916,-0.878,-0.8557,-0.8399,-0.8339,-0.828,-0.8187,-0.8119,-0.8062,-0.7986,-0.7812,-0.7616,-0.7426,-0.7252,-0.7243,-0.721,-0.721,-0.721,-0.721,-0.721,0.0,0.0,-0.7056,-0.6937,-0.6855,-0.6796,-0.673,-0.6709,-0.6725,-0.6779,-0.6839,-0.6893,0.0,0.0,0.0,0.0,0.0,0.0,0.0,0.0,0.0,0.0,0.0,0.0,0.0,0.0,0.0,0.0,0.0,0.0,0.0,0.0,0.0,0.0,-0.0763,-0.1211,-0.1256,-0.2061,-0.244,-0.2479,-0.2449,-0.2478,-0.2471,-0.2436,-0.246,-0.2442,-0.244,-0.2464,0.0,0.0,0.0,0.0,-0.2464,0.0,0.0,0.0,0.0,0.0,0.0,0.0,0.0,-0.2513,-0.259,-0.2695,-0.2741,0.0,0.0,0.0,0.0,0.0,-0.2473,-0.2502,-0.2633,-0.3039,-0.3146,-0.3124,-0.2918,-0.2902,-0.2837,-0.2605,-0.2631,-0.2807,-0.299,-0.387,-0.4328,-0.3582,-0.5187,-0.6716,-0.7339,-0.7741,-0.8095,-0.8405,-0.8671,-0.8845,-0.882,-0.8818,-0.8753,-0.872,-0.8416,-0.8172,-0.8172,-0.8138,-0.8136,-0.8114,-0.8015,-0.7774,-0.7524,-0.7502,-0.7388,-0.7237,-0.7221,-0.721,-0.721,-0.721,-0.721,-0.721,0.0,0.0,-0.7199,-0.7029,-0.6915,-0.6801,-0.6779,-0.6698,-0.6605,-0.6709,-0.6812,-0.6904,0.0,0.0,0.0,0.0,0.0,0.0,0.0,0.0,0.0,0.0,0.0,0.0,0.0,0.0,0.0,0.0,0.0,0.0,0.0,0.0,0.0,-0.0359,-0.0269,-0.0314,-0.0538,-0.0494,-0.045,-0.0451,-0.0467,-0.0428,-0.0429,-0.0435,-0.043,-0.0462,-0.0453,-0.0449,-0.0449,0.0,0.0,0.0,-0.0449,0.0,0.0,0.0,0.0,0.0,0.0,0.0,0.0,-0.0451,-0.099,-0.1615,-0.1619,0.0,0.0,0.0,0.0,0.0,-0.0641,-0.0474,-0.0869,-0.253,-0.2943,-0.2916,-0.2894,-0.292,-0.2906,-0.2842,-0.2841,-0.3169,-0.4208,-0.4602,-0.5042,-0.5912,-0.6669,-0.7334,-0.7731,-0.8187,-0.8497,-0.8557,-0.8867,-0.8965,-0.8671,-0.872,-0.8687,-0.8486,-0.8323,-0.8172,-0.8172,-0.8214,-0.816,-0.8119,-0.8097,-0.7861,-0.7524,-0.7415,-0.7288,-0.7307,-0.7203,-0.721,-0.721,-0.721,-0.721,-0.721,0.0,-0.721,-0.7199,-0.7029,-0.6915,-0.679,-0.6687,-0.6573,-0.6419,-0.6435,-0.6452,-0.6484,0.0,0.0,0.0,0.0,0.0,0.0,0.0,0.0,0.0,0.0,0.0,0.0,0.0,0.0,0.0,0.0,0.0,0.0,0.0,0.0,-0.0717,-0.0762,-0.0269,-0.0045,-0.0179,-0.0045,0.0,0.0,0.0,0.0,0.0,0.0,0.0,0.0,0.0,0.0,0.0,0.0,0.0,0.0,0.0,0.0,0.0,0.0,0.0,0.0,0.0,0.0,0.0,0.0,-0.0269,-0.0629,-0.0629,0.0,0.0,0.0,0.0,0.0,-0.0136,0.0,-0.0238,-0.1099,-0.1311,-0.1326,-0.1316,-0.135,-0.1336,-0.1322,-0.1328,-0.1483,-0.2075,-0.2666,-0.351,-0.4797,-0.4702,-0.474,-0.5638,-0.6666,-0.7421,-0.7528,-0.8265,-0.8823,-0.8785,-0.8715,-0.8628,-0.8519,-0.8399,-0.8334,-0.8334,-0.8209,-0.8111,-0.8119,-0.8054,-0.7845,-0.7622,-0.7497,-0.7366,-0.7236,-0.7237,-0.721,-0.721,-0.721,-0.721,-0.721,0.0,-0.721,-0.7199,-0.7029,-0.6915,-0.679,-0.6665,-0.6495,-0.6392,-0.6462,-0.6484,-0.65,0.0,0.0,0.0,0.0,0.0,0.0,0.0,0.0,0.0,0.0,0.0,0.0,0.0,0.0,0.0,0.0,0.0,0.0,0.0,-0.0941,-0.0762,-0.0941,-0.0314,-0.0045,-0.0091,-0.0046,0.0,0.0,0.0,0.0,0.0,0.0,0.0,0.0,0.0,0.0,0.0,0.0,0.0,0.0,0.0,0.0,0.0,0.0,0.0,0.0,0.0,0.0,0.0,0.0,0.0,0.0,0.0,0.0,0.0,0.0,0.0,0.0,0.0,0.0,0.0,0.0,0.0,0.0,0.0,0.0,0.0,0.0,0.0,-0.0103,-0.0358,-0.1332,-0.2449,-0.3556,-0.3036,-0.2898,-0.3927,-0.5124,-0.6,-0.6122,-0.7044,-0.7679,-0.7886,-0.7728,-0.7593,-0.7545,-0.7473,-0.7406,-0.7358,-0.7223,-0.7123,-0.7137,-0.6988,-0.6887,-0.6762,-0.6652,-0.6819,-0.7292,-0.7237,-0.7226,-0.7198,-0.7221,-0.721,-0.721,-0.721,-0.721,-0.7204,-0.7117,-0.6953,-0.6834,-0.6741,-0.6632,-0.6478,-0.6594,-0.6638,-0.6671,0.0,0.0,0.0,0.0,0.0,0.0,0.0,0.0,0.0,0.0,0.0,0.0,0.0,0.0,0.0,0.0,0.0,0.0,0.0,-0.0852,-0.0628,-0.0448,-0.018,-0.0136,-0.0369,-0.0141,0.0,0.0,0.0,0.0,0.0,0.0,0.0,0.0,0.0,0.0,0.0,0.0,0.0,0.0,0.0,0.0,0.0,0.0,0.0,0.0,0.0,0.0,0.0,0.0,0.0,0.0,0.0,0.0,0.0,0.0,0.0,0.0,0.0,0.0,0.0,0.0,0.0,0.0,0.0,0.0,0.0,0.0,0.0,-0.0347,-0.1481,-0.2775,-0.3761,-0.4024,-0.4116,-0.4192,-0.4458,-0.4666,-0.4852,-0.486,-0.4801,-0.4811,-0.4829,-0.4693,-0.4535,-0.4421,-0.441,-0.4356,-0.4236,-0.4339,-0.4313,-0.4192,-0.4186,-0.4125,-0.4065,-0.394,-0.5084,-0.7491,-0.7263,-0.7214,-0.7317,-0.7203,-0.721,-0.721,-0.721,-0.721,-0.721,-0.7199,-0.7128,-0.697,-0.6964,-0.6883,-0.6763,-0.666,-0.6692,-0.6774,0.0,0.0,0.0,0.0,0.0,0.0,0.0,0.0,0.0,0.0,0.0,0.0,0.0,0.0,0.0,0.0,0.0,0.0,0.0,-0.0712,-0.0538,-0.0583,-0.0227,-0.0139,-0.0377,-0.0144,0.0,0.0,0.0,0.0,0.0,0.0,0.0,0.0,0.0,0.0,0.0,0.0,0.0,0.0,0.0,0.0,0.0,0.0,0.0,0.0,0.0,0.0,0.0,0.0,0.0,0.0,0.0,0.0,0.0,0.0,0.0,0.0,0.0,0.0,0.0,0.0,0.0,0.0,0.0,0.0,0.0,0.0,0.0,-0.0123,-0.0611,-0.1121,-0.1477,-0.1533,-0.1574,-0.1614,-0.1729,-0.2541,-0.3201,-0.3201,-0.3999,-0.4501,-0.4477,-0.4387,-0.4311,-0.4198,-0.4195,-0.4176,-0.4131,-0.4145,-0.4098,-0.4052,-0.3914,-0.3897,-0.3815,-0.3758,-0.4205,-0.5167,-0.5055,-0.499,-0.5021,-0.499,-0.5365,-0.6093,-0.6093,-0.6093,-0.6089,-0.5969,-0.5923,-0.5881,-0.5764,-0.5754,-0.5764,-0.5663,-0.565,-0.5783,0.0,0.0,0.0,0.0,0.0,0.0,0.0,0.0,0.0,0.0,0.0,0.0,0.0,0.0,0.0,0.0,0.0,0.0,-0.0905,-0.0567,-0.0441,-0.0488,-0.018,-0.0092,-0.0288,-0.0098,0.0,0.0,0.0,0.0,0.0,0.0,0.0,0.0,0.0,0.0,0.0,0.0,0.0,0.0,0.0,0.0,0.0,0.0,0.0,0.0,0.0,0.0,0.0,0.0,0.0,0.0,0.0,0.0,0.0,0.0,0.0,0.0,0.0,0.0,0.0,0.0,0.0,0.0,0.0,0.0,0.0,0.0,0.0,0.0,0.0,0.0,0.0,0.0,0.0,0.0,0.0,-0.0875,-0.1603,-0.1603,-0.2499,-0.3094,-0.3079,-0.3015,-0.2969,-0.2956,-0.2954,-0.2942,-0.2918,-0.2864,-0.2821,-0.2794,-0.2725,-0.2669,-0.2628,-0.2588,-0.2618,-0.2605,-0.2489,-0.2863,-0.3664,-0.3645,-0.4027,-0.4812,-0.4812,-0.4812,-0.4808,-0.475,-0.4673,-0.4666,-0.4611,-0.4622,-0.4662,-0.4525,-0.4514,-0.4694,0.0,0.0,0.0,0.0,0.0,0.0,0.0,0.0,0.0,0.0,0.0,0.0,0.0,0.0,0.0,0.0,0.0,0.0,-0.0716,-0.0505,-0.0255,0.0,0.0,0.0,0.0,0.0,0.0,0.0,0.0,0.0,0.0,0.0,0.0,0.0,0.0,0.0,0.0,0.0,0.0,0.0,0.0,0.0,0.0,0.0,0.0,0.0,0.0,0.0,0.0,0.0,0.0,0.0,0.0,0.0,0.0,0.0,0.0,0.0,0.0,0.0,0.0,0.0,0.0,0.0,0.0,0.0,0.0,0.0,0.0,0.0,0.0,0.0,0.0,0.0,0.0,0.0,0.0,0.0,0.0,0.0,0.0,0.0,0.0,0.0,0.0,0.0,0.0,0.0,0.0,0.0,0.0,0.0,0.0,0.0,0.0,0.0,0.0,0.0,0.0,-0.1299,-0.3782,-0.3608,-0.358,-0.358,-0.358,-0.358,-0.358,-0.358,-0.358,-0.358,-0.358,-0.358,-0.3575,-0.3458,-0.3474,-0.3572,0.0,0.0,0.0,0.0,0.0,0.0,0.0,0.0,0.0,0.0,0.0,0.0,0.0,0.0,0.0,0.0,0.0,0.0,-0.0411,-0.025,0.0257,0.1108,0.1126,0.1117,0.1126,0.0405,0.0,0.0,0.0,0.0,0.0,0.0,0.0,0.0,0.0,0.0,0.0,0.0,0.0,0.0,0.0,0.0,0.0,0.0,0.0,0.0,0.0,0.0,0.0,0.0,0.0,0.0,0.0,0.0,0.0,0.0,0.0,0.0,0.0,0.0,0.0,0.0,0.0,0.0,0.0,0.0,0.0,0.0,0.0,0.0,0.0,0.0,0.0,0.0,0.0,0.0,0.0,0.0,0.0,0.0,0.0,0.0,0.0,0.0,0.0,0.0,0.0,0.0,0.0,0.0,0.0,0.0,0.0,0.0,0.0,0.0,0.0,0.0,0.0,-0.0393,-0.1128,-0.1067,-0.1512,-0.2351,-0.2351,-0.2351,-0.2351,-0.2351,-0.2367,-0.2447,-0.2361,-0.2367,-0.2445,-0.2347,-0.2284,-0.2461,0.0,0.0,0.0,0.0,0.0,0.0,0.0,0.0,0.0,0.0,0.0,0.0,0.0,0.0,0.0,0.0,0.0,0.0,0.0,0.0782,0.1189,0.1519,0.1541,0.1541,0.1517,0.1373,0.1213,0.1147,0.0378,0.0,0.0,0.0,0.0,0.0,0.0453,0.0399,0.0048,0.0473,0.0374,0.0,0.0,0.0,0.0,0.0,0.0,0.0,0.0,0.0,0.0,0.0,0.0,0.0,0.0,0.0,0.0,0.0,0.0,0.0,0.0,0.0,0.0,0.0,0.0,0.0,0.0,0.0,0.0,0.0,0.0,0.0,0.0,0.0,0.0,0.0,0.0,0.0,0.0,0.0,0.0,0.0,0.0,0.0,0.0,0.0,0.0,0.0,0.0,0.0,0.0,0.0,0.0,0.0,0.0,0.0,0.0,0.0,0.0,0.0,0.0,0.0,0.0,0.0,-0.0392,-0.1065,-0.1065,-0.1065,-0.1065,-0.1065,-0.1127,-0.1193,-0.1125,-0.1127,-0.1193,-0.1124,-0.1065,-0.1176,0.0,0.0,0.0,0.0,0.0,0.0,0.0,0.0,0.0,0.0,-0.1151,0.0,0.0,0.0,0.0,0.0,0.0,0.0,0.0,0.2153,0.2388,0.1698,0.1713,0.172,0.1721,0.2684,0.3112,0.2912,0.1126,0.0254,0.0296,0.0259,0.0263,0.0363,0.1315,0.1206,0.0359,0.1313,0.1187,0.0285,0.0279,0.0277,0.0278,0.0277,0.0,0.0,0.0,0.0,0.0,0.0,0.0,0.0,0.0135,0.0133,0.0132,0.0046,0.0,0.0,0.0,0.0,0.0,0.0,0.0,0.0,0.0,0.0,0.0,0.0,0.0,0.0,0.0,0.0,0.0,0.0,0.0,0.0,0.0,0.0,0.0,0.0,0.0,0.0,0.0,0.0,0.0,0.0,0.0,0.0,0.0,0.0,0.0,0.0,0.0,0.0,0.0,0.0,0.0,0.0,0.0,0.0,0.0,0.0,0.0,0.0,0.0,0.0,0.0,0.0,0.0,0.0,0.0,0.0,0.0,0.0,0.0,0.0,0.0,0.0,0.0,0.0,0.0,0.0,0.0,0.0,0.0,0.0,0.0,0.0,0.0,0.0,0.0,0.0,0.0,0.0,0.0,0.2682,0.315,0.3794,0.3935,0.4069,0.4235,0.3454,0.3069,0.3153,0.2573,0.2288,0.2354,0.2332,0.2443,0.2688,0.2799,0.2752,0.2516,0.2633,0.2553,0.2363,0.2318,0.239,0.2496,0.2328,0.2315,0.0,0.0,0.0,0.0,0.0,0.0,0.0,0.1346,0.1085,0.0956,0.0226,0.0,0.0,0.0,0.0,0.0,0.0,0.0,0.0,0.0,0.0,0.0,0.0,0.0,0.0,0.0,0.0,0.0,0.0,0.0,0.0,0.0,0.0,0.0,0.0,0.0,0.0,0.0,0.0,0.0,0.0,0.0,0.0,0.0,0.0,0.0,0.0,0.0,0.0,0.0,0.0,0.0,0.0,0.0,0.0,0.0,0.0,0.0,0.0,0.0,0.0,0.0,0.0,0.0,0.0,0.0,0.0,0.0,0.0,0.0,0.0,0.0,0.0,0.0,0.0,0.0,0.0,0.0,0.0,0.0,0.0,0.0,0.0,0.0,0.0,0.0,0.0,0.0,0.0,0.0,0.0,0.4212,0.4394,0.4577,0.47,0.4655,0.4562,0.4466,0.4474,0.4375,0.3892,0.309,0.3075,0.3149,0.3327,0.3744,0.3607,0.3088,0.3618,0.3424,0.2865,0.2907,0.2943,0.3036,0.2854,0.2886,0.295,0.2845,0.0,0.0,0.0,0.0,0.0,0.0,0.0,0.202,0.1543,0.1369,0.1297,0.0805,0.0693,0.0561,0.0136,0.0,0.0,0.0,0.0,0.0,0.0,0.0,0.0,0.0,0.0,0.0,0.0,0.0,0.0,0.0,0.0,0.0,0.0,0.0,0.0,0.0,0.0,0.0,0.0,0.0,0.0,0.0,0.0,0.0,0.0,0.0,0.0,0.0,0.0,0.0,0.0,0.0,0.0,0.0,0.0,0.0,0.0,0.0,0.0,0.0,0.0,0.0,0.0,0.0,0.0,0.0,0.0,0.0,0.0,0.0,0.0,0.0,0.0,0.0,0.0,0.0,0.0,0.0,0.0,0.0,0.0,0.0,0.0,0.0,0.0,0.0,0.0,0.0,0.0,0.0,0.4627,0.4815,0.4836,0.4661,0.5597,0.6024,0.5964,0.5947,0.5218,0.3768,0.3776,0.3777,0.3849,0.4679,0.447,0.3534,0.4505,0.4262,0.3227,0.3315,0.3389,0.3405,0.3249,0.332,0.3413,0.3254,0.3307,0.3403,0.3403,0.0,0.0,0.0,0.0,0.3247,0.3089,0.3016,0.2834,0.2001,0.1621,0.1209,0.0279,0.0,0.0,0.0,0.0,0.0,0.0,0.0,0.0,0.0,0.0,0.0,0.0,0.0,0.0,0.0,0.0,0.0,0.0,0.0,0.0,0.0,0.0,0.0,0.0,0.0,0.0,0.0,0.0,0.0,0.0,0.0,0.0,0.0,0.0,0.0,0.0,0.0,0.0,0.0,0.0,0.0,0.0,0.0,0.0,0.0,0.0,0.0,0.0,0.0,0.0,0.0,0.0,0.0,0.0,0.0,0.0,0.0,0.0,0.0,0.0,0.0,0.0,0.0,0.0,0.12,0.1904,0.0,0.0,0.0,0.0,0.0,0.0,0.0,0.0,0.0,0.5863,0.5805,0.5847,0.6021,0.5982,0.6024,0.6268,0.6116,0.608,0.6134,0.5991,0.5967,0.6128,0.6159,0.6046,0.5838,0.5779,0.5577,0.5275,0.5195,0.527,0.5476,0.537,0.5385,0.5496,0.5345,0.5319,0.5329,0.5329,0.5463,0.0,0.0,0.0,0.4537,0.3757,0.3502,0.3487,0.3337,0.2521,0.1495,0.0277,0.0,0.0,0.0,0.0,0.0,0.0,0.0,0.0,0.0,0.0,0.0,0.0,0.0,0.0,0.0,0.0,0.0,0.0,0.0,0.0,0.0,0.0,0.0,0.0,0.0,0.0,0.0,0.0,0.0,0.0,0.0,0.0,0.0,0.0,0.0,0.0,0.0,0.0,0.0,0.0,0.0,0.0,0.0,0.0,0.0,0.0,0.0,0.0,0.0,0.0,0.0,0.0,0.0,0.0,0.0,0.0,0.0,0.0,0.0,0.0,0.0,0.0,0.0,0.0,0.0,0.3182,0.0,0.0,0.0,0.5427,0.554,0.561,0.0,0.0,0.0,0.5882,0.5839,0.5828,0.5866,0.5718,0.5822,0.6062,0.5947,0.6176,0.6719,0.6545,0.6556,0.6714,0.6594,0.6399,0.6159,0.6051,0.586,0.5588,0.5605,0.5707,0.5882,0.5653,0.5696,0.5877,0.5653,0.572,0.5908,0.5908,0.608,0.6213,0.5764,0.0,0.0,0.0,0.5176,0.4945,0.3942,0.2862,0.1832,0.0818,0.0563,0.0645,0.0655,0.0511,0.0365,0.0365,0.0146,0.0,0.0,0.0,0.0,0.0,0.0,0.0,0.0,0.0,0.0,0.0,0.0,0.0,0.0,0.0,0.0,0.0,0.0,0.0,0.0,0.0,0.0,0.0,0.0,0.0,0.0,0.0,0.0,0.0,0.0,0.0,0.0,0.0,0.0,0.0,0.0,0.0,0.0,0.0,0.0,0.0,0.0,0.0,0.0,0.0,0.0,0.0,0.0,0.0,0.0,0.0,0.0,0.0,0.0,0.0,0.0,0.0,0.0,0.0,0.0,0.0,0.0,0.0,0.5637,0.5691,0.5691,0.0,0.0,0.5691,0.5691,0.5632,0.5508,0.554,0.5637,0.586,0.5806,0.6127,0.6801,0.6709,0.6779,0.6975,0.6796,0.6545,0.6257,0.6138,0.5931,0.5648,0.5675,0.5739,0.585,0.5686,0.584,0.6012,0.5802,0.5918,0.626,0.618,0.6302,0.6523,0.6523,0.6517,0.0,0.0,0.0,0.6236,0.4585,0.3672,0.2862,0.1629,0.1424,0.1392,0.1221,0.0942,0.0727,0.0729,0.0511,0.0292,0.0146,0.0073,0.0,0.0,0.0,0.0,0.0,0.0,0.0,0.0,0.0,0.0,0.0,0.0,0.0,0.0,0.0,0.0,0.0,0.0,0.0,0.0,0.0,0.0,0.0,0.0,0.0,0.0,0.0,0.0,0.0,0.0061,0.0121,0.012,0.0058,0.0,0.0,0.0,0.0,0.0,0.0,0.0,0.0,0.0,0.0,0.0,0.0,0.0,0.0,0.0,0.0,0.0,0.0,0.0,0.0,0.0,0.0,0.0,0.5239,0.5561,0.568,0.568,0.5686,0.5691,0.5691,0.5691,0.5691,0.5691,0.5691,0.0,0.5508,0.5621,0.5686,0.5696,0.5844,0.6203,0.6801,0.6796,0.704,0.7464,0.7122,0.6893,0.6736,0.6279,0.6072,0.604,0.5822,0.5691,0.5723,0.5975,0.625,0.6432,0.6305,0.6441,0.6651,0.6427,0.6567,0.6795,0.6795,0.6922,0.7054,0.0,0.0,0.0,0.5648,0.5375,0.4909,0.2791,0.2344,0.2204,0.1323,0.1065,0.1078,0.1165,0.1168,0.1022,0.0657,0.0292,0.0,0.0,0.0,0.0,0.0,0.0,0.0,0.0,0.0,0.0,0.0,0.0,0.0,0.0,0.0,0.0,0.0,0.0,0.0,0.0,0.0,0.0,0.0,0.0,0.0,0.0,0.0,0.0,0.0,0.0308,0.049,0.0482,0.0117,0.0,0.0,0.0,0.0,0.0,0.0,0.0,0.0,0.0,0.0,0.0,0.0,0.0,0.0,0.0,0.0,0.0,0.0,0.0,0.0,0.0,0.0,0.0,0.0,0.586,0.5844,0.5844,0.5659,0.5605,0.5686,0.5615,0.5642,0.5833,0.5729,0.5669,0.5626,0.5588,0.561,0.5691,0.5653,0.5977,0.6681,0.6605,0.6866,0.7388,0.7111,0.6915,0.6774,0.629,0.604,0.5958,0.5877,0.5888,0.5969,0.6239,0.6465,0.6636,0.6864,0.7124,0.7343,0.7464,0.7476,0.7429,0.7429,0.7222,0.6964,0.6964,0.6964,0.6794,0.5899,0.5748,0.5491,0.4104,0.4004,0.4077,0.3778,0.3157,0.258,0.2593,0.1863,0.1165,0.0938,0.0653,0.0291,0.0073,0.0,0.0,0.0,0.0,0.0,0.0,0.0,0.0,0.0,0.0,0.0,0.0,0.0,0.0,0.0,0.0,0.0,0.0,0.0,0.0,0.0,0.0,0.0,0.0,0.0247,0.0309,0.0309,0.0679,0.0796,0.0844,0.0715,0.0646,0.0637,0.041,0.0292,0.029,0.0059,0.0,0.0,0.0,0.0,0.0,0.0,0.0,0.0,0.0,0.0,0.0,0.0,0.0,0.0,0.3907,0.0,0.0,0.0,0.0,0.5947,0.5909,0.5757,0.5642,0.5686,0.5615,0.5637,0.5839,0.5729,0.5669,0.5626,0.5588,0.5588,0.5626,0.5588,0.5891,0.6556,0.6425,0.6683,0.7263,0.7029,0.6948,0.6953,0.6556,0.6295,0.6138,0.61,0.6132,0.6268,0.6729,0.6971,0.7175,0.7564,0.7846,0.8039,0.8177,0.8035,0.7814,0.7814,0.7407,0.6876,0.6822,0.6849,0.6777,0.6292,0.6293,0.6198,0.5365,0.533,0.5435,0.5343,0.4301,0.3417,0.3532,0.2457,0.1509,0.1353,0.1146,0.0863,0.043,0.0282,0.0139,0.0138,0.0068,0.0,0.0,0.0,0.0,0.0,0.0,0.0,0.0,0.0,0.0,0.0,0.0,0.0,0.0,0.0,0.0,0.0,0.0,0.0062,0.0185,0.037,0.0556,0.0679,0.0988,0.1167,0.1155,0.1277,0.1202,0.1002,0.0774,0.0654,0.0649,0.042,0.036,0.0356,0.0358,0.0362,0.0365,0.0,0.0,0.0,0.0,0.0,0.0,0.0,0.0,0.2996,0.2996,0.0,0.0,0.0,0.0,0.0,0.5915,0.5899,0.585,0.5696,0.5686,0.5686,0.5691,0.5691,0.5637,0.5518,0.5632,0.5632,0.5518,0.5637,0.5928,0.6381,0.6392,0.6692,0.7182,0.6904,0.6991,0.7239,0.7056,0.6823,0.6605,0.6435,0.6392,0.6497,0.7359,0.7804,0.7925,0.8342,0.8585,0.8723,0.8574,0.8221,0.7834,0.7801,0.7394,0.6856,0.6749,0.681,0.6889,0.0,0.0,0.0,0.652,0.6231,0.6066,0.5669,0.4462,0.356,0.3922,0.3019,0.2101,0.1752,0.1683,0.1605,0.1171,0.0756,0.0547,0.0472,0.0202,0.0,0.0,0.0,0.0,0.0,0.0,0.0,0.0,0.0,0.0,0.0,0.0,0.0,0.0,0.0,0.0,0.0,0.0,0.0185,0.0494,0.0494,0.0679,0.105,0.1358,0.1543,0.1543,0.1853,0.1639,0.1003,0.1003,0.1003,0.1005,0.102,0.1026,0.1028,0.0982,0.0988,0.0988,0.0,0.0,0.0,0.0,0.0,0.0,0.0047,0.1776,0.3158,0.0,0.0,0.0,0.629,0.6268,0.6132,0.592,0.5828,0.5723,0.5691,0.5605,0.5632,0.585,0.5734,0.5712,0.5806,0.5712,0.5712,0.5806,0.5839,0.6013,0.6317,0.6317,0.648,0.6768,0.679,0.6757,0.6619,0.6431,0.6393,0.6435,0.6408,0.65,0.6736,0.7374,0.77,0.7832,0.8627,0.9046,0.917,0.9473,0.9121,0.842,0.755,0.7098,0.6876,0.6836,0.6856,0.691,0.7011,0.0,0.0,0.0,0.0,0.0,0.7316,0.6394,0.5544,0.5305,0.4131,0.2933,0.22,0.2074,0.1995,0.19,0.1366,0.0824,0.0547,0.0407,0.0269,0.0,0.0,0.0,0.0,0.0,0.0,0.0,0.0,0.0,0.0,0.0,0.0,0.0,0.0,0.0,0.0,0.0,0.0185,0.0494,0.0741,0.105,0.1358,0.173,0.1853,0.1853,0.1977,0.1906,0.1707,0.1463,0.1341,0.1341,0.1103,0.0982,0.0982,0.0986,0.0988,0.0988,0.0,0.0,0.0,0.0,0.0,0.0,0.0,0.1825,0.3199,0.0,0.0,0.0,0.6387,0.6426,0.6295,0.6002,0.592,0.5839,0.5696,0.5621,0.5642,0.5828,0.5723,0.5739,0.5899,0.5839,0.5839,0.5904,0.5904,0.5975,0.6116,0.6116,0.6214,0.6399,0.6469,0.6426,0.6279,0.6089,0.6236,0.6589,0.6543,0.6801,0.7127,0.7715,0.7974,0.8078,0.8928,0.9305,0.9522,0.9794,0.9506,0.8899,0.7638,0.7265,0.7238,0.6926,0.6966,0.7102,0.7018,0.7098,0.7231,0.721,0.0,0.0,0.7894,0.7055,0.6177,0.62,0.5072,0.3981,0.3555,0.3516,0.3325,0.2881,0.2453,0.1948,0.1088,0.0812,0.0606,0.0269,0.0202,0.0135,0.0,0.0,0.0,0.0,0.0,0.0,0.0,0.0,0.0,0.0,0.0,0.0,0.0,0.0123,0.037,0.0741,0.105,0.1358,0.173,0.1915,0.1977,0.1977,0.1977,0.1977,0.1977,0.1791,0.173,0.1668,0.1482,0.142,0.142,0.142,0.142,0.142,0.0,0.0,-0.067,-0.0432,-0.0198,0.0,0.0,0.183,0.3194,0.0,0.5111,0.6425,0.6425,0.6562,0.6486,0.6154,0.61,0.5991,0.5723,0.5696,0.5696,0.5707,0.5707,0.5806,0.592,0.592,0.592,0.592,0.592,0.592,0.592,0.592,0.5975,0.6067,0.6067,0.6062,0.604,0.5958,0.6257,0.6785,0.6812,0.7127,0.7606,0.8199,0.8357,0.8476,0.9132,0.9451,0.9659,0.9633,0.9511,0.9157,0.7924,0.7638,0.7706,0.7041,0.7109,0.7339,0.7075,0.7197,0.7421,0.7522,0.7366,0.0,0.782,0.6976,0.6209,0.6697,0.5837,0.5032,0.5212,0.5253,0.4944,0.3903,0.3736,0.3245,0.1809,0.1346,0.101,0.0606,0.0539,0.0404,0.0067,0.0,0.0,0.0,0.0,0.0,0.0,0.0,0.0,0.0,0.0,0.0,0.0,0.0309,0.0679,0.0988,0.1358,0.1668,0.1977,0.1977,0.1977,0.1977,0.1977,0.1977,0.1977,0.1977,0.1977,0.1977,0.1977,0.1977,0.1977,0.1977,0.1977,0.1977,0.0,-0.0626,-0.0441,-0.0398,-0.0204,0.0,0.0,0.1823,0.3223,0.336,0.5309,0.673,0.673,0.6665,0.6551,0.6333,0.6198,0.6024,0.5877,0.5739,0.5729,0.5866,0.5871,0.5926,0.6045,0.6051,0.6051,0.6051,0.6051,0.6051,0.6051,0.6051,0.6007,0.5937,0.5937,0.5888,0.5766,0.598,0.6285,0.6671,0.6872,0.735,0.8026,0.8174,0.8289,0.8452,0.8844,0.9115,0.9211,0.9006,0.9183,0.9232,0.8422,0.8052,0.7914,0.7773,0.7672,0.7543,0.7482,0.7509,0.7502,0.724,0.7373,0.0,0.7658,0.7402,0.7014,0.6701,0.6152,0.5527,0.4935,0.4933,0.485,0.4529,0.4004,0.3147,0.1807,0.1548,0.1346,0.101,0.0673,0.0471,0.0404,0.0135,0.0,0.0,0.0,0.0,0.0,0.0,0.0,0.0,0.0,0.0,0.0,0.0309,0.0679,0.0988,0.1358,0.1668,0.1977,0.1977,0.1977,0.1977,0.1977,0.1977,0.1977,0.1977,0.1977,0.1977,0.1977,0.1977,0.1977,0.1977,0.1977,0.1977,-0.0824,-0.0545,-0.0405,-0.0409,-0.0156,0.0211,0.0798,0.1756,0.2879,0.4246,0.5908,0.6931,0.6817,0.6747,0.6616,0.6372,0.6192,0.6034,0.5909,0.575,0.5739,0.5899,0.585,0.5931,0.617,0.6056,0.6024,0.6083,0.6024,0.5964,0.5909,0.5909,0.5877,0.5817,0.5817,0.5739,0.5712,0.6111,0.6502,0.6899,0.7018,0.7484,0.8043,0.8166,0.8312,0.8426,0.8678,0.8866,0.9096,0.9137,0.9247,0.9261,0.8899,0.8506,0.8248,0.8174,0.7997,0.7787,0.7638,0.7651,0.7651,0.7428,0.7428,0.0,0.0,0.7366,0.7244,0.7129,0.6772,0.6444,0.6262,0.6235,0.608,0.5588,0.5289,0.4644,0.3408,0.2478,0.175,0.1414,0.1144,0.0875,0.0539,0.0337,0.0202,0.0,0.0,0.0,0.0,0.0,0.0,0.0,0.0,0.0062,0.0247,0.0556,0.0926,0.1235,0.1606,0.1853,0.1977,0.1977,0.1977,0.1977,0.1977,0.1977,0.1977,0.1977,0.1977,0.1977,0.1977,0.1985,0.1997,0.1997,0.2007,0.202,-0.0694,-0.0455,-0.031,-0.0311,-0.0158,0.032,0.1282,0.1514,0.2512,0.5041,0.6448,0.7049,0.6589,0.6737,0.6722,0.625,0.6168,0.6149,0.6143,0.5931,0.5844,0.5931,0.585,0.5937,0.6273,0.604,0.5975,0.6051,0.5953,0.5844,0.5691,0.5691,0.5691,0.5691,0.5691,0.5739,0.5847,0.6252,0.6747,0.7254,0.7347,0.7604,0.7905,0.8193,0.8307,0.8334,0.8519,0.8784,0.9125,0.9254,0.9386,0.9368,0.9147,0.8906,0.8574,0.8422,0.818,0.7934,0.7746,0.7767,0.7814,0.0,0.0,0.7434,0.0,0.0,0.0,0.7502,0.7333,0.7213,0.7651,0.7631,0.7318,0.658,0.65,0.6207,0.5266,0.3743,0.2542,0.2287,0.2229,0.1844,0.0996,0.0668,0.0336,0.0,0.0066,0.0065,0.0,0.0,0.0,0.0,0.0,0.0185,0.0494,0.0805,0.1178,0.1488,0.1861,0.1988,0.1993,0.1982,0.1982,0.1993,0.1988,0.1988,0.1993,0.1993,0.1993,0.1992,0.1981,0.1993,0.2019,0.2019,0.2038,0.2128,-0.0152,-0.0051,-0.0051,-0.0052,0.0,0.0054,0.0163,0.0982,0.2522,0.5067,0.6505,0.6861,0.5761,0.656,0.6802,0.5993,0.619,0.6573,0.704,0.6404,0.6051,0.6067,0.6051,0.6067,0.6105,0.6078,0.6018,0.5926,0.5909,0.5844,0.5691,0.5691,0.5691,0.5691,0.5691,0.5917,0.6317,0.6529,0.6877,0.735,0.778,0.7982,0.7921,0.8378,0.8291,0.7992,0.8432,0.8784,0.9059,0.8741,0.9197,0.9761,0.8955,0.8891,0.905,0.8581,0.8262,0.7982,0.7948,0.7948,0.0,0.0,0.7678,0.7658,0.7213,0.0,0.7353,0.7439,0.0,0.7152,0.7387,0.0,0.0,0.7034,0.654,0.6091,0.5959,0.5072,0.4427,0.4493,0.4378,0.3762,0.2402,0.117,0.0332,0.0,0.0263,0.0323,0.0,0.0,0.0,0.0,0.0,0.0185,0.0494,0.0814,0.1197,0.151,0.1825,0.2029,0.2116,0.2,0.2005,0.2116,0.2026,0.2029,0.2119,0.2119,0.2119,0.2113,0.1997,0.1993,0.2019,0.2019,0.2038,0.2128,0.0,0.0,0.0,0.0,0.0,0.0215,0.0926,0.2087,0.3279,0.4378,0.5618,0.6579,0.7037,0.723,0.7,0.599,0.5754,0.5825,0.6034,0.5523,0.5672,0.6754,0.6279,0.6143,0.6497,0.6094,0.5888,0.5904,0.5839,0.5734,0.5691,0.5691,0.5691,0.5702,0.5971,0.6203,0.6435,0.7089,0.7301,0.7279,0.7895,0.7873,0.7599,0.8296,0.8465,0.8312,0.8513,0.8717,0.8817,0.0,0.8939,0.0,0.9069,0.8753,0.841,0.8418,0.8123,0.7848,0.8105,0.8275,0.0,0.0,0.0,0.0,0.7394,0.0,0.7346,0.0,0.0,0.0,0.0,0.0,0.0,0.0,0.7023,0.687,0.687,0.6586,0.5993,0.5002,0.4747,0.0,0.2503,0.226,0.1853,0.1022,0.1121,0.1168,0.0931,0.0311,0.0062,0.0309,0.0311,0.0561,0.105,0.1264,0.1528,0.1767,0.1973,0.2052,0.2127,0.2102,0.2105,0.2127,0.205,0.2052,0.2128,0.2128,0.2128,0.2126,0.21,0.2045,0.2071,0.2071,0.209,0.2183,0.0,0.0,0.0,0.0,0.0,0.0322,0.1199,0.2397,0.3398,0.3854,0.4906,0.6196,0.761,0.7248,0.6646,0.576,0.5082,0.4788,0.4913,0.4707,0.5032,0.6054,0.6128,0.6126,0.612,0.5952,0.5858,0.5855,0.5696,0.5659,0.5686,0.5653,0.5659,0.5707,0.6192,0.6486,0.6692,0.7486,0.772,0.7643,0.8086,0.7999,0.767,0.8176,0.847,0.859,0.859,0.859,0.864,0.8755,0.8733,0.0,0.9056,0.8684,0.8144,0.829,0.806,0.7842,0.816,0.0,0.0,0.0,0.0,0.0,0.0,0.0,0.0,0.0,0.0,0.0,0.0,0.0,0.717,0.7392,0.0,0.7419,0.7419,0.7428,0.6997,0.5736,0.5255,0.4536,0.0,0.3512,0.3243,0.2291,0.2407,0.2273,0.1793,0.1089,0.0674,0.0621,0.0628,0.0944,0.15,0.1602,0.1743,0.2044,0.2065,0.208,0.2154,0.2137,0.2138,0.2154,0.208,0.208,0.2154,0.2154,0.2154,0.2154,0.2154,0.2102,0.2121,0.2112,0.2128,0.2223,0.0,0.0,0.0,0.0,0.0,0.0,0.0055,0.111,0.2369,0.3722,0.4822,0.5815,0.6559,0.6009,0.5487,0.527,0.4171,0.3642,0.4124,0.4523,0.4291,0.3171,0.5494,0.6044,0.444,0.5672,0.6144,0.5696,0.5572,0.5572,0.5686,0.5567,0.5578,0.5702,0.6111,0.6646,0.7215,0.754,0.803,0.8541,0.8562,0.8557,0.8497,0.8057,0.8182,0.859,0.859,0.0,0.0,0.8584,0.8839,0.0,0.0,0.0,0.0,0.0,0.0,0.0,0.0,0.0,0.0,0.8557,0.0,0.0,0.0,0.0,0.746,0.0,0.0,0.0,0.0,0.0,0.7536,0.7439,0.7419,0.0,0.0,0.7244,0.7179,0.7315,0.6398,0.578,0.0,0.493,0.4111,0.0,0.4009,0.3631,0.235,0.2353,0.1985,0.1008,0.101,0.1208,0.1609,0.1569,0.1777,0.2106,0.2108,0.2123,0.2217,0.2157,0.2161,0.2217,0.212,0.2124,0.2218,0.2218,0.2218,0.2218,0.2218,0.222,0.2217,0.212,0.2128,0.2223,0.0,0.0,0.0,0.0,0.0,0.0,0.0,0.0339,0.1124,0.2437,0.2929,0.3726,0.5197,0.4868,0.4335,0.3641,0.2924,0.2644,0.2756,0.3658,0.4131,0.3839,0.6143,0.6608,0.4942,0.5951,0.6323,0.5844,0.5686,0.5648,0.5686,0.5648,0.5648,0.5712,0.6268,0.6741,0.7243,0.7774,0.8002,0.8111,0.8111,0.8111,0.8133,0.8285,0.8443,0.859,0.859,0.859,0.0,0.859,0.8651,0.8767,0.8639,0.8497,0.8335,0.8166,0.8087,0.0,0.0,0.0,0.8706,0.8706,0.0,0.0,0.0,0.0,0.0,0.0,0.0,0.0,0.0,0.0,0.7584,0.7529,0.7441,0.7419,0.0,0.7238,0.7197,0.7353,0.7006,0.641,0.5665,0.0,0.0,0.0,0.4937,0.0,0.3405,0.2714,0.2044,0.1323,0.1157,0.1361,0.1935,0.1717,0.1796,0.2109,0.2129,0.2144,0.2221,0.22,0.2202,0.2221,0.2144,0.2213,0.2223,0.2223,0.2223,0.2223,0.2223,0.2223,0.222,0.2143,0.2213,0.2223,0.0,0.0,0.0,0.0,0.0,0.0,0.0,0.0,0.0505,0.1822,0.1969,0.2613,0.4476,0.3818,0.313,0.2695,0.1893,0.1569,0.2127,0.2772,0.3255,0.3549,0.5318,0.5803,0.4734,0.5706,0.6172,0.6159,0.5958,0.5817,0.5686,0.5642,0.5648,0.5712,0.6268,0.6671,0.7008,0.7758,0.7992,0.8002,0.8046,0.804,0.8035,0.8345,0.8486,0.853,0.0,0.859,0.859,0.859,0.859,0.859,0.859,0.8459,0.8355,0.8209,0.8232,0.8307,0.8522,0.8788,0.0,0.9014,0.8763,0.0,0.8272,0.0,0.8097,0.0,0.0,0.0,0.0,0.0,0.0,0.7617,0.7516,0.74,0.0,0.717,0.7112,0.721,0.7303,0.7058,0.6272,0.6881,0.6982,0.0,0.0,0.5556,0.0,0.0,0.2739,0.1776,0.1562,0.1645,0.2162,0.1935,0.1943,0.2125,0.2213,0.2223,0.2223,0.2223,0.2223,0.2223,0.2223,0.2223,0.2223,0.2223,0.2223,0.2223,0.2223,0.2223,0.2223,0.2223,0.2223,0.2223,0.0,0.0,0.0,0.0,0.0,0.0,0.0,0.0,0.0473,0.1762,0.1755,0.2422,0.4272,0.281,0.1907,0.2475,0.0956,0.0648,0.2127,0.182,0.176,0.2139,0.3229,0.3829,0.3659,0.4881,0.5827,0.6515,0.623,0.5969,0.5702,0.5578,0.5578,0.5702,0.6105,0.6393,0.6671,0.7491,0.7992,0.8194,0.8388,0.8367,0.8188,0.8258,0.8329,0.8432,0.8546,0.859,0.859,0.859,0.859,0.859,0.859,0.8666,0.8715,0.8492,0.8666,0.8814,0.8655,0.8712,0.891,0.9343,0.0,0.0,0.0,0.0,0.8762,0.0,0.0,0.0,0.0,0.0,0.0,0.7658,0.7597,0.7434,0.6957,0.7011,0.7051,0.6923,0.7326,0.7584,0.7577,0.7584,0.7522,0.7373,0.736,0.6578,0.474,0.0,0.3978,0.2245,0.2093,0.2125,0.2221,0.2155,0.2155,0.2223,0.2223,0.2223,0.2223,0.2223,0.2223,0.2223,0.2223,0.2223,0.2223,0.2223,0.2223,0.2223,0.2223,0.2223,0.2223,0.2223,0.2223,0.2223,0.0,0.0,0.0,0.0,0.0,0.0,0.0,0.0,0.0133,0.0432,0.0482,0.0617,0.1131,0.0783,0.0499,0.0697,0.0297,0.0194,0.0557,0.1508,0.1635,0.0596,0.3076,0.3717,0.2172,0.4376,0.5394,0.5276,0.5809,0.6056,0.5991,0.5739,0.5659,0.5702,0.6013,0.6312,0.6649,0.7133,0.7736,0.8399,0.8625,0.8687,0.8508,0.0,0.8546,0.8432,0.8546,0.859,0.859,0.859,0.859,0.859,0.859,0.8606,0.8622,0.8562,0.8611,0.8687,0.8715,0.8766,0.8861,0.9043,0.8716,0.8499,0.0,0.0,0.0,0.0,0.0,0.0,0.0,0.0,0.0,0.7793,0.7577,0.7353,0.7078,0.7071,0.7125,0.7251,0.736,0.7387,0.7227,0.736,0.7321,0.6994,0.7115,0.6688,0.5487,0.0,0.0,0.3235,0.2222,0.1878,0.2223,0.1885,0.1885,0.2223,0.2223,0.2223,0.2223,0.2223,0.2223,0.2223,0.2223,0.2223,0.2223,0.2223,0.2223,0.2223,0.2223,0.2223,0.2223,0.2223,0.2223,0.2223,0.0,0.0,0.0,0.0,0.0,0.0,0.0,0.0,0.0,0.0,0.0,0.0,0.0,0.0,0.0,0.0,0.0,0.0297,0.095,0.1204,0.1174,0.1054,0.2052,0.2412,0.1938,0.3259,0.4338,0.5081,0.5406,0.5712,0.6002,0.5817,0.5691,0.5696,0.5926,0.6176,0.6507,0.7237,0.7834,0.8443,0.8693,0.8709,0.0,0.8666,0.8677,0.866,0.8725,0.8677,0.8606,0.8709,0.8709,0.8677,0.8731,0.8747,0.8736,0.8682,0.8742,0.8829,0.8845,0.8927,0.9019,0.909,0.8919,0.8873,0.9024,0.9003,0.8892,0.0,0.0,0.0,0.0,0.0,0.0,0.786,0.7563,0.7339,0.7251,0.7244,0.7251,0.7272,0.7387,0.7387,0.7119,0.7188,0.7131,0.6935,0.7025,0.0,0.0,0.0,0.0,0.4545,0.3224,0.2888,0.3627,0.2475,0.2154,0.2707,0.2209,0.1885,0.175,0.175,0.175,0.175,0.1885,0.1952,0.1952,0.2154,0.2223,0.2223,0.2223,0.2223,0.2223,0.2223,0.2223,0.2223,0.0,0.0,0.0,0.0,0.0,0.0,0.0,0.0,0.0,0.0,0.0,0.0,0.0,0.0,0.0,0.0,0.0,0.0602,0.1902,0.0762,0.056,0.194,0.0708,0.0615,0.1983,0.2008,0.3002,0.5141,0.4899,0.5182,0.5926,0.575,0.5691,0.5696,0.585,0.6072,0.6476,0.7426,0.8079,0.8454,0.8617,0.8671,0.866,0.866,0.878,0.8884,0.89,0.8829,0.8666,0.8809,0.8883,0.8812,0.8847,0.8884,0.8863,0.8823,0.8943,0.9019,0.8933,0.9122,0.9285,0.9302,0.9291,0.933,0.9604,0.9629,0.9543,0.9337,0.9215,0.9038,0.0,0.0,0.0,0.7885,0.757,0.0,0.0,0.7455,0.7414,0.7179,0.7489,0.0,0.7159,0.7073,0.7041,0.7061,0.704,0.0,0.0,0.0,0.0,0.5879,0.4413,0.4195,0.5277,0.0,0.2425,0.3051,0.2063,0.1414,0.1144,0.1144,0.1144,0.1212,0.1481,0.1616,0.1616,0.2019,0.2223,0.2223,0.2223,0.2223,0.2223,0.2227,0.2228,0.2228,0.0,0.0,0.0,0.0,0.0,0.0,0.0,0.0,0.0,0.0,0.0,0.0,0.0,0.0,0.0,0.0,0.0,0.0103,0.04,0.0195,0.0096,0.0376,0.0184,0.0091,0.0361,0.1317,0.2405,0.3588,0.4346,0.5206,0.6051,0.5833,0.5691,0.5696,0.585,0.6257,0.6899,0.7486,0.8051,0.8595,0.9008,0.9122,0.9041,0.9041,0.8933,0.8895,0.8998,0.8938,0.8825,0.8868,0.8868,0.8852,0.8874,0.8884,0.8879,0.8857,0.8879,0.8933,0.9008,0.9133,0.9188,0.928,0.9231,0.9182,0.933,0.9193,0.9067,0.9127,0.9007,0.8901,0.8595,0.0,0.0,0.0,0.0,0.0,0.0,0.7778,0.7963,0.7563,0.7896,0.7936,0.7387,0.7353,0.7222,0.689,0.6992,0.0,0.0,0.0,0.0,0.0,0.4635,0.0,0.0,0.0,0.1828,0.1971,0.1418,0.1279,0.1481,0.1212,0.1279,0.1548,0.1548,0.1616,0.1616,0.2019,0.2223,0.2223,0.2223,0.2223,0.2225,0.2183,0.2192,0.2192,0.0,0.0,0.0,0.0,0.0,0.0,0.0,0.0,0.0,0.0,0.0,0.0,0.0,0.0,0.0,0.0,0.0,0.0,0.0,0.0,0.0,0.0,0.0,0.0,0.0,0.0597,0.1641,0.3219,0.0,0.4543,0.6078,0.5844,0.5691,0.5707,0.5403,0.5541,0.595,0.5778,0.0,0.6397,0.6654,0.6788,0.6828,0.6781,0.6809,0.6701,0.6773,0.6745,0.6994,0.8561,0.9095,0.8987,0.9117,0.9095,0.8976,0.8976,0.909,0.9133,0.9133,0.9226,0.9313,0.9307,0.9313,0.9313,0.9307,0.9264,0.9209,0.915,0.9019,0.8969,0.8742,0.8384,0.0,0.0,0.0,0.0,0.0,0.0,0.784,0.7635,0.7795,0.7833,0.757,0.7316,0.7164,0.7137,0.7085,0.0,0.0,0.0,0.0,0.0,0.0,0.0,0.0,0.0,0.0,0.3377,0.1996,0.1346,0.1346,0.1144,0.1212,0.1346,0.1548,0.1616,0.1616,0.2019,0.2223,0.2224,0.2172,0.2178,0.2181,0.2213,0.2223,0.2223,0.0,0.0,0.0,0.0,0.0,0.0,0.0,0.0,0.0,0.0,0.0,0.0,0.0,0.0,0.0,0.0,0.0,0.0,0.0,0.0,0.0,0.0,0.0,0.0,0.0,0.0,0.0889,0.0,0.0,0.0,0.0,0.5731,0.5631,0.5399,0.4871,0.0,0.0,0.0,0.4067,0.4382,0.4501,0.4601,0.4675,0.4705,0.4686,0.4681,0.4711,0.4687,0.504,0.7515,0.8467,0.8754,0.9131,0.9242,0.9171,0.9171,0.9231,0.9285,0.9193,0.9323,0.9465,0.9367,0.9432,0.9503,0.9405,0.9454,0.9465,0.9253,0.9171,0.9089,0.9035,0.8731,0.0,0.0,0.0,0.0,0.0,0.0,0.7863,0.7616,0.7802,0.7865,0.7623,0.727,0.7145,0.7282,0.7191,0.0,0.8241,0.0,0.0,0.0,0.0,0.5915,0.6808,0.0,0.3045,0.4287,0.2372,0.1414,0.1212,0.1144,0.1144,0.1212,0.1481,0.1616,0.175,0.2087,0.2225,0.2166,0.2191,0.2204,0.2214,0.2244,0.2255,0.2256,0.0,0.0,0.0,0.0,0.0,0.0,0.0,0.0,0.0,0.0,0.0,0.0,0.0,0.0,0.0,0.0,0.0,0.0,0.0,0.0,0.0,0.0,0.0,0.0,0.0,0.0,0.0491,0.0,0.0,0.3552,0.0,0.0,0.0,0.0,0.0,0.0,0.0,0.3808,0.408,0.4504,0.462,0.467,0.468,0.4675,0.4673,0.4673,0.4667,0.4705,0.4733,0.5028,0.6085,0.7476,0.8863,0.9296,0.9291,0.9291,0.9296,0.9302,0.9291,0.9383,0.9487,0.947,0.9563,0.965,0.9639,0.9644,0.9617,0.9481,0.9285,0.9193,0.9566,0.8968,0.8375,0.0,0.0,0.0,0.0,0.0,0.8673,0.7724,0.8579,0.869,0.7377,0.7307,0.7282,0.7054,0.7236,0.0,0.0,0.0,0.0,0.8732,0.0,0.6306,0.5567,0.4002,0.2766,0.1973,0.1418,0.1279,0.1548,0.1212,0.1279,0.1548,0.1616,0.1818,0.2154,0.2155,0.2172,0.2196,0.2199,0.2217,0.2175,0.2275,0.2286,0.229,0.0,0.0,0.0,0.0,0.0,0.0,0.0,0.0,0.0,0.0,0.0,0.0,0.0,0.0,0.0,0.0,0.0,0.0,0.0,0.0,0.0,0.0,0.0,0.0,0.0,0.0,0.0503,0.0,0.0,0.0,0.0,0.0,0.0,0.0,0.0,0.2472,0.2272,0.1738,0.1606,0.181,0.1827,0.1851,0.1872,0.1845,0.1911,0.191,0.1896,0.1884,0.2026,0.2926,0.429,0.5891,0.7412,0.7965,0.8226,0.9034,0.9454,0.9579,0.9362,0.9497,0.9666,0.9519,0.9628,0.9753,0.9688,0.972,0.9737,0.9622,0.9519,0.9527,0.9674,0.9248,0.8886,0.0,0.0,0.0,0.0,0.0,0.8282,0.7328,0.7864,0.8146,0.792,0.7381,0.731,0.7975,0.7543,0.0,0.0,0.0,0.0,0.7857,0.0,0.713,0.7002,0.562,0.512,0.554,0.4669,0.4448,0.462,0.4378,0.3895,0.3161,0.2356,0.2019,0.2224,0.2174,0.2189,0.2203,0.224,0.2262,0.2277,0.2305,0.2316,0.2318,0.0,0.0,0.0,0.0,0.0,0.0,0.0,0.0,0.0,0.0,0.0,0.0,0.0,0.0,0.0,0.0,0.0,0.0,0.0,0.0,0.0,0.0,0.0,0.0,0.0,0.0,0.0344,0.1128,0.2225,0.0,0.0,0.0,0.0,0.0,0.1704,0.1226,0.0972,0.0296,0.0,0.0,0.0,0.0,0.0,0.0,0.0,0.0,0.0,0.0,0.0152,0.1293,0.2399,0.3755,0.625,0.6806,0.6845,0.8846,0.9212,0.9122,0.9329,0.9617,0.9796,0.9633,0.9742,0.9867,0.9791,0.9835,0.9856,0.9742,0.9693,0.9671,0.9671,0.9497,0.9226,0.8834,0.0,0.0,0.0,0.7928,0.0,0.7199,0.7593,0.7998,0.8314,0.7693,0.7594,0.8414,0.0,0.0,0.0,0.0,0.0,0.0,0.0,0.0,0.0,0.6972,0.6951,0.7662,0.688,0.6588,0.6744,0.6613,0.5975,0.4962,0.3539,0.2929,0.2862,0.2411,0.2218,0.2232,0.2274,0.2583,0.2953,0.2471,0.2914,0.3567,0.0,0.0,0.0,0.0,0.0,0.0,0.0,0.0,0.0,0.0,0.0,0.0,0.0,0.0,0.0,0.0,0.0,0.0,0.0,0.0,0.0,0.0,0.0,0.0,0.0,0.0,0.0,0.0,0.0,0.0,0.1671,0.0,0.2449,0.1398,0.1419,0.0882,0.0,0.0,0.0,0.0,0.0,0.0,0.0,0.0,0.0,0.0,0.0,0.0,0.0,0.0,0.0077,0.0909,0.5657,0.6033,0.5359,0.868,0.853,0.7619,0.921,0.9748,0.9835,0.9835,0.9927,1.0019,1.0014,1.0019,0.9981,0.9862,0.9748,0.9671,0.9671,0.9568,0.9329,0.8845,0.0,0.0,0.0,0.825,0.0,0.7535,0.8201,0.8685,0.8325,0.8295,0.8153,0.7904,0.0,0.0,0.0,0.0,0.0,0.8642,0.8669,0.0,0.7211,0.7678,0.7503,0.6702,0.6702,0.6756,0.6913,0.6913,0.6913,0.6774,0.5242,0.4544,0.4474,0.2873,0.2263,0.229,0.229,0.3243,0.4511,0.2914,0.4291,0.6463,0.0,0.0,0.0,0.0,0.0,0.0,0.0,0.0,0.0,0.0,0.0,0.0,0.0,0.0,0.0,0.0,0.0,0.0,0.0,0.0,0.0,0.0,0.0,0.0,0.0,0.0,0.0,0.0,0.0,0.0,0.0,0.2291,0.1782,0.045,0.0459,0.0312,0.0,0.0,0.0,0.0,0.0,0.0,0.0,0.0,0.0,0.0,0.0,0.0,0.0,0.0,0.0,0.0472,0.3137,0.3643,0.382,0.7034,0.6873,0.6246,0.8955,0.8969,0.8466,0.955,0.9992,1.0123,1.0041,1.0019,1.0008,0.997,0.9932,0.9911,0.9911,0.9807,0.9568,0.9095,0.9122,0.0,0.0,0.0,0.8339,0.7547,0.7835,0.827,0.8823,0.8565,0.0,0.0,0.0,0.0,0.0,0.0,0.0,0.0,0.9727,0.0,0.9728,0.9671,0.9736,0.9773,0.9773,0.9796,0.9769,0.8874,0.8448,0.8243,0.65,0.5315,0.4619,0.4947,0.3987,0.2506,0.4685,0.4493,0.3132,0.3714,0.388,0.3903,0.0,0.0,0.0,0.0,0.0,0.0,0.0,0.0,0.0,0.0,0.0,0.0,0.0,0.0,0.0,0.0,0.0,0.0,0.0,0.0,0.0,0.0,0.0,0.0,0.0,0.0,0.0,0.0,0.0767,0.1144,0.1099,0.1359,0.0884,0.0,0.0,0.0,0.0,0.0,0.0,0.0,0.0,0.0,0.0,0.0,0.0,0.0,0.0,0.0,0.0,0.0,0.0,0.0162,0.1207,0.1592,0.2194,0.5461,0.5263,0.4605,0.7225,0.774,0.7734,0.8683,0.9553,1.0128,1.0095,1.0123,1.0144,1.0101,1.009,1.0074,1.003,0.9921,0.9742,0.9449,0.9449,0.9171,0.8269,0.0,0.8345,0.0,0.0,0.0,0.0,0.897,0.9059,0.0,0.0,0.0,0.0,0.0,0.0,0.9808,1.0086,0.0,1.0772,1.0704,1.086,1.1253,1.1362,1.1443,1.1504,1.0597,1.0138,0.9918,0.803,0.6877,0.6386,0.6369,0.5463,0.4246,0.6228,0.6174,0.502,0.5484,0.5357,0.5076,0.0,0.0,0.0,0.0,0.0,0.0,0.0,0.0,0.0,0.0,0.0,0.0,0.0,0.0,0.0,0.0,0.0,0.0,0.0,0.0,0.0,0.0,0.0,0.0,0.0,0.0,0.0,0.0,0.0,0.0,0.0,0.017,0.0169,0.0,0.0169,0.0084,0.0,0.0,0.0,0.0,0.0,0.0,0.0,0.0,0.0,0.0,0.0,0.0,0.0,0.0,0.0,0.0,0.0,0.0,0.0649,0.4033,0.377,0.2749,0.4633,0.6125,0.7221,0.7455,0.8788,1.0079,1.0199,1.0313,1.0356,1.0242,1.0215,1.0177,1.0057,0.9938,0.9856,0.9829,0.9633,0.9275,0.8671,0.0,0.8634,0.0,0.0,0.0,0.0,0.955,0.9669,0.0,0.0,0.0,0.0,0.0,0.9429,0.9693,0.9978,1.0333,1.0568,1.0853,1.1145,1.1443,1.1714,1.1925,1.2054,1.1911,1.1843,1.1677,0.9719,0.9008,0.9147,0.7408,0.6825,0.7042,0.7187,0.8059,0.9023,0.781,0.8158,0.8967,0.0,0.0,0.0,0.0,0.0,0.0,0.0,0.0,0.0,0.0,0.0,0.0,0.0,0.0,0.0,0.0,0.0,0.0,0.0,0.0,0.0,0.0,0.0,0.0,0.0,0.0,0.0,0.0,0.0,0.0,0.0,0.1559,0.146,0.0085,0.1533,0.1357,0.0,0.0,0.0,0.0,0.0,0.0,0.0,0.0,0.0,0.0,0.0,0.0,0.0,0.0,0.0,0.0,0.0,0.0,0.0658,0.412,0.2979,0.1532,0.5873,0.5391,0.4344,0.7,0.9012,1.0329,1.0443,1.0427,1.0378,1.0346,1.034,1.0307,1.0182,1.0134,1.0025,0.9753,0.9584,0.9275,0.8671,0.8481,0.0,0.0,0.8202,0.8682,0.9703,0.9728,0.9905,0.0,0.0,0.0,0.0,1.0568,1.0792,1.057,1.0806,1.1043,1.1348,1.1423,1.1606,1.1904,1.1972,1.2026,1.2135,1.2026,1.1945,1.1757,1.0986,1.0178,0.9291,0.9435,0.8564,0.7187,0.9219,0.9055,0.781,0.8651,0.84,0.7853,0.0,0.0,0.0,0.0,0.0,0.0,0.0,0.0,0.0,0.0,0.0,0.0,0.0,0.0,0.0,0.0,0.0,0.0,0.0,0.0,0.0,0.0,0.0,0.0,0.0,0.0,0.0458,0.1345,0.1338,0.1773,0.2646,0.368,0.365,0.2668,0.3698,0.3599,0.2557,0.1698,0.1356,0.1271,0.0337,0.0,0.0,0.0,0.0,0.0,0.0,0.0,0.0,0.0,0.0,0.0,0.0,0.0591,0.1847,0.4521,0.3397,0.1967,0.4774,0.5275,0.576,0.8345,0.9764,1.0547,1.0552,1.0552,1.053,1.0476,1.0422,1.0346,1.0226,1.0155,1.0019,0.972,0.9476,0.9155,0.8655,0.8432,0.0,0.8388,0.8497,0.8951,1.0095,1.007,1.0254,1.0847,1.0934,0.0,1.067,1.1124,1.1287,1.1056,1.1321,1.1579,1.1816,1.1823,1.1938,1.2169,1.2169,1.2203,1.2257,1.2045,1.1971,1.1959,1.1373,1.0927,1.0559,1.079,1.0286,0.9443,1.0644,1.026,0.926,1.0145,0.9495,0.8375,0.0,0.0,0.0,0.0,0.0,0.0,0.0,0.0,0.0,0.0,0.0,0.0,0.0,0.0,0.0,0.0,0.0,0.0,0.0,0.0,0.0,0.0,0.0287,0.0473,0.0464,0.074,0.1646,0.3315,0.3315,0.4099,0.574,0.6004,0.5969,0.5732,0.5992,0.5986,0.5629,0.4038,0.3339,0.3165,0.1525,0.0675,0.0422,0.0421,0.0253,0.0,0.0,0.0,0.0,0.0,0.017,0.0343,0.0086,0.1539,0.3594,0.5092,0.4668,0.3745,0.3703,0.5903,0.8575,0.989,1.0522,1.0732,1.0612,1.0661,1.071,1.0606,1.0503,1.0394,1.0259,1.0128,0.9954,0.9661,0.9313,0.8954,0.8584,0.0,0.8459,0.8573,0.8834,0.9372,1.0317,1.0317,1.0611,1.1348,1.117,1.1179,1.1416,1.1491,1.1443,1.1267,1.1653,1.1938,1.2094,1.2121,1.2196,1.2325,1.2325,1.2386,1.2494,1.1996,1.193,1.2284,1.1327,1.1333,1.1979,1.1401,1.1427,1.1823,1.1254,1.1144,1.1358,1.1637,1.076,0.9768,0.0,0.0,0.0,0.0,0.0,0.0,0.0,0.0,0.0,0.0,0.0,0.0,0.0,0.0,0.0,0.0,0.0,0.0,0.0,0.0,0.0,0.0,0.1621,0.2462,0.2436,0.4048,0.4984,0.5281,0.5281,0.5454,0.5714,0.7406,0.7275,0.5797,0.7377,0.7251,0.5718,0.5364,0.5273,0.527,0.4788,0.3748,0.247,0.2362,0.1346,0.0,0.0,0.0,0.0,0.0,0.1031,0.199,0.0515,0.2308,0.5037,0.5386,0.6391,0.7399,0.7485,0.7937,0.8432,0.8509,0.977,1.0857,1.0737,1.0721,1.0732,1.0715,1.0693,1.0617,1.04,1.0259,0.9998,0.9449,0.9063,0.8704,0.8339,0.0,0.8459,0.8573,0.8981,0.9446,1.0102,1.0389,1.0791,1.1353,1.1577,1.166,1.1586,1.1945,1.202,1.1735,1.1925,1.2101,1.225,1.2372,1.2447,1.2467,1.2467,1.2481,1.2501,1.2095,1.2022,1.2215,1.1352,1.1202,1.1457,1.0691,1.0622,1.0934,1.0542,1.0619,1.1118,1.1517,1.1511,1.1435,0.0,0.0,0.0,0.0,0.0,0.0,0.0,0.0,0.0,0.0,0.0,0.0,0.0,0.0,0.0,0.0,0.0,0.0,0.0,0.0,0.0487,0.1526,0.2464,0.3375,0.443,0.527,0.6204,0.7246,0.7246,0.7784,0.8854,0.9749,0.9726,0.8879,0.9768,0.9652,0.8724,0.7709,0.723,0.7015,0.5913,0.4422,0.2793,0.2694,0.2186,0.143,0.143,0.2109,0.2881,0.2985,0.2829,0.2583,0.181,0.3359,0.5424,0.551,0.6798,0.8452,0.9677,0.9179,0.8644,0.9644,1.0498,1.1079,1.096,1.0933,1.0916,1.0851,1.0835,1.0764,1.052,1.0378,1.0128,0.959,0.9198,0.0,0.0,0.853,0.8698,0.8943,0.934,0.9838,1.0483,1.0833,1.1275,1.1721,1.205,1.2196,1.2216,1.2413,1.2501,1.244,1.2427,1.2413,1.2406,1.2637,1.2626,1.2311,1.239,1.2272,1.2029,1.1481,1.1498,1.1746,1.1053,1.098,1.1301,1.0854,1.079,1.1073,1.0772,1.0826,1.117,1.1638,1.1792,1.1875,0.0,0.0,0.0,0.0,0.0,0.0,0.0,0.0,0.0,0.0,0.0,0.0,0.0,0.0,0.0,0.0,0.0,0.0201,0.0697,0.069,0.1362,0.2962,0.3861,0.5187,0.7,0.7014,0.7784,0.9304,0.9304,1.0021,1.1543,1.1543,1.1543,1.1543,1.1543,1.1543,1.136,0.9935,0.9237,0.8987,0.7424,0.573,0.3992,0.3558,0.3386,0.3301,0.2878,0.3893,0.542,0.504,0.4199,0.3263,0.303,0.4424,0.6156,0.6156,0.7457,0.9216,1.0925,1.0254,0.9448,1.0925,1.127,1.1243,1.1128,1.1101,1.1074,1.0982,1.096,1.0889,1.0645,1.0525,1.0291,0.9758,0.0,0.0,0.0,0.8834,0.9046,0.9465,0.9753,1.0135,1.0873,1.1113,1.1433,1.183,1.2122,1.2344,1.2456,1.2463,1.2523,1.2635,1.2609,1.2568,1.2454,1.2602,1.2422,1.1988,1.2103,1.1913,1.1585,1.1054,1.099,1.1379,1.0699,1.0719,1.1101,1.0845,1.0863,1.094,1.0845,1.0868,1.1029,1.1572,1.1727,1.1805,0.0,0.0,0.0,0.0,0.0,0.0,0.0,0.0,0.0,0.0,0.0,0.0,0.0,0.0,0.0,0.0,0.0,0.0804,0.2785,0.2858,0.2829,0.2993,0.6474,0.9281,1.1092,1.1067,1.1182,1.1277,1.1277,1.1366,1.1543,1.1543,1.1543,1.1543,1.1543,1.1543,1.1455,1.1355,1.1255,1.1239,1.0941,0.9748,0.7975,0.5992,0.5364,0.5275,0.3547,0.4066,0.5448,0.3637,0.4072,0.5026,0.3382,0.5288,0.8062,0.8149,0.9453,1.0977,1.1378,1.1349,1.1323,1.1297,1.127,1.1243,1.1128,1.1101,1.1101,1.109,1.109,1.1014,1.077,1.0715,1.0481,0.9786,0.0,0.0,0.9269,0.9258,0.9481,1.0068,1.0161,1.0275,1.0601,1.0843,1.1016,1.1097,1.1406,1.1647,1.1653,1.1653,1.1659,1.1671,1.2141,1.2295,1.2282,1.19,1.1665,1.1659,1.1665,1.1591,1.1585,1.1054,1.099,1.1379,1.0465,1.0253,1.0641,1.0241,1.0092,1.0097,1.0086,1.0092,1.0175,1.1029,1.134,1.1495,0.0,0.0,0.0,0.0,0.0,0.0,0.0,0.0,0.0,0.0,0.0,0.0,0.0,0.0,0.0,0.0,0.0,0.0907,0.301,0.4249,0.543,0.6636,0.922,1.0967,1.1748,1.1558,1.1493,1.1569,1.1493,1.1543,1.1543,1.1543,1.1543,1.1543,1.1543,1.1543,1.1543,1.1543,1.1411,1.1335,1.1291,1.0175,0.837,0.7641,0.7371,0.7281,0.6589,0.7454,0.8934,0.8296,0.7789,0.7178,0.6651,0.7265,0.8577,0.9802,0.9802,0.9748,1.114,1.14,1.1346,1.1378,1.1384,1.1373,1.133,1.1319,1.1302,1.1226,1.127,1.1248,1.1009,1.0965,1.0802,1.0302,0.0,1.0079,0.9889,0.9927,1.0085,1.0389,1.0422,1.0487,1.065,1.1041,1.1259,1.1259,1.167,1.1916,1.1916,1.1916,1.1916,1.1916,1.1834,1.1755,1.1832,1.1918,1.171,1.1381,1.1464,1.1341,1.1012,1.0801,1.0745,1.0901,1.0456,1.0283,1.0369,1.0212,1.009,1.0019,1.0253,1.0408,1.0486,1.1107,1.1495,1.1727,0.0,0.0,0.0,0.0,0.0,0.0,0.0,0.0,0.0,0.0,0.0,0.0,0.0,0.0609,0.1009,0.1009,0.1614,0.2923,0.5137,0.7024,0.8695,0.9844,1.1166,1.1835,1.1764,1.1596,1.1536,1.158,1.1493,1.1543,1.1543,1.1543,1.1543,1.1543,1.1543,1.1543,1.1543,1.1543,1.1406,1.133,1.133,1.0575,0.9284,0.8669,0.8843,0.9284,0.8669,0.9632,1.1139,1.0595,0.9554,0.8493,0.8581,0.8938,0.9643,1.0972,1.0439,0.9661,1.1072,1.1395,1.1351,1.1522,1.1005,1.0738,1.1366,1.1005,1.0535,1.046,1.1036,1.1213,1.0401,1.0749,1.1096,1.0732,1.0704,1.0655,1.0454,1.0009,0.9695,0.9918,0.9318,0.9244,0.9825,0.9661,0.9716,1.032,1.0681,1.1104,1.1653,1.1653,1.1653,1.1653,1.132,1.124,1.1312,1.1564,1.144,1.1024,1.1114,1.0987,1.0732,1.0612,1.0639,1.0552,1.0438,1.034,1.0259,1.0259,1.0188,1.0079,1.0431,1.0504,1.0548,1.098,1.1366,1.1557,0.0,0.0,0.0,0.0,0.0,0.0,0.0,0.0,0.0,0.0,0.0,0.0,0.0,0.1928,0.3227,0.3227,0.5135,0.7342,0.9556,1.1476,1.2373,1.2009,1.1987,1.1879,1.1645,1.1639,1.158,1.146,1.1455,1.1543,1.1543,1.1543,1.1543,1.1543,1.1543,1.1543,1.1543,1.1543,1.1543,1.1543,1.1543,1.1543,1.1277,0.9393,0.9843,1.1277,0.9304,0.9838,1.1188,0.9304,0.8587,0.8587,0.8587,0.9932,1.1543,1.1543,1.1455,1.1455,1.1543,1.1455,1.1455,1.1455,1.0021,0.9126,1.1005,0.9932,0.8587,0.8587,1.011,1.0879,0.8732,1.0038,1.1335,1.0982,1.094,1.1063,1.0938,0.93,0.8166,0.834,0.6631,0.6156,0.7976,0.6503,0.6188,0.798,0.8049,0.8826,1.0576,1.0654,1.0654,1.0654,1.0654,1.0654,1.0654,1.0654,1.0737,1.0737,1.0737,1.0737,1.0732,1.0612,1.0639,1.0552,1.0438,1.0389,1.0389,1.0389,1.0318,1.0215,1.034,1.0313,1.03,1.0821,1.0947,1.0911,0.0,0.0,0.0,0.0,0.0,0.0,0.0,0.0,0.0,0.0,0.0,0.0,0.0,0.1936,0.3227,0.3227,0.5106,0.7255,0.928,1.1392,1.2449,1.2254,1.208,1.1993,1.2009,1.1764,1.1661,1.171,1.1542,1.1543,1.1543,1.1543,1.1543,1.1543,1.1543,1.1543,1.1543,1.1543,1.1543,1.1543,1.1543,1.1543,1.1455,1.0827,1.1005,1.1455,1.0827,1.1005,1.1366,1.0827,1.0649,1.0649,1.0649,1.1005,1.1543,1.1543,1.056,0.9749,1.1099,0.9482,0.7781,0.9126,0.9032,0.8765,0.9304,0.7959,0.6978,0.8319,0.9037,0.8846,0.6859,0.8122,0.9428,0.9183,0.8097,0.7769,0.8996,0.7501,0.6295,0.6335,0.6979,0.7111,0.6333,0.6938,0.707,0.6287,0.6215,0.641,0.6953,0.6956,0.6956,0.6956,0.6986,0.7554,0.8826,1.0106,1.0737,1.0737,1.0737,1.0737,1.0737,1.0699,1.0683,1.0683,1.0645,1.0585,1.0503,1.0503,1.0438,1.0335,1.0373,1.0362,1.0335,1.0534,1.0867,1.1227,0.0,0.0,0.0,0.0,0.0,0.0,0.0,0.0,0.0,0.0,0.0,0.0,0.0,0.1934,0.3528,0.4432,0.7211,0.9459,1.0595,1.1798,1.2504,1.2428,1.2188,1.2074,1.2096,1.1889,1.1764,1.1748,1.1601,1.1504,1.1543,1.1543,1.1543,1.1543,1.1543,1.1543,1.1543,1.1543,1.1543,1.1543,1.1543,1.1543,1.1543,1.1543,1.1543,1.1543,1.1543,1.1543,1.1543,1.1543,1.1543,1.1543,1.1543,1.1543,1.1366,1.0555,1.011,0.9838,1.0199,0.8676,0.6978,0.7335,0.6889,0.6531,0.7246,0.5996,0.4923,0.6085,0.6978,0.6889,0.4923,0.6174,0.741,0.736,0.6415,0.6071,0.7183,0.5673,0.4434,0.4434,0.4763,0.4823,0.4368,0.4733,0.4811,0.4325,0.4306,0.4652,0.5377,0.5377,0.5377,0.5377,0.5408,0.5898,0.7038,0.8065,0.937,1.0808,1.0857,1.0857,1.0808,1.0808,1.078,1.0737,1.0737,1.0693,1.0628,1.0628,1.0558,1.046,1.0503,1.0498,1.046,1.0509,1.074,1.1072,0.0,0.0,0.0,0.0,0.0,0.0,0.0,0.0,0.0,0.0,0.0,0.0103,0.0307,0.2029,0.4132,0.6442,1.0467,1.2884,1.2873,1.2667,1.2553,1.2553,1.2319,1.2134,1.2025,1.1998,1.1884,1.1667,1.1656,1.1596,1.1487,1.1476,1.1471,1.1471,1.146,1.1543,1.1543,1.1543,1.1543,1.1543,1.1543,1.1543,1.1543,1.1543,1.1543,1.1543,1.1543,1.1543,1.1543,1.1543,1.1543,1.1543,1.1543,1.1543,1.1094,0.9215,0.9838,1.0827,0.8854,0.823,0.7691,0.5906,0.4029,0.3136,0.5013,0.4029,0.2688,0.2867,0.4297,0.4834,0.2956,0.4208,0.546,0.546,0.5281,0.5281,0.546,0.385,0.2598,0.2598,0.1256,0.0805,0.2299,0.098,0.0714,0.2297,0.245,0.3219,0.4872,0.4959,0.4959,0.4959,0.4905,0.4989,0.5125,0.5161,0.6925,1.0423,1.0522,1.0511,1.0408,1.0397,1.0419,1.0487,1.0315,1.0398,1.0654,1.057,1.0506,1.0585,1.0693,1.0666,1.0585,1.0699,1.0596,1.0561,0.0,0.0,0.0,0.0,0.0,0.0,0.0,0.0,0.0,0.0,0.0,0.0619,0.2355,0.294,0.4736,0.8654,1.1373,1.2846,1.2754,1.2694,1.2667,1.2667,1.2439,1.2303,1.2275,1.2085,1.1966,1.1911,1.1824,1.1764,1.1737,1.1645,1.1596,1.159,1.1498,1.1543,1.1543,1.1543,1.1543,1.1543,1.1543,1.1543,1.1543,1.1543,1.1543,1.1543,1.1543,1.1543,1.1543,1.1543,1.1543,1.1543,1.1543,1.1543,1.1094,0.9215,0.8854,0.8765,0.6889,0.5281,0.4029,0.3583,0.2062,0.1166,0.3046,0.1972,0.1076,0.2598,0.3225,0.2956,0.0987,0.2241,0.3494,0.3494,0.2241,0.1793,0.3315,0.1883,0.0628,0.0628,0.1614,0.1791,0.0716,0.0267,0.0178,0.0536,0.062,0.0795,0.1158,0.1158,0.1158,0.1158,0.1146,0.1842,0.3252,0.3419,0.4533,0.6566,0.6613,0.6584,0.6567,0.6593,0.7314,0.8553,0.7129,0.8136,1.057,0.9226,0.9462,1.0699,1.0726,1.0721,1.0699,1.0726,1.081,1.1143,0.0,0.0,0.0,0.0,0.0,0.0,0.0,0.0,0.0,0.0,0.0,0.0414,0.1536,0.2546,0.4961,0.936,1.1673,1.2863,1.2797,1.2738,1.2705,1.2705,1.2477,1.2357,1.2357,1.2172,1.2047,1.1987,1.1928,1.1873,1.1819,1.1754,1.1694,1.1634,1.1569,1.1509,1.1543,1.1543,1.1543,1.1543,1.1543,1.1543,1.1543,1.1543,1.1543,1.146,1.152,1.1542,1.1531,1.1476,1.1543,1.1543,1.1543,1.0827,0.9749,0.7784,0.7246,0.6799,0.4923,0.3673,0.2867,0.2867,0.1435,0.0269,0.1256,0.0718,0.0269,0.1345,0.1525,0.1166,0.018,0.0807,0.1525,0.1525,0.0628,0.0359,0.1345,0.0628,0.0,0.0,0.0897,0.1076,0.009,0.0,0.0,0.0,0.0,0.0,0.0,0.0,0.0,0.0,0.0,0.0443,0.1423,0.1504,0.1941,0.2821,0.4641,0.5485,0.5456,0.5426,0.591,0.6731,0.5848,0.6427,0.8113,0.723,0.7885,0.9392,0.847,0.9226,1.057,0.9731,1.0237,1.1265,0.0,0.0,0.0,0.0,0.0,0.0,0.0,0.0,0.0,0.0,0.0,0.0103,0.0512,0.2757,0.5789,0.9364,1.1673,1.289,1.289,1.2792,1.2738,1.2738,1.2531,1.2417,1.2417,1.2275,1.2145,1.202,1.202,1.1971,1.1879,1.1857,1.1786,1.1667,1.1645,1.1569,1.1543,1.1543,1.1543,1.1455,1.1476,1.1487,1.1487,1.1487,1.1487,1.1498,1.1601,1.1374,1.1102,1.1099,1.0784,1.0496,1.0496,0.9406,0.7691,0.5817,0.5191,0.4834,0.2956,0.2419,0.2419,0.2419,0.1168,0.0,0.0,0.0,0.0,0.0,0.0,0.0,0.0,0.0,0.0,0.0,0.0,0.0,0.0,0.0,0.0,0.0,0.0,0.0,0.0,0.0,0.0,0.0,0.0,0.0,0.0,0.0,0.0,0.0,0.0,0.0,0.0,0.0,0.0,0.0,0.3225,0.4628,0.458,0.4571,0.4723,0.4942,0.4631,0.4864,0.537,0.5059,0.6041,0.7467,0.5957,0.7212,0.9643,0.8553,0.9169,1.0727,0.0,0.0,0.0,0.0,0.0,0.0,0.0,0.0,0.0,0.0,0.0,0.0724,0.256,0.6387,0.907,0.9661,1.1673,1.289,1.289,1.2873,1.2863,1.2863,1.2732,1.2656,1.2656,1.2444,1.227,1.2145,1.2145,1.214,1.2123,1.2015,1.1906,1.1792,1.1683,1.1569,1.1543,1.1543,1.1543,1.1554,1.1569,1.1612,1.1612,1.1612,1.1612,1.1612,1.1629,1.0604,0.9207,0.9194,0.7947,0.6441,0.6441,0.6308,0.5728,0.385,0.3315,0.2867,0.0897,0.0359,0.0359,0.0359,0.0181,0.0,0.0,0.0,0.0,0.0,0.0,0.0,0.0,0.0,0.0,0.0,0.0,0.0,0.0,0.0,0.0,0.0,0.0,0.0,0.0,0.0,0.0,0.0,0.0,0.0,0.0,0.0,0.0,0.0,0.0,0.0,0.0,0.0,0.0,0.0,0.0538,0.0803,0.0706,0.0787,0.1565,0.295,0.1375,0.2478,0.5285,0.3713,0.4113,0.5706,0.5538,0.5706,0.6292,0.7634,0.8294,0.8772,0.0,0.0,0.0,0.0,0.0,0.0,0.0,0.0,0.0,0.0,0.0,0.0832,0.297,0.7086,1.0162,1.1373,1.2442,1.296,1.289,1.2955,1.296,1.289,1.277,1.2705,1.2705,1.1363,1.1259,1.2373,1.2237,1.2172,1.2172,1.2118,1.2025,1.1906,1.1792,1.1672,1.1552,1.1482,1.1543,1.146,1.1514,1.1574,1.1634,1.1634,1.1677,1.1737,1.1737,1.0519,0.8829,0.8785,0.7452,0.5686,0.5686,0.5008,0.3975,0.3162,0.217,0.1084,0.027,0.0,0.0,0.0,0.0,0.0,0.0,0.0,0.0,0.0,0.0,0.0,0.0,0.0,0.0,0.0,0.0,0.0,0.0,0.0,0.0,0.0,0.0,0.0,0.0,0.0,0.0,0.0,0.0,0.0,0.0,0.0,0.0,0.0,0.0,0.0,0.0,0.0,0.0,0.0,0.0,0.0,0.0,0.0,0.0443,0.1149,0.035,0.0868,0.2325,0.1535,0.2282,0.378,0.2772,0.3024,0.4113,0.5957,0.6627,0.6707]},{"header":{"parameterUnit":"m.s-1","parameterCategory":1,"la1":30.6,"la2":28.766,"lo1":-90.7593,"lo2":-88.6598,"dy":0.0162,"dx":0.0183,"nx":116,"ny":114,"refTime":"2023-04-21T12:00:00:Z","depth":0,"parameterNumber":3,"parameterNumberName":"V-component_of_WINDS"},"data":[0.0,0.0,0.0,0.0,0.0,0.0,0.0,0.0,0.0,0.0,0.0,0.0,0.0,0.0,0.0,0.0,0.0,0.0,0.0,0.0,0.0,0.0,0.0,0.0,0.0,0.0,0.0,0.0,0.0,0.0,0.0,0.0,0.0,0.0,0.0,0.0,0.0,0.0,0.0,0.0,0.0,0.0,0.0,0.0,0.0,0.0,0.0,0.0,0.0,0.0,0.0,0.0,0.0,0.0,0.0,0.0,0.0,0.0,0.0,0.0,0.0,0.0,0.0,0.0,0.0,0.0,0.0,0.0,0.0,0.0,0.0,0.0,0.0,0.0,0.0,0.0,0.0,0.0,0.0,0.0,0.0,0.0,0.0,0.0,0.0,0.0,0.0,0.0,0.0,0.0,0.0,0.0,0.0,0.0,0.0,0.0,0.0,0.0,0.0,0.0,0.0,0.0,0.0,0.0,0.0,0.0,0.0,0.0,0.0,0.0,0.0,0.0,0.0,0.0,0.0,0.0,0.0,0.0,0.0,0.0,0.0,0.0,0.0,0.0,0.0,0.0,0.0,0.0,0.0,0.0,0.0,0.0,0.0,0.0,0.0,0.0,0.0,0.0,0.0,0.0,0.0,0.0,0.0,0.0,0.0,0.0,0.0,0.0,0.0,0.0,0.0,0.0,0.0,0.0,0.0,0.0,0.0,0.0,0.0,0.0,0.0,0.0,0.0,0.0,0.0,0.0,0.0,0.0,0.0,0.0,0.0,0.0,0.0,0.0,0.0,0.0,0.0,0.0,0.0,0.0,0.0,0.0,0.0,0.0,0.0,0.0,0.0,0.0,0.0,0.0,0.0,0.0,0.0,0.0,0.0,0.0,0.0,0.0,0.0,0.0,0.0,0.0,0.0,0.0,0.0,0.0,0.0,0.0,0.0,0.0,0.0,0.0,0.0,0.0,0.0,0.0,0.0,0.0,0.0,0.0,0.0,0.0,0.0,0.0,0.0,0.0,0.0,0.0,0.0,0.0,0.0,0.0,0.0,0.0,0.0,0.0,0.0,0.0,0.0,0.0,0.0,0.0,0.0,0.0,0.0,0.0,0.0,0.0,0.0,0.0,0.0,0.0,0.0,0.0,0.0,0.0,0.0,0.0,0.0,0.0,0.0,0.0,0.0,0.0,0.0,0.0,0.0,0.0,0.0,0.0,0.0,0.0,0.0,0.0,0.0,0.0,0.0,0.0,0.0,0.0,0.0,0.0,0.0,0.0,0.0,0.0,0.0,0.0,0.0,0.0,0.0,0.0,0.0,0.0,0.0,0.0,0.0,0.0,0.0,0.0,0.0,0.0,0.0,0.0,0.0,0.0,0.0,0.0,0.0,0.0,0.0,0.0,0.0,0.0,0.0,0.0,0.0,0.0,0.0,0.0,0.0,0.0,0.0,0.0,0.0,0.0,0.0,0.0,0.0,0.0,0.0,0.0,0.0,0.0,0.0,0.0,0.0,0.0,0.0,0.0,0.0,0.0,0.0,0.0,0.0,0.0,0.0,0.0,0.0,0.0,0.0,0.0,0.0,0.0,0.0,0.0,0.0,0.0,0.0,0.0,0.0,0.0,0.0,0.0,0.0,0.0,0.0,0.0,0.0,0.0,0.0,0.0,0.0,0.0,0.0,0.0,0.0,0.0,0.0,0.0,0.0,0.0,0.0,0.0,0.0,0.0,0.0,0.0,0.0,0.0,0.0,0.0,0.0,0.0,0.0,0.0,0.0,0.0,0.0,0.0,0.0,0.0,0.0,0.0,0.0,0.0,0.0,0.0,0.0,0.0,0.0,0.0,0.0,0.0,0.0,0.0,0.0,0.0,0.0,0.0,0.0,0.0,0.0,0.0,0.0,0.0,0.0,0.0,0.0,0.0,0.0,0.0,0.0,0.0,0.0,0.0,0.0,0.0,0.0,0.0,0.0,0.0,0.0,0.0,0.0,0.0,0.0,0.0,0.0,0.0,0.0,0.0,0.0,0.0,0.0,0.0,0.0,0.0,0.0,0.0,0.0,0.0,0.0,0.0,0.0,0.0,0.0,0.0,0.0,0.0,0.0,0.0,0.0,0.0,0.0,0.0,0.0,0.0,0.0,0.0,0.0,0.0,0.0,0.0,0.0,0.0,0.0,0.0,0.0,0.0,0.0,0.0,0.0,0.0,0.0,0.0,0.0,0.0,0.0,0.0,0.0,0.0,0.0,0.0,0.0,0.0,0.0,0.0,0.0,0.0,0.0,0.0,0.0,0.0,0.0,0.0,0.0,0.0,0.0,0.0,0.0,0.0,0.0,0.0,0.0,0.0,0.0,0.0,0.0,0.0,0.0,0.0,0.0,0.0,0.0,0.0,0.0,0.0,0.0,0.0,0.0,0.0,0.0,0.0,0.0,0.0,0.0,0.0,0.0,0.0,0.0,0.0,0.0,0.0,0.0,0.0,0.0,0.0,0.0,0.0,0.0,0.0,0.0,0.0,0.0,0.0,0.0,0.0,0.0,0.0,0.0,0.0,0.0,0.0,0.0,0.0,0.0,0.0,0.0,0.0,0.0,0.0,0.0,0.0,0.0,0.0,0.0,0.0,0.0,0.0,0.0,0.0,0.0,0.0,0.0,0.0,0.0,0.0,0.0,0.0,0.0,0.0,0.0,0.0,0.0,0.0,0.0,0.0,0.0,0.0,0.0,0.0,0.0,0.0,0.0,0.0,0.0,0.0,0.0,0.0,0.0,0.0,0.0,0.0,0.0,0.0,0.0,0.0,0.0,0.0,0.0,0.0,0.0,0.0,0.0,0.0,0.0,0.0,0.0,0.0,0.0,0.0,0.0,0.0,0.0,0.0,0.0,0.0,0.0,0.0,0.0,0.0,0.0,0.0,0.0,0.0,0.0,0.0,0.0,0.0,0.0,0.0,0.0,0.0,0.0,0.0,0.0,0.0,0.0,0.0,0.0,0.0,0.0,0.0,0.0,0.0,0.0,0.0,0.0,0.0,0.0,0.0,0.0,0.0,0.0,0.0,0.0,0.0,0.0,0.0,0.0,0.0,0.0,0.0,0.0,0.0,0.0,0.0,0.0,0.0,0.0,0.0,0.0,0.0,0.0,0.0,0.0,0.0,0.0,0.0,0.0,0.0,0.0,0.0,0.0,0.0,0.0,0.0,0.0,0.0,0.0,0.0,0.0,0.0,0.0,0.0,0.0,0.0,0.0,0.0,0.0,0.0,0.0,0.0,0.0,0.0,0.0,0.0,0.0,0.0,0.0,0.0,0.0,0.0,0.0,0.0,0.0,0.0,0.0,0.0,0.0,0.0,0.0,0.0,0.0,0.0,0.0,0.0,0.0,0.0,0.0,0.0,0.0,0.0,0.0,0.0,0.0,0.0,0.0,0.0,0.0,0.0,0.0,0.0,0.0,0.0,0.0,0.0,0.0,0.0,0.0,0.0,0.0,0.0,0.0,0.0,0.0,0.0,0.0,0.0,0.0,0.0,0.0,0.0,0.0,0.0,0.0,0.0,0.0,0.0,0.0,0.0,0.0,0.0,0.0,0.0,0.0,0.0,0.0,0.0,0.0,0.0,0.0,0.0,0.0,0.0,0.0,0.0,0.0,0.0,0.0,0.0,0.0,0.0,0.0,0.0,0.0,0.0,0.0,0.0,0.0,0.0,0.0,0.0,0.0,0.0,0.0,0.0,0.0,0.0,0.0,0.0,0.0,0.0,0.0,0.0,0.0,0.0,0.0,0.0,0.0,0.0,0.0,0.0,0.0,0.0,0.0,0.0,0.0,0.0,0.0,0.0,0.0,0.0,0.0,0.0,0.0,0.0,0.0,0.0,0.0,0.0,0.0,0.0,0.0,0.0,0.0,0.0,0.0,0.0,0.0,0.0,0.0,0.0,0.0,0.0,0.0,0.0,0.0,0.0,0.0,0.0,0.0,0.0,0.0,0.0,0.0,0.0,0.0,0.0,0.0,0.0,0.0,0.0,0.0,0.0,0.0,0.0,0.0,0.0,0.0,0.0,0.0,0.0,0.0,0.0,0.0,0.0,0.0,0.0,0.0,0.0,0.0,0.0,0.0,0.0,0.0,0.0,0.0,0.0,0.0,0.0,0.0,0.0,0.0,0.0,0.0,0.0,0.0,0.0,0.0,0.0,0.0,0.0,0.0,0.0,0.0,0.0,0.0,0.0,0.0,0.0,0.0,0.0,0.0,0.0,0.0,0.0,0.0,0.0,0.0,0.0,0.0,0.0,0.0,0.0,0.0,0.0,0.0,0.0,0.0,0.0,0.0,0.0,0.0,0.0,0.0,0.0,0.0,0.0,0.0,0.0,0.0,0.0,0.0,0.0,0.0,0.0,0.0,0.0,0.0,0.0,0.0,0.0,0.0,0.0,0.0,0.0,0.0,0.0,0.0,0.0,0.0,0.0,0.0,0.0,0.0,0.0,0.0,0.0,0.0,0.0,0.0,0.0,0.0,0.0,0.0,0.0,0.0,0.0,0.0,0.0,0.0,0.0,0.0,0.0,0.0,0.0,0.0,0.0,0.0,0.0,0.0,0.0,0.0,0.0,0.0,0.0,0.0,0.0,0.0,0.0,0.0,0.0,0.0,0.0,0.0,0.0,0.0,0.0,0.0,0.0,0.0,0.0,0.0,0.0,0.0,0.0,0.0,0.0,0.0,0.0,0.0,0.0,0.0,0.0,0.0,0.0,0.0,0.0,0.0,0.0,0.0,0.0,0.0,0.0,0.0,0.0,0.0,0.0,0.0,0.0,0.0,0.0,0.0,0.0,0.0,0.0,0.0,0.0,0.0,0.0,0.0,0.0,0.0,0.0,0.0,0.0,0.0,0.0,0.0,0.0,0.0,0.0,0.0,0.0,0.0,0.0,0.0,0.0,0.0,0.0,0.0,0.0,0.0,0.0,0.0,0.0,0.0,0.0,0.0,0.0,0.0,0.0,0.0,0.0,0.0,0.0,0.0,0.0,0.0,0.0,0.0,0.0,0.0,0.0,0.0,0.0,0.0,0.0,0.0,0.0,0.0,0.0,0.0,0.0,0.0,0.0,0.0,0.0,0.0,0.0,0.0,0.0,0.0,0.0,0.0,0.0,0.0,0.0,0.0,0.0,0.0,0.0,0.0,0.0,0.0,0.0,0.0,0.0,0.0,0.0,0.0,0.0,0.0,0.0,0.0,0.0,0.0,0.0,0.0,0.0,0.0,0.0,0.0,0.0,0.0,0.0,0.0,0.0,0.0,0.0,0.0,0.0,0.0,0.0,0.0,0.0,0.0,0.0,0.0,0.0,0.0,0.0,0.0,0.0,0.0,0.0,0.0,0.0,0.0,0.0,0.0,0.0,0.0,0.0,0.0,0.0,0.0,0.0,0.0,0.0,0.0,0.0,0.0,0.0,0.0,0.0,0.0,0.0,0.0,0.0,0.0,0.0,0.0,0.0,0.0,0.0,0.0,0.0,0.0,0.0,0.0,0.0,0.0,0.0,0.0,0.0,0.0,0.0,0.0,0.0,0.0,0.0,0.0,0.0,0.0,0.0,0.0,0.0,0.0,0.0,0.0,0.0,0.0,0.0,0.0,0.0,0.0,0.0,0.0,0.0,0.0,0.0,0.0,0.0,0.0,0.0,0.0,0.0,0.0,0.0,0.0,0.0,0.0,0.0,0.0,0.0,0.0,0.0,0.0,0.0,0.0,0.0,0.0,0.0,0.0,0.0,0.0,0.0,0.0,0.0,0.0,0.0,0.0,0.0,0.0,0.0,0.0,0.0,0.0,0.0,0.0,0.0,0.0,0.0,0.0,0.0,0.0,0.0,0.0,0.0,0.0,0.0,0.0,0.0,0.0,0.0,0.0,0.0,0.0,0.0,0.0,0.0,0.0,0.0,0.0,0.0,0.0,0.0,0.0,0.0,0.0,0.0,0.0,0.0,0.0,0.0,0.0,0.0,0.0,0.0,0.0,0.0,0.0,0.0,0.0,0.0,0.0,0.0,0.0,0.0,0.0,0.0,0.0,0.0,0.0,0.0,0.0,0.0,0.0,0.0,0.0,0.0,0.0,0.0,0.0,0.0,0.0,0.0,2.9924,0.0,0.0,0.0,0.0,0.0,0.0,0.0,0.0,0.0,0.0,0.0,0.0,0.0,0.0,0.0,0.0,0.0,0.0,0.0,0.0,0.0,0.0,0.0,0.0,0.0,0.0,0.0,0.0,0.0,0.0,0.0,0.0,0.0,0.0,0.0,0.0,0.0,0.0,3.3807,3.4716,3.6107,3.7862,3.7873,3.6703,3.457,0.0,0.0,0.0,0.0,0.0,0.0,0.0,0.0,0.0,0.0,0.0,0.0,0.0,0.0,0.0,0.0,0.0,0.0,0.0,0.0,0.0,0.0,0.0,0.0,0.0,0.0,0.0,0.0,0.0,0.0,0.0,0.0,0.0,0.0,0.0,0.0,0.0,0.0,0.0,0.0,0.0,0.0,0.0,0.0,0.0,0.0,0.0,0.0,0.0,0.0,0.0,0.0,0.0,0.0,0.0,0.0,0.0,0.0,0.0,0.0,0.0,0.0,0.0,0.0,0.0,0.0,0.0,0.0,0.0,0.0,0.0,3.0025,0.0,0.0,0.0,0.0,0.0,0.0,0.0,0.0,0.0,0.0,0.0,0.0,0.0,0.0,0.0,0.0,0.0,0.0,0.0,0.0,0.0,0.0,0.0,3.5933,3.5398,3.5323,3.5874,3.5713,0.0,0.0,0.0,0.0,0.0,0.0,3.4784,3.4137,3.3981,3.4305,3.6745,3.8551,3.9815,4.0428,3.9014,3.5814,3.4289,0.0,0.0,0.0,0.0,0.0,0.0,0.0,0.0,0.0,0.0,0.0,0.0,0.0,0.0,0.0,0.0,0.0,0.0,0.0,0.0,0.0,0.0,0.0,0.0,0.0,0.0,0.0,0.0,0.0,0.0,0.0,0.0,0.0,0.0,0.0,0.0,0.0,0.0,0.0,0.0,0.0,0.0,0.0,0.0,0.0,0.0,0.0,0.0,0.0,0.0,0.0,0.0,0.0,0.0,0.0,0.0,0.0,0.0,0.0,0.0,0.0,0.0,0.0,3.466,3.5577,3.7337,3.6084,3.6231,3.7303,3.2598,3.2138,3.4404,3.0697,0.0,0.0,0.0,0.0,0.0,0.0,0.0,0.0,0.0,0.0,0.0,0.0,0.0,0.0,0.0,0.0,0.0,0.0,0.0,0.0,0.0,3.5955,3.5479,3.5398,3.6144,3.6044,3.4689,0.0,0.0,0.0,0.0,0.0,3.3954,3.3844,3.4629,3.6334,4.0676,4.2699,4.2626,4.4462,4.4344,4.2455,3.9075,3.743,3.7113,0.0,0.0,0.0,0.0,0.0,0.0,0.0,0.0,0.0,0.0,0.0,0.0,0.0,0.0,0.0,0.0,0.0,0.0,0.0,0.0,0.0,0.0,0.0,0.0,0.0,0.0,0.0,0.0,0.0,0.0,0.0,0.0,0.0,0.0,0.0,0.0,0.0,0.0,0.0,0.0,0.0,3.2335,3.3067,0.0,0.0,0.0,0.0,0.0,0.0,0.0,0.0,0.0,0.0,0.0,0.0,0.0,3.5997,3.7524,3.8277,3.8901,3.9404,3.938,3.9476,3.9656,3.9445,3.9842,4.046,3.7855,0.0,3.5397,3.4822,0.0,0.0,0.0,0.0,0.0,0.0,0.0,0.0,0.0,0.0,0.0,0.0,0.0,0.0,0.0,0.0,0.0,0.0,0.0,0.0,0.0,3.6808,3.6877,3.6795,3.9201,3.9442,3.6415,3.7672,0.0,0.0,0.0,3.3847,3.3807,3.4853,3.7251,4.1036,4.3565,4.5341,4.6318,4.7379,4.744,4.6591,4.461,4.1997,3.8906,3.6962,0.0,0.0,0.0,0.0,0.0,0.0,0.0,0.0,0.0,0.0,0.0,0.0,0.0,0.0,0.0,0.0,0.0,0.0,0.0,0.0,0.0,0.0,0.0,0.0,0.0,0.0,0.0,0.0,0.0,0.0,0.0,0.0,0.0,0.0,0.0,0.0,0.0,0.0,0.0,3.3858,3.5155,3.5045,3.5063,3.3846,0.0,0.0,0.0,0.0,0.0,0.0,0.0,0.0,0.0,3.7477,3.8265,3.9203,4.0373,4.1503,4.2183,4.245,4.2783,4.2909,4.2856,4.2856,4.2974,4.3165,4.2181,4.0604,3.8565,3.6028,3.4641,3.3964,0.0,0.0,0.0,0.0,3.0615,2.9736,0.0,0.0,0.0,0.0,0.0,0.0,0.0,0.0,0.0,0.0,0.0,0.0,3.7885,3.8969,3.9577,3.9546,4.2468,4.2584,3.8432,3.9402,3.8374,3.4384,3.4056,3.4039,3.4164,3.6954,4.0514,4.4872,4.6553,4.8318,5.0202,5.0609,5.0603,5.0195,4.9677,4.6652,4.1714,3.9036,3.7877,3.7581,0.0,0.0,0.0,0.0,0.0,0.0,0.0,0.0,0.0,0.0,0.0,0.0,0.0,0.0,0.0,0.0,0.0,0.0,0.0,0.0,0.0,0.0,0.0,0.0,0.0,0.0,0.0,0.0,0.0,0.0,0.0,0.0,0.0,0.0,0.0,0.0,0.0,3.5459,3.7419,3.6413,3.7348,3.6547,0.0,0.0,0.0,0.0,0.0,0.0,3.7956,3.8864,3.9801,4.0776,4.1643,4.2452,4.3147,4.4389,4.4989,4.4997,4.5439,4.5528,4.5296,4.5296,4.5111,4.4858,4.4858,4.362,4.1307,3.7675,3.6096,3.5723,3.3863,3.2916,3.2598,3.2801,3.2036,3.1089,0.0,0.0,0.0,0.0,0.0,0.0,0.0,0.0,0.0,0.0,0.0,3.8815,4.1269,4.3008,4.397,4.397,4.4923,4.396,4.0206,3.9338,3.7574,3.4427,3.4211,3.4464,3.5114,4.0298,4.3995,4.6125,4.9966,5.2582,5.3965,5.4698,5.4726,5.4112,5.362,5.1101,4.6928,4.2937,4.1545,4.1515,3.5987,0.0,0.0,0.0,0.0,0.0,0.0,0.0,0.0,0.0,0.0,0.0,0.0,0.0,0.0,0.0,0.0,0.0,0.0,0.0,0.0,0.0,0.0,0.0,0.0,0.0,0.0,0.0,0.0,0.0,0.0,0.0,0.0,0.0,0.0,0.0,0.0,0.0,0.0,3.6486,4.1022,0.0,0.0,0.0,0.0,3.7434,3.7799,3.908,4.1248,4.1955,4.281,4.4026,4.5257,4.6085,4.6355,4.7121,4.7479,4.7339,4.7374,4.6912,4.6048,4.6048,4.5672,4.4995,4.4995,4.4107,4.2518,4.1341,3.9242,3.666,3.5791,3.4585,3.3423,3.4134,3.3897,3.3457,0.0,0.0,0.0,0.0,0.0,0.0,0.0,0.0,3.6183,3.7488,3.8415,3.9882,4.2371,4.5163,4.7301,4.8335,4.9163,4.8174,4.4718,4.2546,4.008,3.7117,3.5932,3.7035,4.0651,4.4183,4.7488,5.0583,5.3091,5.459,5.5118,5.5394,5.5397,5.5155,5.5012,5.3822,5.1701,4.7808,4.4966,4.2887,4.0651,3.8368,0.0,0.0,0.0,0.0,0.0,0.0,0.0,0.0,0.0,0.0,0.0,0.0,0.0,0.0,0.0,0.0,0.0,0.0,0.0,0.0,0.0,0.0,0.0,0.0,0.0,0.0,0.0,0.0,0.0,0.0,0.0,0.0,0.0,0.0,0.0,0.0,0.0,4.1662,4.3938,0.0,4.123,4.147,4.1414,4.0455,4.2255,4.3835,4.4875,4.5539,4.6038,4.6458,4.74,4.7919,4.8017,4.8803,4.8913,4.834,4.7858,4.721,4.6399,4.5883,4.5451,4.5123,4.5123,4.4521,4.3389,4.2534,4.0662,3.8279,3.7522,3.6808,3.6265,3.6062,3.5791,3.5588,0.0,0.0,0.0,0.0,0.0,0.0,0.0,0.0,3.6697,3.8292,3.9779,4.1872,4.4954,4.8582,5.1352,5.2723,5.2818,5.1241,4.7548,4.4258,4.1189,3.8345,3.8178,4.0182,4.4592,4.765,5.0886,5.4284,5.5821,5.6647,5.6846,5.6694,5.6558,5.6381,5.6381,5.5941,5.5023,5.2495,4.9306,4.5809,4.4273,4.1838,3.8903,0.0,0.0,0.0,0.0,0.0,0.0,0.0,0.0,0.0,0.0,0.0,0.0,0.0,0.0,0.0,0.0,0.0,0.0,0.0,0.0,0.0,0.0,0.0,0.0,0.0,0.0,0.0,0.0,0.0,0.0,0.0,0.0,0.0,0.0,4.0691,4.4232,4.5002,4.7021,4.7552,4.5497,4.5797,4.5867,4.5332,4.7427,4.8853,4.9088,4.9705,4.9792,4.9174,4.9597,4.9658,4.9189,4.9735,4.9735,4.9189,4.843,4.7672,4.6941,4.6155,4.5612,4.5291,4.5291,4.4791,4.3991,4.3477,4.1971,3.9968,3.8921,3.8476,3.8279,3.7238,3.6875,3.674,0.0,0.0,0.0,0.0,0.0,0.0,0.0,3.8653,3.817,4.1507,4.2654,4.4784,4.9173,5.3282,5.6099,5.6983,5.5511,5.2702,4.8432,4.4154,4.0598,3.7938,4.0809,4.3779,4.6587,5.067,5.4129,5.6904,5.8101,5.8911,5.9268,5.8831,5.8428,5.8056,5.8056,5.7652,5.6932,5.6918,5.4641,5.0655,4.6617,4.4892,4.4305,0.0,0.0,0.0,0.0,0.0,0.0,0.0,0.0,0.0,0.0,0.0,0.0,0.0,0.0,0.0,0.0,0.0,0.0,0.0,0.0,0.0,0.0,0.0,0.0,0.0,0.0,0.0,0.0,0.0,0.0,0.0,0.0,0.0,3.8946,4.3737,4.7003,4.6324,5.0472,5.2417,5.0088,5.1471,5.2403,5.2139,5.3111,5.371,5.3626,5.4303,5.3871,5.2099,5.1954,5.1298,5.0068,5.004,5.004,5.0005,4.9183,4.8396,4.7672,4.6906,4.6148,4.5423,4.5397,4.4975,4.4337,4.4276,4.3278,4.1641,4.0079,3.945,3.9255,3.7671,3.7047,3.6854,0.0,0.0,0.0,0.0,0.0,0.0,0.0,3.833,3.7833,3.9922,4.2509,4.5802,5.0,5.4285,5.74,5.8688,5.6165,5.2933,4.9279,4.4509,4.1445,4.0713,4.4296,4.8138,5.211,5.514,5.7456,5.9126,6.0432,6.0374,5.8989,5.9112,5.9161,5.9153,5.9387,5.9486,5.9541,5.9233,5.7925,5.5743,5.2481,4.8901,4.5461,0.0,0.0,0.0,0.0,0.0,0.0,0.0,0.0,0.0,0.0,0.0,0.0,0.0,0.0,0.0,0.0,0.0,0.0,0.0,0.0,0.0,0.0,0.0,0.0,0.0,0.0,0.0,0.0,0.0,0.0,0.0,4.1535,4.4581,4.4011,4.7792,5.1426,5.3555,5.55,5.6418,5.5757,5.5609,5.5294,5.4656,5.4547,5.4484,5.4484,5.4298,5.3719,5.2598,5.2536,5.2102,5.1175,5.0776,5.0592,5.0557,4.8827,4.7879,4.7638,4.6328,4.5806,4.5955,4.5581,4.5147,4.4757,4.3865,4.2906,4.1891,4.1332,4.0754,4.0099,3.9095,3.8013,3.6967,0.0,0.0,0.0,0.0,0.0,0.0,0.0,3.8523,3.85,4.0914,4.352,4.675,5.0966,5.4591,5.7059,5.7874,5.4878,5.1471,4.8009,4.4393,4.297,4.4393,4.8068,5.1924,5.5956,5.8147,5.9983,6.1395,6.2132,6.1809,6.0428,6.009,6.0083,6.0348,6.0133,6.0369,6.0929,6.0688,5.9918,5.8724,5.6858,5.344,4.9317,4.8218,4.6419,4.4267,4.2611,4.2543,4.2795,3.9887,0.0,0.0,0.0,0.0,0.0,0.0,0.0,0.0,0.0,0.0,0.0,0.0,0.0,0.0,0.0,0.0,0.0,0.0,0.0,0.0,0.0,0.0,0.0,0.0,4.5717,4.9613,5.0802,5.3004,5.5464,5.8033,5.8731,5.9024,5.9024,5.8584,5.796,5.7152,5.6825,5.6502,5.6173,5.5616,5.4799,5.3659,5.3396,5.2733,5.1601,5.127,5.1149,5.1114,4.9249,4.8356,4.826,4.6525,4.5905,4.6179,4.5624,4.5458,4.5431,4.4356,4.3492,0.0,0.0,0.0,0.0,0.0,3.8014,3.6657,0.0,0.0,0.0,0.0,0.0,0.0,0.0,3.9073,3.9675,4.3123,4.4888,4.739,5.1553,5.4199,5.5586,5.5509,5.2483,4.9173,4.5979,4.4432,4.5201,4.8663,5.201,5.5357,5.8781,6.0435,6.1973,6.3474,6.3425,6.3176,6.2597,6.1498,6.1205,6.1612,6.0864,6.0957,6.1741,6.1706,6.118,6.0329,5.9838,5.7589,5.4259,5.1457,4.9877,4.8827,4.6609,4.5514,4.4901,4.364,0.0,0.0,0.0,0.0,0.0,0.0,0.0,0.0,0.0,0.0,0.0,0.0,0.0,0.0,0.0,0.0,0.0,0.0,0.0,0.0,0.0,0.0,0.0,0.0,4.9636,5.4086,5.7873,5.8474,5.9024,6.0382,6.0639,6.0639,6.0529,6.0529,6.0162,5.9258,5.9184,5.8877,5.8033,5.7425,0.0,0.0,0.0,5.3279,5.1811,5.1701,5.164,5.1533,4.9948,4.9139,4.9008,4.7119,4.6291,4.6339,4.5803,4.581,4.6163,4.5257,4.4355,4.3393,4.1614,4.0894,4.0722,3.9101,3.7666,3.6496,0.0,0.0,0.0,0.0,0.0,0.0,0.0,3.9501,3.9694,4.3138,4.4409,4.6368,4.9887,5.2505,5.391,5.3783,5.1288,4.8854,4.6778,4.6971,4.8971,5.3087,5.5857,5.8896,6.2281,6.3358,6.4012,6.4359,6.4723,6.4159,6.2762,6.2796,6.2892,6.3098,6.3149,6.3445,6.3879,6.3571,6.2932,6.1994,6.0567,5.8252,5.5544,5.4937,5.3955,5.2753,5.1361,5.1788,5.2418,4.8732,4.8365,4.8808,4.5241,4.2527,0.0,0.0,0.0,0.0,0.0,0.0,0.0,0.0,0.0,0.0,0.0,0.0,0.0,0.0,0.0,0.0,0.0,0.0,0.0,5.0043,5.4239,5.7913,6.0553,6.1447,6.1741,6.141,6.1961,6.2071,6.141,6.1374,6.0786,5.9294,5.9184,5.8877,5.8033,5.7281,5.6429,5.5499,5.4692,5.3857,5.2908,5.2454,5.1919,5.1269,0.0,0.0,4.82,4.7203,4.6959,4.7313,4.6822,4.6534,4.6347,4.5092,4.3387,4.1526,4.1047,4.0894,4.0769,3.9491,3.8852,3.8496,0.0,0.0,0.0,0.0,0.0,0.0,0.0,3.9361,3.9436,4.2064,4.2689,4.3877,4.6376,4.8082,4.8845,4.8306,4.6676,4.6048,4.6843,4.8884,5.2117,5.678,5.905,6.1396,6.3897,6.4397,6.482,6.5243,6.5484,6.5148,6.4342,6.3879,6.3965,6.4378,6.41,6.4321,6.4883,6.4679,6.4117,6.3232,6.173,5.9947,5.81,5.7015,5.6199,5.5542,5.4625,5.4926,5.534,5.2715,5.2342,5.2527,4.9676,4.6809,4.4038,0.0,0.0,0.0,0.0,0.0,0.0,0.0,0.0,0.0,0.0,0.0,0.0,0.0,0.0,4.2066,4.4119,0.0,5.1028,5.4166,5.747,6.0268,6.2142,6.2744,6.2831,6.2377,6.2647,6.2782,6.245,6.2413,6.1713,6.013,5.9913,5.9375,5.8162,5.7652,5.6859,5.5633,5.5207,5.4436,5.3203,5.2952,5.2623,5.2186,5.0707,4.98,4.9343,4.7897,4.7378,4.7569,4.7093,4.6966,4.6959,4.5503,4.3744,4.1903,4.1676,4.081,3.9666,3.8915,3.8531,3.8251,0.0,0.0,0.0,0.0,0.0,0.0,0.0,3.937,3.9366,4.0976,4.1116,4.1537,4.2861,4.3696,4.3673,4.2549,4.2739,4.4207,4.7195,5.0932,5.5188,6.0035,6.1908,6.3474,6.482,6.5013,6.5359,6.5897,6.5897,6.5897,6.5897,6.4918,6.4791,6.5388,6.4752,6.4905,6.5656,6.5656,6.5244,6.4458,6.3112,6.1885,6.0585,5.8306,5.7485,5.7497,5.6763,5.6209,5.5706,5.5127,5.4716,5.4235,5.3085,5.0676,4.7789,4.5338,4.323,0.0,0.0,0.0,0.0,0.0,0.0,0.0,0.0,3.9622,4.0289,4.3399,4.5099,4.68,4.9285,5.2494,5.5538,5.7862,5.9937,6.1707,6.301,6.3194,6.3147,6.3099,6.3051,6.3075,6.3171,6.3194,6.253,6.0905,6.0725,5.9955,5.8334,5.7817,5.7,5.5677,5.5199,5.439,5.3288,5.3104,5.3031,5.3031,5.1561,5.0789,5.0568,4.8652,4.7777,4.7736,4.7212,4.7075,4.7155,4.5758,4.4267,4.2758,4.238,4.0951,3.9047,3.8702,3.8334,3.7971,0.0,0.0,0.0,0.0,0.0,0.0,0.0,0.0,4.0078,4.1055,4.1171,4.12,4.1276,4.2,4.1734,3.9973,4.3919,4.7295,4.9097,5.3803,5.8434,6.2787,6.4588,6.5551,6.5743,6.6436,6.6513,6.5897,6.5897,6.5897,6.5897,6.5756,6.5744,6.5821,6.5744,6.6167,6.6897,6.6897,6.6671,6.6193,6.4558,6.3121,6.1716,5.8968,5.82,5.8454,5.7658,5.5949,5.4166,5.4778,5.4035,5.2958,5.3478,5.2438,5.047,4.7981,4.5085,4.1965,3.8771,3.8029,3.8289,3.8809,3.9514,4.1408,0.0,4.6533,4.7016,5.2401,5.3626,5.4518,5.7006,5.7823,5.8916,6.1256,6.1863,6.2336,6.3084,6.3194,6.3218,6.3336,6.3242,6.3171,6.3194,6.3194,6.253,6.0905,6.0794,6.0092,5.8445,5.6947,5.6061,5.5876,5.3773,5.2924,5.344,5.2739,5.2407,5.237,5.1484,5.0692,4.9953,4.8956,4.8458,4.8363,4.7572,4.68,4.6048,4.5204,4.3882,4.2365,4.2331,4.1674,4.0763,4.0311,4.0113,3.9913,0.0,0.0,0.0,0.0,0.0,0.0,0.0,0.0,0.0,4.0391,3.9529,3.8848,3.8745,3.8548,3.8098,3.7323,4.1944,4.5981,4.8646,5.4525,5.9559,6.3318,6.5057,6.6201,6.6714,6.7012,6.723,6.7423,6.7385,6.7359,6.7359,6.7359,6.7359,6.7359,6.7359,6.7552,6.7821,6.7321,6.7024,6.6724,6.5074,6.3628,6.2284,5.995,5.844,5.7248,5.4819,5.3274,0.0,5.1676,5.1305,5.1379,5.2679,5.1639,4.9745,4.8704,4.6067,4.3318,4.2426,4.1832,4.198,4.4246,4.5807,4.7664,5.1008,5.1602,5.2531,5.6357,5.7546,5.8475,6.0481,6.1261,6.1871,6.2866,6.2992,6.3103,6.3368,6.3034,6.2575,6.2175,6.2056,6.2405,6.3331,6.259,6.1775,6.107,6.0041,5.8961,5.7814,5.6568,5.5676,5.5233,5.4199,5.3629,5.3481,5.3148,5.3001,5.3001,5.2188,5.1376,5.0582,4.9732,4.9086,4.855,4.8218,4.7297,4.6063,4.5729,4.4643,4.3172,4.3172,4.2951,4.2496,4.1013,4.0306,4.0002,0.0,0.0,0.0,0.0,0.0,0.0,0.0,0.0,0.0,0.0,3.8551,3.7359,3.6799,3.6129,3.5702,3.5709,3.9727,4.3775,4.7372,5.3353,5.8462,6.233,6.4547,6.609,6.69,6.7355,6.7909,6.8538,6.8488,6.845,6.845,6.8437,6.8424,6.8424,6.8398,6.8552,6.8706,6.7821,6.7475,6.7282,6.5359,6.3783,6.2341,5.9839,5.7504,5.5166,5.2135,5.0302,4.9113,4.7441,4.7144,4.7664,4.9113,4.8816,4.785,4.7627,4.5398,4.3206,4.4061,4.4321,4.5138,4.8407,5.0822,5.2865,5.4723,5.5614,5.6729,5.9218,6.0035,6.0778,6.245,6.3044,6.3342,6.3565,6.3602,6.3602,6.3602,6.2933,6.2116,6.1298,6.0778,6.1076,6.245,6.1744,6.1187,6.1187,5.9764,5.8535,5.7719,5.6636,5.5632,5.4818,5.4374,5.3857,5.3284,5.3247,5.3247,5.3247,5.2655,5.2081,5.1489,5.0417,4.9473,4.866,4.8438,4.7533,4.6168,4.5981,4.5077,4.3804,4.3804,4.3804,4.3607,4.1987,4.1089,4.0535,0.0,0.0,0.0,0.0,0.0,0.0,0.0,0.0,0.0,0.0,0.0,0.0,0.0,3.5748,3.5697,3.5715,3.8108,4.1396,4.5606,4.9892,5.4571,5.9679,6.3064,6.5191,6.6001,6.7699,6.8559,6.861,6.8598,6.8598,6.8598,6.8538,6.8513,6.85,6.8424,6.8859,6.959,6.8744,6.8359,6.8129,6.5628,6.3589,6.1719,5.7992,5.4914,5.2329,5.0708,4.759,4.3986,4.2352,4.1311,4.0828,4.1646,4.354,4.5249,4.4395,4.2426,4.0694,4.1497,4.3429,4.603,4.9262,5.2494,5.554,5.7992,5.8586,5.9292,6.1781,6.1707,6.167,6.3267,6.297,6.271,6.349,6.3602,6.3602,6.3602,6.2933,6.2116,6.1298,5.9775,5.9107,5.9903,6.0741,6.1187,6.1187,6.037,5.9494,5.8677,5.7154,5.5892,5.5,5.3478,5.2661,5.2624,5.2624,5.2624,5.2624,5.2587,5.2587,5.2512,5.0787,4.9565,4.875,4.7972,4.7105,4.6131,4.544,4.4626,4.3804,4.3804,4.3804,4.3804,4.3714,4.3197,4.2306,0.0,0.0,0.0,0.0,0.0,0.0,0.0,0.0,0.0,0.0,0.0,0.0,0.0,0.0,0.0,0.0,3.8889,4.1203,4.3131,4.833,5.2614,5.5483,5.9949,6.2993,6.4433,6.6091,6.7498,6.8656,6.8621,6.8598,6.8598,6.8574,6.8562,6.8601,6.9104,6.9502,6.9695,6.8796,6.8385,6.8129,6.5013,6.2397,5.9988,5.6243,5.2793,4.9426,0.0,4.3119,4.0346,3.7596,3.6891,3.7498,3.9342,4.0494,4.1349,4.2166,4.2983,4.4172,4.6587,4.8667,5.1045,5.4871,5.7472,5.9478,6.0853,6.1596,6.1893,6.167,6.0072,5.8586,5.7992,5.7695,5.7955,5.9329,6.0927,6.2376,6.3453,6.2933,6.1707,5.9775,5.9515,5.8995,5.7658,5.8252,5.9181,6.0258,5.9069,5.7955,5.7138,5.606,5.5057,5.424,5.3683,5.3423,5.3423,5.3423,5.3423,5.3385,5.2308,5.1788,5.1751,5.0043,4.9098,4.8838,4.8578,4.7967,4.7134,4.6351,4.5519,4.4761,4.4167,4.3929,4.3929,4.3929,4.3759,4.3262,0.0,0.0,0.0,0.0,0.0,0.0,0.0,0.0,0.0,0.0,0.0,0.0,0.0,0.0,0.0,0.0,0.0,4.0516,4.1899,4.5606,4.8778,5.1099,5.4658,5.7366,5.9106,6.0423,6.1988,6.3727,6.4584,6.5181,6.5528,6.6394,6.6807,6.6846,6.7663,6.8024,6.7947,6.705,6.6101,6.496,6.1882,5.8918,5.6038,5.3031,4.9824,0.0,4.29,4.0254,3.8078,3.5264,3.487,3.5826,3.7671,3.8859,3.99,4.1534,4.3578,4.6067,4.9596,5.2197,5.4909,5.8995,6.0853,6.193,6.3007,6.323,6.2636,6.0704,5.8326,5.6097,5.4463,5.3683,5.3943,5.5874,5.7509,5.9441,6.1908,6.1596,6.0704,5.9701,5.9775,5.9292,5.7732,5.7806,5.8475,5.9791,5.8698,5.7583,5.6766,5.5949,5.4946,5.3831,5.4091,5.3943,5.3385,5.3943,5.4091,5.3794,5.2754,5.1974,5.1342,5.0265,4.9485,4.889,4.889,4.8296,4.7218,4.6698,4.5844,4.4766,4.4209,4.3986,4.3986,4.3986,4.3986,4.3748,0.0,0.0,0.0,0.0,0.0,0.0,0.0,0.0,0.0,0.0,0.0,0.0,0.0,0.0,0.0,0.0,0.0,0.0,4.1628,4.1932,4.344,4.6689,4.785,4.9165,5.0782,5.1718,5.3033,5.4735,5.7134,5.8758,5.9609,6.1988,6.3078,6.3117,6.3902,6.4293,6.4227,6.3417,6.161,5.9138,5.6557,5.3522,5.0366,4.8586,4.6206,4.355,4.1187,3.9147,3.7278,3.5285,3.5097,3.5826,3.6718,3.8674,4.0977,4.2723,4.4432,4.6624,5.0785,5.424,5.7621,6.1558,6.2524,6.2896,6.4322,6.3416,6.1521,5.8995,5.6395,5.4054,5.2345,5.0933,5.0785,5.3237,5.3868,5.5466,5.9515,5.9441,5.9515,6.1038,6.0518,5.9998,5.985,5.9181,5.9069,5.9754,5.9144,5.8326,5.7472,5.6729,5.554,5.3868,5.4537,5.4203,5.2679,5.4203,5.4574,5.3794,5.372,5.2865,5.1416,5.1305,5.0413,4.889,4.889,4.8036,4.6624,4.6513,4.5547,4.4135,4.4023,4.3986,4.3986,4.3986,4.3986,4.3763,0.0,0.0,0.0,0.0,0.0,0.0,0.0,0.0,0.0,0.0,0.0,0.0,0.0,0.0,0.0,0.0,0.0,0.0,3.9152,4.0965,4.2396,4.3247,4.6573,4.8894,4.9977,5.1447,5.2732,5.3846,5.4465,5.489,5.5161,5.5763,5.6072,5.6102,5.6936,5.7294,5.7246,5.6975,5.6472,5.5584,5.3042,5.0702,4.8509,4.6163,4.3942,4.1906,4.0833,4.03,3.9591,3.5851,3.6208,3.8525,4.0606,4.2537,4.4729,4.8184,5.0376,5.2679,5.7398,6.0184,6.2153,6.3788,6.4173,6.3988,6.3193,6.1261,5.8772,5.5689,5.1639,4.7776,4.4915,4.6067,4.8221,5.0673,5.4648,5.8661,6.219,6.2465,6.2079,6.1298,6.1521,6.1038,5.9181,5.9367,5.9441,5.9032,5.8846,5.8103,5.6692,5.6432,5.554,5.3868,5.4017,5.3905,5.3497,5.3905,5.4017,5.3794,5.2568,5.1788,5.1342,5.0116,4.9299,4.889,4.889,4.8667,4.8184,4.6995,4.6252,4.5732,4.4506,4.3986,4.3986,4.3986,4.3986,4.3869,0.0,0.0,0.0,0.0,0.0,0.0,0.0,0.0,0.0,0.0,0.0,0.0,0.0,0.0,0.0,0.0,0.0,0.0,0.0,4.0113,4.0732,4.0346,4.2628,4.4136,4.4639,4.5568,4.6303,4.6806,4.8275,4.901,4.9049,5.0558,5.1254,5.1293,5.215,5.252,5.252,5.2485,5.1756,0.0,0.0,4.672,4.4636,4.3219,4.1992,4.1016,4.0654,4.1088,4.1639,4.0659,4.1581,4.3554,4.6186,4.78,4.9513,5.366,5.5137,5.6432,6.1001,6.3193,6.4396,6.5608,6.5065,6.375,6.1781,5.9107,5.5763,5.1045,4.759,4.4618,4.2054,4.3392,4.5918,4.9076,5.2902,5.6878,6.089,6.1744,6.2041,6.2227,6.2673,6.2376,6.1001,6.0964,6.0667,5.985,5.8809,5.7621,5.6357,5.5949,5.5131,5.3831,5.4128,5.4351,5.4351,5.3645,5.346,5.3794,5.2531,5.1936,5.1899,5.0599,4.9869,4.965,0.0,4.8903,4.8455,4.7186,4.6398,4.5844,4.4506,4.3986,4.3986,4.3986,4.4079,4.4117,0.0,0.0,0.0,0.0,0.0,0.0,0.0,0.0,0.0,0.0,0.0,0.0,0.0,0.0,0.0,0.0,0.0,0.0,0.0,0.0,3.9346,3.8566,3.856,3.856,3.856,3.856,3.856,3.856,4.1506,4.2976,4.3015,4.5993,4.7386,4.7424,4.8198,4.8508,4.8508,4.8508,4.7209,4.5054,4.432,4.2637,4.0595,0.0,4.0605,4.0615,4.0846,4.1865,4.355,4.6974,4.839,4.9263,5.2158,5.3581,5.4919,5.8687,5.9175,5.9376,6.3193,6.4753,6.5585,6.6982,6.5534,6.2985,6.011,5.6898,5.2754,4.6417,4.4278,4.314,4.1698,4.2203,4.4209,4.8519,5.0636,5.346,5.8512,5.9812,6.1054,6.3342,6.3602,6.3527,6.3305,6.2673,6.1893,6.1113,5.8735,5.7063,5.6357,5.5616,5.4819,5.3944,5.4447,5.4763,5.4763,5.3218,5.2828,5.3645,5.2884,5.2568,5.2642,5.1766,5.1099,5.0626,4.9814,0.0,4.8273,4.746,4.651,4.5466,4.4609,4.4199,4.4109,4.4109,4.425,4.4452,0.0,0.0,0.0,0.0,0.0,0.0,0.0,0.0,0.0,0.0,4.1094,4.1053,0.0,0.0,0.0,0.0,0.0,0.0,0.0,0.0,0.0,4.0352,4.0352,4.0352,4.0352,4.0352,4.0352,4.0352,4.0932,4.1242,4.1242,4.1861,4.2131,4.2131,4.2286,4.2325,4.2325,4.2325,4.2067,4.1569,4.1415,4.1047,4.0595,4.0595,0.0,0.0,4.2232,4.3645,4.5419,4.9057,5.0899,5.2257,5.5502,5.8015,6.0047,6.1789,6.31,6.457,6.6989,6.7739,6.78,6.7391,6.5942,6.3245,5.8103,5.4503,5.0729,4.5334,4.2654,4.1146,4.07,4.1794,4.4581,5.0079,5.2345,5.5354,6.0964,6.1893,6.2376,6.349,6.3602,6.3082,6.1744,6.1484,6.1038,6.0184,5.7881,5.6469,5.632,5.637,5.5853,5.4661,5.3837,5.3406,5.3406,5.2211,5.2011,5.2791,5.2258,5.2373,5.2973,5.1737,5.1107,5.096,5.0113,0.0,4.9432,4.8651,4.7791,4.6855,4.6036,4.5318,4.465,4.465,4.4688,4.4763,0.0,0.0,0.0,0.0,0.0,0.0,0.0,4.0937,4.1211,4.1211,4.1211,4.117,4.1112,4.1121,4.1104,0.0,0.0,0.0,0.0,0.0,0.0,0.0,3.9887,4.012,4.012,4.012,4.012,4.012,0.0,4.0584,4.012,4.0584,4.0545,4.0158,4.0584,4.0545,4.0158,4.0623,4.0765,4.0746,4.0746,4.0739,4.0688,0.0,0.0,0.0,4.1559,4.288,4.4624,4.7259,4.9952,5.305,5.7787,6.086,6.2994,6.4465,6.5624,6.6825,6.8484,6.9375,6.9658,6.8607,6.657,6.3068,5.6394,5.2043,4.7857,4.2344,4.0352,3.9835,4.0629,4.2093,4.4505,4.8549,5.1174,5.413,5.8177,6.012,6.1596,6.2822,6.297,6.2673,6.1893,6.1447,6.1108,6.0852,5.9378,5.8088,5.7229,5.6226,5.5605,5.5451,5.4503,5.3972,5.3972,5.257,5.2059,5.2365,5.2196,5.2537,5.3292,5.2664,5.2213,5.1891,5.1091,0.0,5.0011,4.9182,4.8538,4.7922,4.663,4.5884,4.5468,4.5038,4.4908,4.5011,0.0,0.0,0.0,0.0,0.0,0.0,0.0,4.0976,4.1211,4.1211,4.1211,4.1169,4.1101,4.1104,4.1035,0.0,0.0,0.0,0.0,0.0,0.0,0.0,0.0,0.0,3.9771,0.0,0.0,3.9771,4.0468,0.0,0.0,0.0,0.0,0.0,4.0313,4.0236,3.981,4.0313,4.0623,0.0,0.0,4.0816,4.0816,0.0,0.0,0.0,0.0,4.1767,4.3458,4.4963,4.8205,5.2441,5.7313,6.0993,6.3719,6.498,6.6415,6.7876,6.9303,7.0422,7.091,6.9738,6.6955,6.2591,5.5052,5.039,4.5999,4.0106,3.8912,3.9433,4.1048,4.2113,4.3679,4.673,4.8897,5.1448,5.5013,5.7697,6.0136,6.2358,6.279,6.2753,6.2396,6.1799,6.1364,6.1281,6.0602,5.9621,5.8302,5.6109,5.5318,5.6188,5.518,5.4643,5.4643,5.2916,5.2115,5.2253,5.2199,5.2658,5.3608,5.3577,5.3264,5.2759,5.182,0.0,0.0,4.9537,4.9071,4.8754,4.7417,4.6697,4.6309,4.5611,4.5316,4.5313,0.0,0.0,0.0,0.0,0.0,0.0,0.0,4.0195,4.1211,4.1211,4.1211,4.1166,4.1014,4.1048,4.1035,0.0,0.0,0.0,0.0,0.0,0.0,0.0,0.0,0.0,0.0,0.0,0.0,4.07,4.0777,0.0,0.0,0.0,0.0,0.0,0.0,4.0004,4.0623,3.9926,0.0,0.0,0.0,0.0,0.0,0.0,0.0,0.0,0.0,4.1848,4.3427,4.4394,4.7023,5.0155,5.1432,5.6136,6.1158,6.093,6.4207,6.8304,7.0393,7.1024,7.089,7.0073,6.6764,6.1742,5.4224,5.0619,4.7139,4.1026,3.9909,4.0502,4.1942,4.1075,4.1707,4.6428,4.615,4.7813,5.4881,5.6755,5.8925,6.2909,6.4024,6.3873,6.2359,6.2132,6.1489,6.0013,5.9429,5.9059,5.8935,5.6572,5.5759,5.6867,5.5056,5.4065,5.4065,5.2167,5.1602,5.2365,5.1903,5.2506,5.4046,5.3549,5.3302,5.3167,5.1556,5.0824,0.0,4.9821,4.9465,4.9418,4.9264,4.8262,4.6904,4.6827,4.6334,4.5648,0.0,0.0,0.0,0.0,0.0,0.0,3.9297,4.043,4.1211,4.1211,4.1211,4.1169,4.1053,4.106,4.1035,4.0926,0.0,0.0,0.0,0.0,0.0,0.0,0.0,0.0,0.0,0.0,4.0274,4.0816,4.0816,0.0,0.0,0.0,0.0,0.0,0.0,4.0197,4.0042,4.0197,0.0,0.0,0.0,0.0,0.0,0.0,0.0,0.0,0.0,0.0,4.1854,4.2202,4.3904,4.5722,4.5026,4.84,5.3374,5.733,6.1781,6.596,6.8622,7.1012,7.2395,7.0846,6.6992,6.1721,5.4622,4.9913,4.576,4.1264,3.9999,4.0053,4.1067,4.0734,4.0937,4.2919,4.3351,4.5171,5.0202,5.2343,5.5359,6.0594,6.1481,6.1839,6.2159,6.2264,6.1939,6.1,6.047,5.9953,5.9465,5.7447,5.6767,5.7742,5.6044,5.5089,5.5089,5.3305,5.2094,5.1453,5.1739,5.2241,5.2915,5.3157,5.305,5.2548,5.188,5.1318,0.0,5.0494,5.0347,5.0278,4.9814,4.918,4.8499,4.7959,4.7209,4.6499,0.0,0.0,0.0,0.0,0.0,3.8516,3.9375,4.0469,4.1211,4.1211,4.1211,4.117,4.1112,4.1109,4.1046,4.096,4.0907,0.0,0.0,0.0,0.0,0.0,0.0,0.0,0.0,0.0,4.0197,4.0816,4.0816,4.0816,0.0,0.0,4.0468,3.9887,0.0,0.0,0.0,0.0,0.0,0.0,0.0,0.0,0.0,0.0,0.0,0.0,0.0,0.0,0.0,0.0,0.0,4.2357,4.1164,4.2828,4.6419,5.2492,5.8023,6.2829,6.5685,6.9366,7.2059,7.0581,6.614,6.0568,5.477,4.9258,4.4484,4.1303,4.0184,3.9946,4.0518,4.0605,4.0583,4.0583,4.1404,4.3187,4.6574,4.9029,5.2195,5.6854,5.8125,5.9244,6.0912,6.1635,6.1945,6.185,6.1065,6.0226,5.9367,5.834,5.7835,5.7978,5.6596,5.5845,5.5835,5.415,5.2711,5.1571,5.1678,5.188,5.2159,5.27,5.2661,5.2129,5.1846,5.1283,0.0,5.0542,5.055,5.0511,5.0163,4.9877,4.9544,4.8933,4.8176,4.738,0.0,0.0,0.0,0.0,0.0,0.0,3.8476,4.0078,4.1211,4.1211,4.1211,4.117,4.1112,4.1109,4.1109,4.1108,4.1028,0.0,0.0,0.0,0.0,0.0,0.0,0.0,0.0,0.0,4.0777,4.0816,4.0816,4.0816,4.0816,4.0816,4.0816,4.0739,0.0,0.0,0.0,0.0,0.0,0.0,0.0,0.0,0.0,0.0,0.0,0.0,0.0,0.0,0.0,0.0,0.0,0.0,0.0,4.0816,4.1706,4.5955,5.2647,5.9223,6.1766,6.5595,6.8854,6.8844,6.371,5.7753,5.4271,4.8894,4.3852,4.1228,4.0681,4.0668,4.0602,4.0595,4.0595,4.0595,4.0626,4.1822,4.524,4.7902,5.0138,5.1894,5.4371,5.6608,5.8276,5.9984,6.1345,6.2116,6.0661,5.9338,5.8441,5.9223,5.8914,5.7245,5.6358,5.5895,5.5895,5.4168,5.3308,5.3353,5.1691,5.1369,5.2182,5.2221,5.2221,5.2144,5.1285,5.0473,0.0,4.9707,4.9707,4.9784,5.0589,5.0395,4.9707,4.9707,4.9126,4.8275,0.0,0.0,0.0,0.0,0.0,0.0,0.0,4.0469,4.1172,4.1132,4.1172,4.1171,4.1127,4.1129,4.1169,4.1169,4.1087,0.0,0.0,0.0,0.0,0.0,0.0,0.0,0.0,0.0,4.0816,4.0816,4.0816,4.0816,4.0816,4.0816,4.0816,4.0777,4.0507,4.0545,0.0,0.0,0.0,0.0,0.0,0.0,4.0816,0.0,0.0,0.0,0.0,0.0,0.0,0.0,0.0,0.0,0.0,0.0,0.0,4.2402,4.7424,5.3072,5.5625,5.8565,6.0954,6.0954,5.7095,5.2763,5.0519,4.6264,4.2428,4.1068,4.0294,4.0062,4.063,4.0681,4.0854,4.1472,4.1033,4.1591,4.44,4.7031,5.0156,5.4198,5.8981,6.2436,6.3559,6.3145,6.2895,6.3196,6.2191,6.0645,5.8635,5.937,5.9264,5.8065,5.7786,5.7381,5.6802,5.5139,5.3735,5.2553,5.1423,5.1045,5.1331,5.1331,5.1331,5.1293,5.1014,0.0,0.0,4.9707,4.9707,4.9745,4.9977,5.0241,5.0511,5.0511,5.0016,4.9243,0.0,0.0,0.0,0.0,0.0,0.0,0.0,4.0429,4.1132,4.1091,4.1131,4.1132,4.1091,4.1131,4.1171,4.1171,4.107,0.0,0.0,0.0,0.0,0.0,0.0,0.0,4.0848,4.0802,4.0816,4.0816,4.0816,4.0816,4.0816,4.0816,4.0816,4.0816,4.0816,4.0816,0.0,0.0,0.0,0.0,0.0,0.0,4.0816,0.0,0.0,0.0,0.0,0.0,0.0,0.0,0.0,0.0,0.0,0.0,0.0,0.0,4.3634,4.7502,5.0712,5.3923,5.6437,5.6738,5.3605,5.0016,4.8314,4.4601,4.1235,4.0075,3.9655,3.9655,4.0197,4.0526,4.0933,4.1474,4.1074,4.1324,4.3248,4.5997,4.9512,5.3992,5.9514,6.305,6.3273,6.3505,6.368,6.371,6.2317,6.0615,5.869,5.9416,5.9466,5.851,5.8191,5.7476,5.6307,5.4951,5.3614,5.219,5.1331,5.0898,5.0898,5.0898,5.0898,5.0898,5.0898,0.0,0.0,4.9707,4.9513,4.9243,4.9591,5.0016,5.0473,5.0782,5.0589,5.0132,0.0,0.0,0.0,0.0,0.0,0.0,0.0,3.9916,4.0931,4.1009,4.1009,4.1048,4.1087,4.1087,4.1087,4.1087,0.0,0.0,0.0,0.0,0.0,0.0,0.0,0.0,4.0917,4.0859,4.0802,4.0802,4.0879,4.0879,4.0879,4.0963,4.0963,4.0879,4.0879,4.0879,0.0,0.0,0.0,0.0,0.0,0.0,0.0,0.0,0.0,0.0,0.0,0.0,0.0,0.0,0.0,0.0,0.0,0.0,0.0,0.0,0.0,0.0,0.0,5.0844,5.4078,5.4813,5.2028,4.8662,4.7076,4.3602,0.0,3.8721,3.8992,3.9501,3.9578,4.0236,4.0816,4.0893,4.0855,4.1087,4.197,4.5297,4.8933,5.2345,5.725,5.9957,5.8952,6.1862,6.3758,6.3642,6.135,5.9609,5.8729,5.9455,5.9455,5.8526,5.7791,5.6631,5.5006,5.4,5.3072,5.219,5.1331,5.0898,5.0898,5.0898,5.0898,0.0,5.0898,0.0,0.0,4.9629,4.9126,4.8469,4.9204,4.9552,4.9707,5.0434,5.0705,5.0627,0.0,0.0,0.0,0.0,0.0,0.0,0.0,0.0,0.0,0.0,4.0187,4.0422,4.1043,4.1086,4.1087,0.0,0.0,0.0,0.0,0.0,0.0,0.0,0.0,0.0,4.091,4.0941,4.0941,4.0941,4.1568,4.1879,4.1879,4.2549,4.2506,4.1879,4.1879,4.1529,0.0,0.0,0.0,0.0,0.0,0.0,0.0,0.0,0.0,0.0,4.0941,4.0941,0.0,0.0,0.0,0.0,0.0,0.0,0.0,0.0,4.1024,4.151,4.3212,0.0,4.5065,4.5258,4.4098,4.2937,0.0,4.1435,3.9887,4.0158,3.981,3.9694,4.0352,4.0661,4.1009,4.1622,4.1203,4.1313,4.2783,4.8778,5.4271,5.7675,6.2008,6.3864,6.1737,6.3439,6.4135,6.282,6.1543,6.046,5.9648,5.9803,5.9184,5.7637,5.8062,5.7791,5.6699,5.4581,5.3072,5.219,5.1331,5.0898,5.0898,5.0898,5.0898,5.0898,0.0,0.0,4.9668,4.8972,4.8585,4.8353,4.7889,4.8121,4.874,4.8933,4.901,4.9049,0.0,0.0,0.0,0.0,0.0,0.0,0.0,0.0,0.0,0.0,0.0,4.018,4.0998,4.1117,0.0,0.0,0.0,0.0,0.0,0.0,0.0,0.0,0.0,4.103,4.0986,4.1003,4.1188,4.1539,4.201,4.24,4.2792,4.287,4.2637,4.2166,4.1815,4.1422,0.0,0.0,0.0,0.0,4.099,0.0,0.0,0.0,0.0,0.0,4.099,4.099,0.0,4.1419,4.1279,4.1007,0.0,0.0,0.0,0.0,4.0929,4.1058,4.1526,4.2178,4.2762,4.3189,4.2956,4.2529,4.218,4.1092,4.0082,3.9776,3.966,3.9737,4.0199,4.0892,4.1419,4.1543,4.2398,4.4105,4.696,5.1989,5.6476,5.9532,6.2588,6.4058,6.3091,6.3478,6.3439,6.2472,6.0886,5.9764,5.9339,5.8913,5.8255,5.7318,5.7366,5.6824,5.5586,5.4194,5.284,5.1602,5.113,5.0898,5.0898,5.0898,5.0898,5.0898,0.0,0.0,5.021,4.9359,4.8778,4.8353,4.7889,4.7734,4.785,4.8237,4.8662,4.9049,0.0,0.0,0.0,0.0,0.0,0.0,0.0,0.0,0.0,0.0,0.0,0.0,0.0,0.0,0.0,0.0,0.0,0.0,0.0,0.0,0.0,0.0,4.1126,4.1115,4.1114,4.1042,4.1373,4.2036,4.2312,4.2819,4.3524,4.29,4.2507,4.2195,4.1373,4.102,0.0,0.0,0.0,0.0,4.102,0.0,0.0,0.0,0.0,0.0,0.0,0.0,0.0,4.1839,4.1599,4.1123,4.1824,0.0,0.0,0.0,0.0,0.0,4.1176,4.2426,4.3827,4.4153,4.4302,4.3991,4.24,4.15,4.0565,3.9093,3.9483,4.0136,4.0241,4.1617,4.2515,4.1996,4.4661,4.8167,5.2221,5.5084,5.7598,5.9803,6.1698,6.2936,6.3255,6.2743,6.2278,6.2046,5.988,5.8613,5.8613,5.7907,5.7434,5.728,5.6583,5.5316,5.3536,5.3382,5.2569,5.1091,5.0975,5.0898,5.0898,5.0898,5.0898,5.0898,0.0,0.0,5.0821,5.0016,4.9204,4.8392,4.8237,4.7657,4.6999,4.7734,4.8469,4.9126,0.0,0.0,0.0,0.0,0.0,0.0,0.0,0.0,0.0,0.0,0.0,0.0,0.0,0.0,0.0,0.0,0.0,0.0,0.0,0.0,0.0,4.1092,4.1171,4.1171,4.109,4.1169,4.1247,4.1365,4.2771,4.3552,4.367,4.4295,4.3787,4.2341,4.1521,4.1169,4.1169,0.0,0.0,0.0,4.1169,0.0,0.0,0.0,0.0,0.0,0.0,0.0,0.0,4.1326,4.1238,4.1101,4.1218,0.0,0.0,0.0,0.0,0.0,4.1987,4.3435,4.4249,4.2111,4.2085,4.2361,4.1383,4.1107,4.0912,4.0643,4.1269,4.2029,4.2723,4.4253,4.5581,4.6067,4.9001,5.2182,5.5006,5.8255,6.046,6.0886,6.3091,6.3787,6.1698,6.2046,6.1814,6.0383,5.9223,5.8613,5.8613,5.8449,5.8062,5.7318,5.7164,5.5935,5.3536,5.2763,5.2268,5.1989,5.1254,5.0898,5.0898,5.0898,5.0898,5.0898,0.0,5.0898,5.0821,5.0016,4.9204,4.8314,4.7579,4.6767,4.6039,4.6155,4.6271,4.6503,0.0,0.0,0.0,0.0,0.0,0.0,0.0,0.0,0.0,0.0,0.0,0.0,0.0,0.0,0.0,0.0,0.0,0.0,0.0,0.0,4.1087,4.1087,4.1171,4.1172,4.1132,4.1601,4.2305,4.3242,4.4492,4.5351,4.5781,4.4766,4.3633,4.2344,4.1562,4.1211,4.1211,4.1211,4.1211,0.0,0.0,0.0,0.0,0.0,0.0,0.0,0.0,0.0,0.0,0.0,4.1171,4.1167,4.1167,0.0,0.0,0.0,0.0,0.0,4.164,4.2656,4.3632,4.3814,4.4512,4.5019,4.4668,4.4198,4.3729,4.3261,4.3456,4.3842,4.4209,4.6056,4.8663,5.2202,5.374,5.5579,5.8557,6.0257,6.1546,6.2438,6.2778,6.2781,6.2511,6.2008,6.1389,6.0615,5.9764,5.93,5.93,5.841,5.7714,5.7318,5.6854,5.5818,5.4233,5.3343,5.2414,5.1486,5.1091,5.0898,5.0898,5.0898,5.0898,5.0898,0.0,5.0898,5.0821,5.0016,4.9204,4.8314,4.7424,4.6581,4.5845,4.6348,4.6503,4.6619,0.0,0.0,0.0,0.0,0.0,0.0,0.0,0.0,0.0,0.0,0.0,0.0,0.0,0.0,0.0,0.0,0.0,0.0,0.0,4.1083,4.1087,4.1083,4.1171,4.1289,4.1484,4.2266,4.3476,4.5,4.6094,4.6953,4.7539,4.4922,4.3359,4.2656,4.1641,4.1211,4.1211,4.1211,4.1211,0.0,0.0,0.0,0.0,0.0,0.0,0.0,0.0,0.0,0.0,0.0,0.0,0.0,0.0,0.0,0.0,4.1211,4.1211,4.125,4.1445,4.207,4.3242,4.543,4.6641,4.7578,4.8555,4.8125,4.7344,4.6914,4.6953,4.7031,4.6834,4.8849,5.2169,5.7116,5.7928,5.8991,6.1985,6.2485,6.3035,6.4318,6.3045,6.2538,6.3654,6.2375,6.1289,6.0901,6.032,5.9777,5.939,5.8304,5.749,5.7095,5.6405,5.559,5.4583,5.3691,5.2685,5.1478,5.1091,5.1014,5.1215,5.0975,5.0898,5.0898,5.0898,5.0898,5.0859,5.0241,4.9475,4.8624,4.7966,4.7192,4.6464,4.6922,4.7231,4.7463,0.0,0.0,0.0,0.0,0.0,0.0,0.0,0.0,0.0,0.0,0.0,0.0,0.0,0.0,0.0,0.0,0.0,0.0,0.0,4.1085,4.1089,4.1091,4.1171,4.1562,4.2303,4.3164,4.4062,4.5,4.668,4.7539,4.7539,4.4922,4.3672,4.3555,4.1914,4.1211,4.1211,4.1211,4.1211,4.1211,4.1211,0.0,0.0,0.0,0.0,0.0,0.0,0.0,0.0,0.0,0.0,0.0,0.0,0.0,4.1211,4.1211,4.1211,4.1367,4.2109,4.2969,4.3867,4.4844,4.5742,4.7422,5.1445,5.1641,5.125,5.1992,5.2773,5.3085,5.2205,5.4069,5.6437,5.8455,6.0759,6.2907,6.4768,6.5694,6.6268,6.6385,6.5567,6.4743,6.4037,6.3146,6.1943,6.0385,6.0229,5.9489,5.7853,5.8394,5.8043,5.6407,5.6329,5.5511,5.3909,5.3018,5.2803,5.3304,5.1679,5.1331,5.2066,5.1254,5.0898,5.0898,5.0898,5.0898,5.0898,5.0821,5.0318,4.9591,4.9552,4.8972,4.8121,4.7386,4.7618,4.8198,0.0,0.0,0.0,0.0,0.0,0.0,0.0,0.0,0.0,0.0,0.0,0.0,0.0,0.0,0.0,0.0,0.0,0.0,0.0,4.0814,4.109,4.109,4.164,4.2343,4.3201,4.4062,4.5469,4.7422,4.8633,4.9219,4.9141,4.5976,4.4219,4.3633,4.2461,4.1953,4.1953,4.1953,4.1953,4.1914,4.1406,0.0,0.0,0.0,0.0,0.0,0.0,0.0,0.0,0.0,4.1211,4.1211,4.1211,4.1211,4.1211,4.1211,4.1211,4.1289,4.1562,4.3047,4.5117,4.7617,4.8476,4.9414,5.2109,5.3711,5.457,5.4375,5.543,5.6328,5.5973,5.7098,5.8849,6.1074,6.2714,6.4316,6.6032,6.6514,6.6642,6.6642,6.5385,6.4374,6.4023,6.2737,6.1646,6.0988,6.0949,6.0677,6.0014,5.9269,5.8607,5.7944,5.6858,5.5723,5.4554,5.3736,5.3428,5.3658,5.1903,5.1242,5.1553,5.1242,5.1047,5.1004,5.1004,5.1004,5.0966,5.0429,5.0041,4.9692,4.9155,4.9078,4.9155,4.8302,4.8185,4.8406,0.0,0.0,0.0,0.0,0.0,0.0,0.0,0.0,0.0,0.0,0.0,0.0,0.0,0.0,0.0,0.0,0.0,0.0,3.9482,3.9996,4.0427,4.07,4.1289,4.2383,4.4061,4.4961,4.668,4.9297,5.0156,5.0469,5.0117,4.6914,4.5234,4.4883,4.3437,4.2969,4.3164,4.2617,4.2383,4.2344,4.1523,4.1211,0.0,0.0,0.0,0.0,0.0,0.0,0.0,0.0,4.1211,4.1211,4.1211,4.1211,4.1211,4.1211,4.1211,4.1211,4.1211,4.3047,4.5586,4.7969,5.0,5.1914,5.3906,5.5742,5.7148,5.7617,5.8242,5.8672,5.8672,5.918,6.0234,6.2265,6.3789,6.5234,6.668,6.683,6.6777,6.6777,6.5421,6.4418,6.4106,6.2779,6.1804,6.153,6.1491,6.1257,6.075,5.9619,5.8721,5.8175,5.6731,5.5561,5.4702,5.3883,5.3295,5.3022,5.1815,5.1405,5.1589,5.1316,5.117,5.1141,5.1141,5.1141,5.1102,5.048,5.0252,5.0174,4.9591,4.9707,5.0135,4.9246,4.9129,4.9308,0.0,0.0,0.0,0.0,0.0,0.0,0.0,0.0,0.0,0.0,0.0,0.0,0.0,0.0,0.0,0.0,0.0,0.0,3.8587,3.859,3.8983,3.9883,3.9922,4.1523,4.4922,4.5859,4.7617,5.0234,5.1016,5.0976,5.0156,4.7539,4.6758,4.7461,4.4844,4.418,4.4844,4.3125,4.2383,4.2344,4.1523,4.1211,4.1211,0.0,0.0,0.0,0.0,0.0,0.0,0.0,4.1211,4.1211,4.1211,4.1211,4.1211,4.1211,4.1211,4.125,4.125,4.3125,4.5078,4.5078,4.9609,5.4726,5.7344,5.793,5.8867,6.2305,6.1601,6.043,6.043,6.043,6.0703,6.1562,6.3906,6.5898,6.6797,6.6914,6.6914,6.6875,6.6133,6.5234,6.4375,6.3515,6.2617,6.1758,6.168,6.0976,5.9297,5.9219,5.8398,5.668,5.5781,5.4883,5.4023,5.3164,5.2266,5.1406,5.1406,5.178,5.2442,5.1593,5.1203,5.1203,5.1203,5.1203,5.1203,5.1203,5.1203,5.1203,5.1203,5.1203,5.1125,5.0233,5.0466,5.1086,0.0,0.0,0.0,0.0,0.0,0.0,0.0,0.0,0.0,0.0,0.0,0.0,0.0,0.0,0.0,0.0,0.0,0.0,3.7693,3.8241,3.9218,4.061,4.1274,4.2642,4.4869,4.6443,4.8789,5.1953,5.1016,5.043,5.0156,4.8164,4.6367,4.4844,4.4687,4.4062,4.3125,4.2617,4.2383,4.2344,4.1523,4.1211,4.1211,0.0,0.0,0.0,0.0,0.0,0.0,0.0,0.0,0.0,4.1211,4.1601,4.1914,4.1367,4.2891,4.4648,4.4023,4.707,5.0547,5.1172,5.3594,5.6484,5.9062,5.9219,5.9453,6.164,6.2148,6.2226,6.2226,6.2734,6.3242,6.3476,6.4687,6.5898,6.6797,6.6914,6.668,6.6055,6.5234,6.4336,6.3476,6.2617,6.1992,6.1719,6.1133,6.0586,6.0078,5.8945,5.8047,5.7539,5.668,5.6094,5.582,5.4375,5.3476,5.3203,5.1992,5.1522,5.1706,5.1473,5.1306,5.1274,5.1274,5.1274,5.1274,5.1274,5.1625,5.213,5.1508,5.1625,5.2091,5.1196,5.1043,5.123,0.0,0.0,0.0,0.0,0.0,0.0,0.0,0.0,0.0,0.0,0.0,0.0,0.0,0.0,0.0,0.0,0.0,0.0,0.0,3.7726,3.8927,4.0948,4.1534,4.2785,4.4857,4.662,4.8344,5.0065,4.9452,4.8828,4.8125,4.8125,4.7109,4.5273,4.613,4.574,4.4414,4.3318,4.2889,4.2851,4.1992,4.168,4.168,0.0,0.0,0.0,0.0,0.0,0.0,0.0,0.0,0.0,4.1211,4.1289,4.1445,4.1601,4.3398,4.5312,4.5469,4.9297,5.3437,5.4297,5.6601,5.9023,6.0586,6.1328,6.2148,6.3476,6.3906,6.4023,6.4023,6.418,6.4414,6.4765,6.5547,6.6289,6.6836,6.6914,6.6562,6.5703,6.4844,6.3945,6.3086,6.2226,6.1562,6.1211,6.0703,6.0117,5.9453,5.8437,5.7734,5.7383,5.6211,5.5742,5.6094,5.4023,5.3125,5.3476,5.207,5.1406,5.1406,5.1406,5.1366,5.1356,5.1356,5.1356,5.1356,5.1356,5.1667,5.2057,5.155,5.1667,5.2057,5.1511,5.1356,5.1315,0.0,0.0,0.0,0.0,0.0,0.0,0.0,0.0,0.0,0.0,3.9085,0.0,0.0,0.0,0.0,0.0,0.0,0.0,0.0,3.7203,3.8363,4.0941,4.1293,4.2582,4.5045,4.6368,4.6693,4.5962,4.69,4.6562,4.5155,4.7538,4.8202,4.7499,4.8224,4.8071,4.7069,4.4551,4.3499,4.3476,4.2616,4.2343,4.2499,4.2343,0.0,0.0,0.0,0.0,0.0,0.0,0.0,0.0,4.1172,4.0703,4.039,4.1875,4.3086,4.4336,4.6172,5.0312,5.4414,5.5586,5.8984,6.2109,6.2265,6.414,6.5937,6.6328,6.6055,6.5703,6.5625,6.5039,6.4805,6.5586,6.6367,6.6914,6.6914,6.6836,6.6445,6.5586,6.4726,6.3828,6.2969,6.2148,6.1328,6.0469,6.0312,5.9609,5.8008,5.7812,5.7383,5.6523,5.4922,5.4453,5.5156,5.2812,5.2031,5.2812,5.2031,5.1601,5.1523,5.1523,5.1523,5.1523,5.1445,5.1406,5.1406,5.1406,5.1406,5.1406,5.1406,5.1406,5.1406,5.1406,5.1406,5.1406,0.0,0.0,0.0,0.0,0.0,0.0,0.0,0.0,0.0,0.0,0.0,0.0,0.0,0.0,0.0,0.0,0.0,0.0,0.0,3.7756,3.8935,4.08,4.2827,4.4816,4.6644,4.5141,4.4582,4.5085,4.5318,4.5567,4.5877,4.6426,4.6616,4.6446,4.6596,4.5816,4.4304,4.3044,4.2501,4.2434,4.1615,4.2081,4.3131,4.181,4.1576,0.0,0.0,0.0,0.0,0.0,0.0,0.0,4.1111,4.1431,4.1747,4.1523,4.3476,4.6289,4.8711,5.2148,5.5859,5.9453,6.2578,6.5117,6.6484,6.7226,6.6719,6.3476,6.4844,6.6406,6.5742,6.6015,6.6406,6.6601,6.6797,6.6914,6.6914,6.6328,6.5547,6.4687,6.3828,6.293,6.207,6.1797,6.1328,6.0469,5.9805,5.8984,5.7969,5.7265,5.6484,5.5625,5.5234,5.4765,5.4297,5.3711,5.3516,0.0,5.3516,5.3086,5.2422,5.2422,5.2422,5.2383,5.1719,5.1406,5.1406,5.1406,5.1406,5.1406,5.1406,5.1406,5.1406,5.1406,5.1406,5.1406,0.0,0.0,0.0,0.0,0.0,0.0,0.0,0.0,0.0,0.0,0.0,0.0,0.0,0.0,0.0,0.0,0.0,0.0,0.0,0.0,3.966,4.1369,4.3549,4.4715,4.4758,4.3865,4.3404,4.3481,4.3452,4.3929,4.4894,4.6148,4.6495,4.613,4.6921,4.5835,4.3484,4.2973,4.2323,4.162,4.1578,4.2085,4.2744,4.1464,4.1266,4.1536,4.0682,0.0,0.0,0.0,0.0,0.0,0.0,0.0,4.1122,4.1573,4.3259,4.5724,4.9212,5.2964,5.7106,6.2265,6.4922,6.6445,6.7383,6.7578,6.6914,6.4648,6.5976,6.7265,6.6367,6.6601,6.6914,6.6914,6.6562,6.6406,6.6836,6.5781,6.4805,6.4336,6.3515,6.2656,6.1797,6.1328,6.0742,5.9883,5.9062,5.8203,5.7305,5.6836,5.6211,5.5312,5.4883,5.4453,5.3984,5.3594,5.3594,5.3984,5.3984,5.3984,5.3906,5.2656,5.2539,5.3242,5.1953,5.1641,5.1992,5.1562,5.1406,5.1445,5.1875,5.1758,5.1445,5.1875,5.1758,5.1406,0.0,0.0,0.0,0.0,0.0,0.0,0.0,0.0,0.0,0.0,0.0,0.0,0.0,0.0,0.0,0.0,0.0,0.0,0.0,0.0,0.0,4.2247,4.3523,4.3718,4.2558,4.2878,4.286,4.2434,4.2318,4.2887,4.4175,4.6056,4.6683,4.6325,4.7504,4.6426,4.3685,4.3321,4.2325,4.1006,4.1548,4.1894,4.2089,4.1279,4.1038,4.1069,4.022,4.0333,4.0953,4.0953,0.0,0.0,0.0,0.0,4.0142,4.1565,4.2471,4.3971,4.824,5.3061,5.8308,6.3945,6.6133,6.6914,6.6914,6.6914,6.6914,6.6914,6.7461,6.7773,6.7031,6.6914,6.6914,6.6914,6.6289,6.6015,6.6601,6.5312,6.4258,6.4101,6.332,6.2422,6.1562,6.082,6.0,5.9062,5.832,5.7461,5.6445,5.6367,5.5898,5.4883,5.4141,5.3711,5.3555,5.3125,5.3281,5.3984,5.4141,5.4687,5.543,5.2969,5.2656,5.3906,5.2148,5.1797,5.2422,5.1719,5.1406,5.1484,5.2187,5.2031,5.1484,5.2226,5.2031,5.1406,0.0,0.0,0.0,0.0,0.0,0.0,0.0,0.0,0.0,0.0,3.666,3.71,0.0,0.0,0.0,0.0,0.0,0.0,0.0,0.0,0.0,4.3079,4.2654,4.2963,4.4241,4.2905,4.286,4.4246,4.3518,4.4311,4.659,4.5506,4.5706,4.6945,4.639,4.5538,4.4344,4.2815,4.1659,4.0754,4.0134,4.0715,4.1949,4.1135,4.1251,4.1749,4.0942,4.0748,4.0825,4.0825,4.0808,0.0,0.0,0.0,4.0607,4.0882,4.1062,4.1965,4.5581,5.2478,5.959,6.3515,6.5703,6.6914,6.6914,6.6914,6.6914,6.6914,6.6992,6.7031,6.6914,6.6914,6.6914,6.6914,6.6797,6.6484,6.5859,6.4922,6.4023,6.3242,6.2383,6.1523,6.0664,6.0469,5.9765,5.8203,5.7969,5.7187,5.5547,5.5469,5.4726,5.3086,5.293,5.25,5.1758,5.3125,5.3867,5.4023,5.4765,5.5586,5.6367,5.4492,5.3789,5.3906,5.2148,5.1484,5.1562,5.1445,5.1406,5.1406,5.1523,5.1484,5.1406,5.1523,5.1484,5.1406,0.0,0.0,0.0,0.0,0.0,0.0,0.0,0.0,0.0,0.0,0.0,3.7796,0.0,0.0,0.0,3.892,3.9733,4.0236,0.0,0.0,0.0,4.1854,4.1545,4.1467,4.1738,4.1009,4.1429,4.3131,4.2318,4.3943,4.7811,4.6573,4.6651,4.7773,4.6922,4.5529,4.3827,4.3053,4.1699,4.0081,4.0197,4.0932,4.1854,4.0545,4.0855,4.1816,4.0545,4.0378,4.0746,4.0746,4.0681,4.0661,4.0687,0.0,0.0,0.0,4.0688,4.1779,4.6826,5.2422,5.7901,6.2455,6.4529,6.57,6.6676,6.6912,6.6913,6.6913,6.6914,6.6914,6.6914,6.6914,6.6914,6.6914,6.6094,6.5469,6.5586,6.4023,6.289,6.3008,6.2226,6.1562,6.1172,6.0273,5.9609,5.9336,5.7539,5.6328,5.6055,5.5117,5.4219,5.3437,5.3437,5.3242,5.2851,5.4101,5.4961,5.5469,5.5859,5.6211,5.6562,5.5312,5.4726,5.4648,5.2891,5.2148,5.2148,5.2148,5.1836,5.1484,5.2461,5.2266,5.1445,5.1953,5.2148,5.2148,0.0,0.0,0.0,0.0,0.0,0.0,0.0,0.0,0.0,0.0,0.0,0.0,0.0,0.0,0.0,0.0,4.0429,4.0816,4.0816,0.0,0.0,4.0816,4.0816,4.039,3.9501,3.9733,4.0429,4.1699,4.1313,4.3595,4.8392,4.7734,4.8237,4.9629,4.8353,4.6573,4.4523,4.3672,4.2202,4.0507,4.07,4.1164,4.1622,4.0777,4.1229,4.2112,4.0642,4.0507,4.097,4.0745,4.0647,4.0612,4.0612,4.0574,0.0,0.0,0.0,4.1724,4.7082,5.0922,5.4612,5.9704,6.2132,6.3813,6.5809,6.6399,6.6637,6.6832,6.6912,6.6913,6.6914,6.6914,6.6836,6.6601,6.5469,6.4687,6.4922,6.3242,6.2187,6.2617,6.2109,6.1601,6.1406,6.0234,5.9687,6.0078,5.7734,5.6484,5.6914,5.5508,5.457,5.4336,5.4101,5.3984,5.3984,5.4844,5.5742,5.6601,5.6601,5.6601,5.6562,5.5937,5.5508,5.5195,5.3476,5.2578,5.2383,5.2383,5.1992,5.1562,5.3086,5.2891,5.1836,5.2695,5.3047,5.3047,0.0,0.0,0.0,0.0,0.0,0.0,0.0,0.0,0.0,0.0,0.0,0.0,3.9458,4.0203,4.0739,4.0739,4.0777,4.0816,4.0816,4.0816,4.0816,4.0816,4.0816,0.0,3.9501,4.0313,4.0777,4.0855,4.1583,4.4136,4.8392,4.8353,5.0094,5.3111,5.0674,4.9049,4.7927,4.4678,4.3208,4.2976,4.1429,4.0816,4.1048,4.2512,4.3104,4.3038,4.2188,4.1851,4.1699,4.0865,4.0605,4.0607,4.0607,4.0546,4.0523,0.0,0.0,0.0,4.4014,4.6723,4.9837,5.4381,5.8038,6.121,6.3814,6.5069,6.5889,6.6747,6.6904,6.6906,6.6911,6.6913,6.664,6.5781,6.5586,6.4961,6.3359,6.3008,6.2656,6.1875,6.1719,6.1367,6.0547,6.039,6.0039,5.9336,5.9101,5.8672,5.7851,5.6953,5.6094,5.5273,5.4414,5.3984,5.3984,5.4844,5.5742,5.6601,5.6601,5.6601,5.6601,5.6562,5.6091,5.5193,5.3476,5.2226,5.1484,5.1484,5.1445,5.1484,5.2422,5.2695,5.2734,5.3594,5.3945,5.3945,0.0,0.0,0.0,0.0,0.0,0.0,0.0,0.0,0.0,0.0,0.0,0.0,0.0,4.1699,4.1583,4.1583,4.0584,4.0197,4.0777,4.0274,4.0468,4.1506,4.1087,4.0661,4.0352,4.0081,4.0236,4.0816,4.0545,4.2866,4.754,4.6999,4.8856,5.2569,5.0596,4.9204,4.8198,4.4755,4.2976,4.2396,4.1816,4.1893,4.2473,4.3027,4.3585,4.4073,4.4276,4.4353,4.4476,4.5208,4.4375,4.2956,4.2956,4.1485,3.9746,3.9746,3.9746,4.033,4.2996,4.4789,4.6828,5.0733,5.3875,5.6533,5.8628,6.152,6.3893,6.4205,6.5677,6.6747,6.6165,6.652,6.6796,6.6484,6.5508,6.4531,6.3906,6.2851,6.2031,6.1758,6.1719,6.1562,6.125,6.0742,6.0508,6.0781,5.9297,5.8242,5.793,5.6523,5.5625,5.5312,5.5,5.5117,5.5664,5.5976,5.6289,5.6601,5.6601,5.6601,5.6601,5.6597,5.6127,5.5267,5.4644,5.3863,5.3121,5.367,5.3554,5.3163,5.4023,5.4023,5.3555,5.3867,5.4336,5.4844,0.0,0.0,0.0,0.0,0.0,0.0,0.0,0.0,0.0,4.2516,0.0,0.0,0.0,0.0,4.2318,4.2048,4.0965,4.0468,4.0777,4.0274,4.0429,4.1545,4.1087,4.0661,4.0352,4.0081,4.0081,4.0352,4.0081,4.2247,4.6651,4.6078,4.7935,5.1679,5.0016,4.9436,4.9475,4.6651,4.4794,4.3672,4.3401,4.3634,4.4246,4.5363,4.5959,4.6283,4.7092,4.7204,4.7092,4.7901,4.6459,4.4316,4.4316,4.2008,3.9246,3.8938,3.9092,3.9699,4.1479,4.2742,4.4453,4.8021,5.0186,5.2257,5.5485,5.8749,6.135,6.2204,6.4328,6.5842,6.5259,6.5654,6.5932,6.5623,6.4609,6.375,6.3476,6.2422,6.1719,6.1719,6.1719,6.1719,6.1719,6.1172,6.1094,6.164,6.0117,0.0,5.918,5.7539,5.6328,5.5742,5.5742,5.6015,5.6601,5.6601,5.6601,5.6601,5.66,5.6599,5.6597,5.6593,5.6277,5.573,5.5727,5.5065,5.4053,5.4604,5.4527,5.4098,5.4959,5.496,5.4452,5.4764,5.5233,5.5741,0.0,0.0,0.0,0.0,0.0,0.0,0.0,0.0,4.353,4.353,0.0,0.0,0.0,0.0,0.0,4.2086,4.197,4.1622,4.0855,4.0777,4.0777,4.0816,4.0816,4.0429,3.9578,4.039,4.039,3.9578,4.0429,4.2518,4.5768,4.5845,4.7618,5.0705,4.9126,4.9745,5.192,5.021,4.8546,4.6999,4.6155,4.5845,4.6225,4.9613,5.0336,4.9684,5.0527,5.0288,4.9471,4.8625,4.6624,4.4432,4.4239,4.1931,3.913,3.8277,3.8623,3.9323,0.0,0.0,0.0,4.6025,4.6932,4.8528,5.4511,5.67,5.8211,6.085,6.2857,6.4184,6.4234,6.4275,6.3964,6.3114,6.2964,6.2693,6.1873,6.1718,6.1719,6.1719,6.1719,6.1719,6.1719,6.1719,6.1719,6.1719,6.1719,6.168,6.164,6.0078,5.8359,5.664,5.6601,5.6601,5.6601,5.6601,5.6601,5.6599,5.6599,5.6597,5.6592,5.6585,5.658,5.658,5.661,5.564,5.4092,5.4092,5.4092,5.417,5.499,5.5342,5.542,5.628,5.6593,5.6593,0.0,0.0,0.0,0.0,0.0,0.0,4.3359,4.3987,4.4458,0.0,0.0,0.0,4.511,4.4601,4.3634,4.2125,4.1467,4.1048,4.0816,4.0197,4.039,4.1622,4.1126,4.0971,4.1313,4.0971,4.0971,4.1313,4.1545,4.2783,4.4949,4.4949,4.6109,4.8159,4.8314,4.8082,4.747,4.5761,4.549,4.6155,4.5962,4.6619,4.7927,5.0085,5.1142,5.1636,5.2974,5.3696,5.4072,5.4416,5.2058,4.8057,4.3094,4.0516,3.9246,3.9015,3.913,3.9438,4.0015,0.0,0.0,0.0,0.0,0.0,4.7882,5.0259,5.3306,5.8431,6.0014,6.1062,6.3008,6.3364,6.3054,6.2197,6.2602,6.2924,6.2654,6.2108,6.1718,6.1719,6.1719,6.1719,6.1719,6.1719,6.1719,0.0,6.1719,6.1406,6.0781,5.918,5.7734,5.664,5.6601,5.6601,5.6601,5.6601,5.6601,5.6599,5.6597,5.6592,5.6585,5.6614,5.661,5.661,5.6606,5.6335,5.5872,5.5879,5.5882,5.5882,5.6161,5.6241,5.628,5.6515,5.6593,5.6593,0.0,0.0,0.0,0.0,0.0,4.4648,4.4297,4.5197,4.5748,0.0,0.0,0.0,4.5807,4.5722,4.4794,4.2705,4.2125,4.1545,4.0855,4.0313,4.0468,4.1467,4.1048,4.1164,4.197,4.1545,4.1545,4.2009,4.2009,4.2512,4.3518,4.3518,4.4214,4.5529,4.6032,4.5722,4.4678,4.3324,4.4369,4.6883,4.6929,4.8392,5.0712,5.2404,5.3353,5.4048,5.5972,5.6742,5.6904,5.7373,5.4965,5.0471,4.3316,4.12,4.1046,3.9277,3.9508,4.0277,4.0054,4.0516,4.1008,4.0893,0.0,0.0,4.5056,4.6855,4.942,5.4413,5.5864,5.6931,5.919,5.9623,5.9712,5.997,6.0732,6.1571,6.2334,6.2026,6.1716,6.1718,6.1718,6.1718,6.1719,6.1719,6.1719,6.1719,6.1719,6.1172,5.9961,5.8984,5.789,5.664,5.6601,5.6601,5.6601,5.6601,5.66,5.6597,5.6592,5.6585,5.6614,5.6608,5.6606,5.6606,5.6606,5.6606,5.6606,5.6612,5.6614,5.6616,5.6582,5.6584,5.6584,5.6584,5.6584,5.6584,0.0,0.0,4.3862,4.3982,4.5351,4.6211,4.5547,4.6566,4.7157,0.0,4.6202,4.6078,4.6078,4.6689,4.6148,4.3788,4.3401,4.2628,4.1048,4.0855,4.0855,4.0932,4.0932,4.1313,4.2125,4.2125,4.2125,4.2125,4.2125,4.2125,4.2125,4.2125,4.2512,4.3169,4.3169,4.3131,4.2976,4.2396,4.4523,4.8275,4.8469,5.0712,5.4116,5.5689,5.6337,5.6714,5.8906,5.9251,5.8505,5.7955,5.5717,5.1933,4.4654,4.3316,4.3701,3.9931,4.0315,4.1623,4.0123,4.0816,4.2085,4.2662,4.1777,0.0,4.4633,4.5326,4.6383,5.0022,5.1231,5.2258,5.4125,5.4552,5.513,5.6702,5.7966,5.9443,6.1419,6.1704,6.171,6.1716,6.1716,6.1717,6.1719,6.1719,6.1719,6.1719,6.1719,6.0976,5.9297,5.9219,5.8398,5.664,5.6601,5.6601,5.6601,5.6601,5.6597,5.6593,5.6585,5.6616,5.6606,5.6606,5.6606,5.6606,5.6606,5.6606,5.6606,5.6606,5.6606,5.6606,5.6606,5.6606,5.6606,5.6606,5.6606,5.6606,0.0,4.4136,4.4959,4.5662,4.664,4.7539,4.8047,4.7739,4.7586,4.8047,4.7988,4.7889,4.7889,4.7424,4.6612,4.542,4.4098,4.286,4.1816,4.1164,4.1087,4.1738,4.1777,4.2164,4.3015,4.3053,4.3053,4.3053,4.3053,4.3053,4.3053,4.3053,4.2744,4.2241,4.2241,4.1893,4.1358,4.255,4.4717,4.7463,4.8894,5.2298,5.6661,5.7705,5.8517,5.9204,5.9621,6.0094,5.9842,5.5682,5.3792,5.2356,4.7462,4.5663,4.5171,4.4363,4.3508,4.2777,4.2431,4.2585,4.2547,4.1324,4.1816,0.0,4.3431,4.3079,4.3975,4.8839,4.836,4.8042,5.1247,5.2425,5.2785,5.2422,5.552,5.8822,6.134,6.1699,6.1704,6.171,6.1715,6.1717,6.1717,6.1718,6.1719,6.1719,6.1719,6.0976,5.9297,5.9219,5.8398,5.664,5.6601,5.6601,5.6601,5.6601,5.6597,5.6593,5.6585,5.6616,5.6606,5.6606,5.6606,5.6606,5.6606,5.6606,5.6606,5.6606,5.6606,5.6606,5.6606,5.6606,5.6606,5.6606,5.6606,5.6606,4.4445,4.5387,4.6443,4.6873,4.7656,4.8359,4.8743,4.8757,4.8821,4.9153,4.9453,4.932,4.8508,4.8005,4.7076,4.5336,4.4059,4.2937,4.2048,4.1242,4.1164,4.197,4.1622,4.2202,4.3904,4.3092,4.286,4.3285,4.286,4.2434,4.2048,4.2048,4.1816,4.139,4.139,4.1164,4.0971,4.3479,4.6264,4.9088,4.9939,5.2832,5.6777,5.8101,5.9145,5.9957,6.0316,6.0684,6.0413,5.6492,5.489,5.3897,5.0471,4.824,4.6778,4.6355,4.5355,4.4162,4.3316,4.3393,4.3393,4.2124,4.2124,0.0,0.0,4.1777,4.2156,4.5658,4.4645,4.4102,4.7164,4.7759,4.8212,4.9529,5.1958,5.4451,5.6734,5.9753,6.1694,6.1702,6.1708,6.1712,6.1716,6.1718,6.1718,6.1719,6.1289,6.0508,5.9258,5.8789,5.7969,5.664,5.6601,5.6601,5.6601,5.6599,5.6594,5.6588,5.6618,5.661,5.6606,5.6606,5.6606,5.6606,5.6606,5.6606,5.6606,5.6606,5.6606,5.6606,5.6606,5.684,5.7192,5.7192,5.7465,5.7855,4.5424,4.6365,4.7382,4.7577,4.832,4.8905,4.8967,4.9547,5.0015,5.0059,5.0685,5.096,5.047,4.9504,4.86,4.7875,4.5324,4.375,4.3711,4.2202,4.1583,4.2202,4.1622,4.2241,4.4284,4.2976,4.2512,4.3053,4.2357,4.1583,4.0816,4.0816,4.0816,4.0816,4.0816,4.1164,4.1938,4.484,4.8005,5.1207,5.1865,5.3683,5.6244,5.8294,5.9106,5.93,6.0615,6.1051,6.0606,5.8016,5.6847,5.5979,5.2887,5.051,4.8625,4.7462,4.6394,4.5287,4.3932,4.4047,4.4316,0.0,0.0,4.2162,0.0,0.0,0.0,4.2547,4.1585,4.117,4.3393,4.3278,4.3728,4.645,4.8157,4.9653,5.1175,5.6164,5.9711,5.9878,6.0076,6.0362,6.089,6.1246,6.1522,6.168,6.0742,5.9883,5.9219,5.8359,5.75,5.664,5.6601,5.6601,5.6599,5.6752,5.6824,5.6816,5.6844,5.6918,5.7074,5.6762,5.6762,5.7074,5.6918,5.6918,5.7074,5.7074,5.7074,5.7035,5.6723,5.7074,5.7816,5.7816,5.8363,5.9102,4.6328,4.6328,4.668,4.7461,4.832,4.914,4.9921,5.0029,5.021,5.0881,5.1584,5.3468,5.7211,5.3427,5.3003,5.8875,5.0875,4.6767,4.9699,4.5568,4.3053,4.3169,4.3053,4.3169,4.344,4.3247,4.2821,4.2164,4.2048,4.1583,4.0816,4.0816,4.0816,4.0816,4.0816,4.2441,4.5304,4.6457,4.8933,5.2298,5.5354,5.6351,5.636,5.9609,5.899,5.6863,5.9996,6.1051,6.0616,5.8056,5.8065,5.8329,5.3514,5.1742,5.1,4.8663,4.6855,4.5556,4.5364,4.5364,0.0,0.0,4.3547,4.3431,4.117,0.0,4.17,4.1923,0.0,4.0823,4.1893,0.0,0.0,4.1478,4.4759,4.7462,4.7676,5.037,5.2587,5.3366,5.412,5.5537,5.7919,5.9598,6.0858,6.164,6.0234,5.9296,5.9219,5.8359,5.75,5.664,5.6601,5.6601,5.6599,5.7377,5.7722,5.7675,5.7666,5.8089,5.8751,5.727,5.7426,5.8751,5.8011,5.8089,5.8829,5.8829,5.8829,5.8673,5.7192,5.7074,5.7816,5.7816,5.8363,5.9102,4.6172,4.6719,4.7187,4.7539,4.832,4.9179,4.9952,5.1677,5.2671,5.2003,5.3455,5.5588,5.8366,5.4917,5.5025,6.1506,5.5326,5.2136,5.455,4.993,4.7475,4.8438,4.4678,4.3711,4.6225,4.3363,4.1893,4.2009,4.1545,4.1126,4.0816,4.0816,4.0816,4.0893,4.2828,4.4491,4.6155,5.0442,5.195,5.1796,5.5733,5.5578,5.3644,5.9029,6.0228,5.9145,6.0576,6.106,6.0809,0.0,5.8501,0.0,5.6859,5.3745,5.0595,5.0989,4.8544,4.5975,4.7477,4.7844,0.0,0.0,0.0,0.0,4.1931,0.0,4.1662,0.0,0.0,0.0,0.0,0.0,0.0,0.0,4.2826,4.3998,4.3998,4.5423,4.7947,5.1947,5.2285,0.0,5.592,5.597,5.661,5.8546,5.7098,5.6355,5.6867,5.7069,5.6992,5.6601,5.7108,5.7106,5.6592,5.7916,5.8339,5.7824,5.8326,5.8753,5.9063,5.836,5.8439,5.9063,5.8714,5.8753,5.9102,5.9102,5.9102,5.9024,5.8321,5.8558,5.93,5.93,5.9846,6.0625,4.6719,4.6953,4.7031,4.7539,4.832,4.9179,4.9946,5.2289,5.3642,5.2632,5.4035,5.6576,6.0342,5.7474,5.8333,6.5842,6.1156,5.8398,5.9916,5.4484,5.1669,5.2622,4.6945,4.5015,4.7695,4.4092,4.2015,4.1661,4.0855,4.0584,4.0777,4.0545,4.0584,4.0932,4.4059,4.6148,4.7618,5.3265,5.4929,5.3953,5.7086,5.6467,5.4147,5.8178,6.0267,6.1118,6.1118,6.1118,6.0993,6.0384,5.9321,0.0,5.8838,5.5615,5.1785,5.2711,5.0533,4.8155,4.9765,0.0,0.0,0.0,0.0,0.0,0.0,0.0,0.0,0.0,0.0,0.0,0.0,0.0,4.0662,4.1654,0.0,4.1808,4.1808,4.2124,4.4176,4.8923,4.9998,5.1206,0.0,5.2696,5.3026,5.5226,5.3774,5.3389,5.4775,5.5458,5.6168,5.6911,5.7575,5.7687,5.7285,5.8728,5.9154,5.8519,5.9143,5.9573,5.9805,5.9336,5.9375,5.9805,5.9573,5.9573,5.9805,5.9805,5.9805,5.9805,5.9805,6.0198,6.0744,6.0471,6.0939,6.1718,4.8633,4.6797,4.5625,4.7305,4.832,4.918,5.0078,5.0886,5.1664,5.2407,5.2474,5.5909,6.5139,6.2407,6.4337,7.5363,6.9445,6.5406,6.6239,5.9124,5.4519,5.3774,5.0169,4.7508,4.6115,4.5783,4.4066,4.0855,3.9965,3.9965,4.0777,3.9926,4.0004,4.0893,4.3479,4.6914,5.0937,5.3652,5.7134,6.077,6.0925,6.0886,6.046,5.7327,5.8217,6.1118,6.1118,0.0,0.0,6.1079,6.0964,0.0,0.0,0.0,0.0,0.0,0.0,0.0,0.0,0.0,0.0,5.1481,0.0,0.0,0.0,0.0,4.2038,0.0,0.0,0.0,0.0,0.0,4.2739,4.1923,4.1808,0.0,0.0,4.1085,4.0977,4.2024,4.5884,4.8839,0.0,5.062,5.1516,0.0,5.0936,5.1121,5.3816,5.3894,5.512,5.7765,5.7882,5.8269,5.9001,5.9901,6.0325,6.0315,6.0354,6.0783,6.1562,5.9883,6.0,6.1562,6.0705,6.0822,6.1601,6.1601,6.1601,6.1601,6.1601,6.164,6.1562,6.0705,6.0939,6.1718,4.6875,4.6016,4.5742,4.8047,4.918,4.9844,5.0156,5.1835,5.4207,5.7253,5.9615,6.4384,7.3175,7.1866,7.3505,8.1364,7.6546,7.3429,7.4285,6.7009,6.3029,6.3908,5.666,5.2397,5.1914,4.8464,4.4987,4.1583,4.0777,4.0507,4.0777,4.0507,4.0507,4.0971,4.4601,4.7966,5.113,5.4882,5.694,5.7714,5.7714,5.7714,5.7869,5.8952,6.0074,6.1118,6.1118,6.1118,0.0,6.1118,6.107,6.0935,6.0046,5.8606,5.705,5.5891,5.4521,0.0,0.0,0.0,5.4583,5.4583,0.0,0.0,0.0,0.0,0.0,0.0,0.0,0.0,0.0,0.0,4.3008,4.2701,4.22,4.1808,0.0,4.1046,4.0816,4.17,4.362,4.5251,4.6138,0.0,0.0,0.0,4.6968,0.0,5.1097,5.2899,5.5079,5.7758,5.8934,5.9398,5.9109,6.0522,6.095,6.0393,6.0978,6.1408,6.1679,6.1093,6.1132,6.1679,6.1408,6.1444,6.1718,6.1718,6.1718,6.1718,6.1718,6.1718,6.164,6.1369,6.1444,6.1718,4.8281,4.7656,4.7266,4.8672,5.0117,5.0898,5.0273,5.418,5.7849,5.962,6.4462,7.042,7.7331,7.7719,7.9665,8.5152,8.2634,7.9906,7.7979,7.2564,6.9338,6.9167,6.2352,5.8266,5.7736,5.3171,4.8515,4.3827,4.2396,4.139,4.0777,4.0468,4.0507,4.0971,4.4601,4.7463,4.9861,5.4766,5.6863,5.694,5.725,5.7211,5.7172,5.9377,6.0383,6.0692,0.0,6.1118,6.1118,6.1118,6.1118,6.1118,6.1118,6.019,5.8981,5.841,5.7657,5.7291,5.8326,5.8365,0.0,5.8568,5.5326,0.0,5.0103,0.0,4.7122,0.0,0.0,0.0,0.0,0.0,0.0,4.3201,4.2624,4.197,0.0,4.0662,4.0593,4.0893,4.2225,4.3335,4.3929,4.3443,4.3466,0.0,0.0,4.5246,0.0,0.0,5.4541,5.8137,5.9667,6.029,6.0039,6.1141,6.1414,6.0861,6.1444,6.1718,6.1718,6.1718,6.1718,6.1718,6.1718,6.1718,6.1718,6.1718,6.1718,6.1718,6.1718,6.1718,6.1718,6.1718,6.1718,6.1718,5.2344,5.1289,5.0,4.918,5.0976,5.2031,5.0547,5.7383,6.1951,5.9818,6.7008,7.3984,7.8243,8.0459,8.322,8.723,8.7651,8.4802,7.7979,7.5837,7.3338,7.0006,6.7227,6.4926,6.3214,5.9527,5.4298,4.7485,4.4685,4.2473,4.0893,4.0004,4.0004,4.0893,4.344,4.549,4.7463,5.3304,5.6863,5.8767,5.9687,5.9532,5.8729,5.8758,5.9261,5.9996,6.0809,6.1118,6.1118,6.1118,6.1118,6.1118,6.1118,6.166,6.2008,6.0422,6.166,6.3216,6.1582,6.0548,6.0519,6.2983,0.0,0.0,0.0,0.0,5.307,0.0,0.0,0.0,0.0,0.0,0.0,4.3431,4.3085,4.2162,3.9708,4.0015,4.0246,3.9515,4.1546,4.3008,4.297,4.3008,4.2662,4.1816,4.1739,4.3687,4.8126,0.0,5.3524,5.8785,5.9924,6.0861,6.1679,6.172,6.172,6.1718,6.1718,6.1718,6.1718,6.1718,6.1718,6.1718,6.1718,6.1718,6.1718,6.1718,6.1718,6.1718,6.1718,6.1718,6.1718,6.1718,6.1718,6.1718,4.9961,5.0547,5.1016,5.0781,5.0273,5.0351,5.1836,5.6133,6.1015,6.6053,7.3709,8.0779,8.636,8.9684,9.1444,9.1247,9.0663,8.875,8.5037,8.1314,7.8889,7.8044,7.4155,7.0918,6.8637,6.2581,5.7325,5.298,4.6474,4.3092,4.2628,4.1164,4.0584,4.0893,4.2783,4.491,4.7308,5.0751,5.5045,5.9764,6.1862,6.1814,6.0538,0.0,6.0809,5.9996,6.0809,6.1118,6.1118,6.1118,6.1118,6.1118,6.1118,6.1234,6.135,6.0925,6.1273,6.1814,6.2008,6.1882,6.2066,6.3342,6.0113,5.6868,0.0,0.0,0.0,0.0,0.0,0.0,0.0,0.0,0.0,4.4479,4.297,4.17,4.04,4.0362,4.0669,4.1123,4.1739,4.1893,4.1247,4.1739,4.1785,4.097,4.087,4.2524,4.6356,0.0,0.0,5.6978,5.9881,6.1456,6.1718,6.169,6.169,6.1718,6.1718,6.1718,6.1718,6.1718,6.1718,6.1718,6.1718,6.1718,6.1718,6.1718,6.1718,6.1718,6.1718,6.1718,6.1718,6.1718,6.1718,6.1718,5.1719,5.2148,5.2539,5.2539,5.2695,5.3828,5.6758,6.0156,6.4648,7.0859,7.9062,8.5547,8.8594,9.3008,9.5351,9.4375,9.3164,9.0859,8.7104,8.4913,8.2765,8.0501,7.8371,7.6212,7.3998,6.7851,6.2036,5.6647,5.0375,4.5699,4.2705,4.139,4.0816,4.0855,4.2164,4.3943,4.6303,5.1091,5.5741,6.0074,6.1853,6.1969,0.0,6.166,6.1737,6.1621,6.2085,6.1737,6.1234,6.1969,6.1969,6.1737,6.2124,6.224,6.2162,6.1776,6.2201,6.282,6.2936,6.3516,6.4174,6.4677,6.2965,6.1196,6.1292,5.9795,5.8192,0.0,0.0,0.0,0.0,0.0,0.0,4.4863,4.2893,4.1623,4.1123,4.1085,4.1123,4.1239,4.1893,4.1893,4.0631,4.1293,4.1501,4.0623,4.0885,0.0,0.0,0.0,0.0,5.6184,5.9053,6.0126,5.9303,6.1278,6.1681,6.0486,6.1327,6.169,6.1694,6.1694,6.1694,6.1694,6.169,6.1688,6.1688,6.1681,6.1718,6.1718,6.1718,6.1718,6.1718,6.1718,6.1718,6.1718,5.5039,5.4961,5.4844,5.4844,5.6914,6.0078,6.4492,6.7383,7.0586,7.4883,8.3476,8.8945,8.8242,9.3242,9.6601,9.6523,9.5,9.2029,8.7167,8.734,8.5545,8.0836,8.109,8.0583,7.9037,7.3605,6.7081,5.9505,5.4624,4.8788,4.2164,4.1242,4.0816,4.0855,4.1622,4.3208,4.5715,5.284,5.7482,6.0151,6.1311,6.1698,6.1621,6.1621,6.2472,6.3719,6.3835,6.282,6.166,6.3178,6.3207,6.2704,6.3449,6.3719,6.3565,6.2781,6.3632,6.4687,6.4068,6.4909,6.6069,6.6185,6.6108,6.5866,6.5234,6.4915,6.4335,6.2944,6.075,5.8722,0.0,0.0,0.0,4.5295,4.3209,0.0,0.0,4.2277,4.2047,4.0977,4.247,0.0,4.0862,4.1432,4.1517,4.0562,4.1239,0.0,0.0,0.0,0.0,5.5353,5.7683,5.8169,5.6747,0.0,6.171,5.9453,6.0981,6.1702,6.1708,6.1708,6.1708,6.1707,6.1701,6.1697,6.1697,6.1686,6.1718,6.1718,6.1718,6.1718,6.1718,6.1835,6.1874,6.1874,5.4492,5.6953,5.9297,5.9297,6.0859,6.543,7.5273,7.4883,7.5039,7.9336,8.6914,9.1875,9.1719,9.5156,9.7226,9.6562,9.5547,9.3984,9.16,8.9609,8.7773,8.6171,8.4218,8.3008,8.2694,7.5457,6.8864,6.3179,5.522,4.851,4.3053,4.1506,4.0816,4.0855,4.1622,4.4523,4.9088,5.3265,5.7288,6.1157,6.4097,6.4909,6.4329,6.4329,6.4068,6.3797,6.4532,6.4106,6.3294,6.3603,6.3603,6.3487,6.3642,6.3719,6.3681,6.3526,6.3681,6.4068,6.4609,6.4986,6.5373,6.6031,6.5682,6.5334,6.5866,6.4899,6.4009,6.4435,6.3584,6.1863,5.8828,0.0,0.0,0.0,0.0,0.0,0.0,4.468,4.5163,4.2893,4.4778,4.5009,4.1893,4.17,4.1485,4.0631,4.0693,0.0,0.0,0.0,0.0,0.0,5.5784,0.0,0.0,0.0,6.2043,6.2273,6.1898,6.1705,6.1701,6.1707,6.1705,6.1699,6.1699,6.1697,6.1697,6.1686,6.1718,6.1718,6.1718,6.1718,6.1796,6.2501,6.2774,6.2774,5.8359,5.9648,6.164,6.3476,6.6328,7.1211,7.9765,8.2304,8.3672,8.4844,8.9023,9.1914,9.1914,9.539,9.7383,9.6562,9.5703,9.4453,9.2695,9.0586,8.8828,8.7539,8.5429,8.4062,8.3594,7.8162,7.1622,6.4099,0.0,5.0656,4.3247,4.1583,4.0816,4.0932,4.4005,4.7254,5.0746,5.556,0.0,6.2839,6.5365,6.6686,6.7075,6.6609,6.6174,6.5832,6.5824,6.5552,6.5173,6.5025,6.4715,6.4454,6.487,6.4715,6.4377,6.4377,6.4677,6.4986,6.4986,6.5644,6.6263,6.6224,6.6263,6.6263,6.6224,6.5915,6.5528,6.5102,6.4687,6.3313,5.9833,5.6096,0.0,0.0,0.0,0.0,0.0,0.0,4.7165,4.5932,4.6896,4.681,4.4636,4.2856,4.1694,4.1262,4.1232,0.0,0.0,0.0,0.0,0.0,0.0,0.0,0.0,0.0,0.0,5.9474,6.0983,6.1704,6.1704,6.1708,6.1707,6.1704,6.1699,6.1697,6.1697,6.1686,6.1718,6.1757,6.2189,6.2384,6.2462,6.336,6.3672,6.3672,6.4336,6.4297,6.543,6.8555,7.2344,7.6836,8.2539,8.8203,9.1445,9.0234,9.1445,9.2344,9.2148,9.5312,9.7109,9.6289,9.5429,9.4336,9.2969,9.1054,8.9414,8.8086,8.6015,8.457,8.3906,8.0351,7.4057,0.0,0.0,0.0,0.0,4.2112,4.1376,4.2077,4.6346,0.0,0.0,0.0,6.2054,6.4695,6.6449,6.793,6.9021,6.8354,6.8081,6.8003,6.7374,6.7024,6.6841,6.6608,6.5982,6.5393,6.6012,6.576,6.5257,6.5257,6.5682,6.6069,6.5412,6.634,6.7346,6.665,6.7114,6.7617,6.692,6.7268,6.7346,6.5837,6.5257,6.4164,6.137,5.9756,0.0,0.0,0.0,0.0,0.0,0.0,4.9299,4.8428,4.8913,4.8626,4.6805,4.3736,4.1855,4.1832,4.1848,0.0,4.674,0.0,0.0,0.0,0.0,5.4013,5.3986,0.0,6.0627,5.7692,6.0383,6.1702,6.1707,6.1708,6.1708,6.1707,6.1701,6.1697,6.1694,6.1683,6.1796,6.2032,6.2735,6.3125,6.3399,6.4258,6.457,6.4609,7.1797,7.2851,7.3984,7.5898,7.8476,8.1797,8.6328,9.0781,9.3867,9.4492,9.5429,9.5703,9.4922,9.5898,9.625,9.539,9.4531,9.3945,9.3789,9.1406,8.9922,8.9765,8.664,8.4844,8.4765,8.0664,7.4959,0.0,0.0,5.512,0.0,0.0,0.0,0.0,0.0,0.0,0.0,6.0114,6.3306,6.6488,6.8203,6.8943,6.9099,6.9021,6.8982,6.8982,6.8904,6.8354,6.7686,6.7665,6.7029,6.6259,6.6206,6.6147,6.6108,6.6108,6.6147,6.6185,6.6108,6.6766,6.7501,6.7384,6.8042,6.8661,6.8584,6.8622,6.8429,6.7462,6.6069,6.4899,6.449,6.1853,5.8663,0.0,0.0,0.0,0.0,0.0,5.2531,4.8767,5.0923,5.0904,4.6251,4.3373,4.1832,4.1871,4.184,0.0,0.0,0.0,0.0,5.0818,0.0,5.2789,5.5895,5.8144,6.0327,6.2351,6.1898,6.1705,6.1699,6.1707,6.1705,6.1699,6.1697,6.1692,6.1681,6.172,6.2189,6.2891,6.2969,6.3477,6.4299,6.5155,6.5468,6.5585,7.8281,7.8125,7.8867,8.2695,8.4219,8.6367,9.0664,9.4101,9.6328,9.664,9.6562,9.6367,9.6015,9.582,9.5351,9.4492,9.4101,9.3672,9.3164,9.164,9.0547,9.0039,8.7226,8.5429,8.4922,8.1679,7.6834,0.0,0.0,0.0,0.0,0.0,0.0,0.0,0.0,5.6626,5.9488,6.3726,6.6895,6.9117,6.9781,7.0679,7.1499,7.0444,7.0052,7.0013,6.9505,6.9076,6.8759,6.8727,6.7716,6.6497,6.6345,6.6674,6.6997,6.638,6.7268,6.8158,6.6611,6.7578,6.8777,6.7733,6.8506,6.9396,6.8932,6.9164,6.928,6.8468,6.7733,6.7258,6.7237,6.5286,6.2733,0.0,0.0,0.0,0.0,0.0,5.5005,4.9776,5.0722,5.1429,5.0358,4.4707,4.2541,4.6112,4.3055,0.0,0.0,0.0,0.0,5.2185,0.0,5.4615,5.7544,5.8363,5.9271,6.0293,6.1032,6.1676,6.2172,6.1641,6.1478,6.1598,6.1674,6.1686,6.1757,6.2267,6.2696,6.3086,6.414,6.4765,6.5194,6.6014,6.6327,6.6366,8.4453,8.3554,8.3594,8.7539,8.8672,9.0039,9.3047,9.5898,9.7695,9.7695,9.6992,9.6406,9.6133,9.5586,9.4765,9.3633,9.3515,9.3242,9.2656,9.1797,9.0898,9.0039,8.7812,0.0,8.4922,8.2578,7.8905,7.3858,6.7971,0.0,0.0,0.0,0.0,0.0,6.0054,6.241,6.3625,6.789,7.039,7.1484,7.1758,7.2578,7.3555,7.2305,7.168,7.1406,7.082,7.0273,6.9765,6.9714,6.8708,6.7434,6.721,6.7588,6.7976,6.7193,6.8248,6.9285,6.7444,6.8429,6.9705,6.8545,6.9319,7.0208,6.9667,6.9976,7.0131,6.9319,6.897,6.8816,6.8816,6.7578,6.5644,6.2859,0.0,0.0,0.0,5.5531,0.0,5.0426,5.0803,5.1966,5.2866,4.6596,4.4196,4.8335,0.0,0.0,0.0,0.0,0.0,0.0,0.0,0.0,0.0,5.7823,5.8731,5.9706,6.098,6.2034,6.2842,6.2267,6.2057,6.2185,6.2321,6.2392,6.2434,6.3118,6.3516,6.3906,6.5116,6.573,6.5988,6.6595,6.6733,6.6662,9.0351,8.9804,8.8867,8.9804,9.1406,9.2578,9.2617,9.5508,9.7695,9.7695,9.6992,9.6172,9.5312,9.5195,9.4492,9.2773,9.2617,9.2617,9.2617,9.1797,9.0898,0.0,0.0,8.6679,8.4922,8.3164,8.1015,7.8437,0.0,0.0,6.658,0.0,6.0654,6.4086,6.5023,6.7338,7.0703,7.2461,7.3242,7.3359,7.4219,7.457,7.457,7.457,7.4023,7.3281,7.3242,7.2148,7.0664,7.0664,7.0156,6.9408,6.8987,6.8955,6.905,6.883,6.8848,6.8877,6.88,6.9357,6.9976,6.9976,7.0634,7.1291,7.1253,7.1291,7.1021,7.017,6.9357,6.8816,6.8816,6.8081,6.6379,6.2936,0.0,0.0,0.0,5.6036,0.0,5.0417,5.1776,5.2964,5.2192,4.8911,4.6835,4.6917,0.0,0.0,0.0,0.0,0.0,4.9327,4.9481,0.0,5.3422,5.596,5.8978,6.2454,6.2454,6.2959,6.3767,6.3767,6.3767,6.3782,6.3926,6.3979,6.3984,6.4193,6.4804,6.5585,6.5585,6.6014,6.6605,6.6733,6.658,6.6366,9.4219,9.4414,9.4297,9.5117,9.5703,9.6094,9.6094,9.6992,9.75,9.6953,9.664,9.5937,9.4453,9.4297,9.3867,0.0,9.2617,9.2617,0.0,9.2344,9.1523,9.0078,8.8906,8.7265,8.4961,8.3789,8.2226,8.0195,0.0,0.0,0.0,6.7735,6.8062,6.8709,7.0155,7.1444,7.2539,7.3711,7.4531,7.5039,7.4726,7.4961,7.543,7.4844,7.4414,7.418,7.418,7.3828,7.3359,7.3359,7.2773,7.2069,7.1845,7.1,6.9974,6.9096,6.9779,7.0505,6.9188,6.9895,7.0863,7.0173,7.1098,7.2026,7.1446,7.1291,7.1214,7.0943,7.0672,7.0518,7.0518,6.9783,6.8081,6.4715,6.4909,0.0,0.0,0.0,5.7958,5.2862,5.2425,5.3347,5.5316,5.1876,0.0,0.0,0.0,0.0,0.0,0.0,0.0,0.0,5.5164,0.0,5.9325,5.8978,6.0194,6.3036,6.3036,6.319,6.3471,6.4155,6.4173,6.3687,6.385,6.3959,6.4052,6.4655,6.5191,6.5616,6.5966,6.6332,6.6723,6.6693,6.7036,6.7426,9.6172,9.6484,9.6445,9.6289,9.6523,9.664,9.6328,9.6836,9.6953,9.6133,9.6289,9.5859,9.4101,9.3906,0.0,9.2695,9.2617,9.2617,9.2617,9.2304,9.1484,9.0078,8.9179,8.75,8.4961,8.4375,0.0,8.1484,7.8121,7.4913,7.1984,7.3268,7.3627,7.3203,7.4297,7.4765,7.4805,7.5351,7.5898,7.6328,7.5781,7.5898,7.6328,7.5781,7.5351,7.5078,7.5078,7.5078,7.5039,7.4726,7.4453,7.4218,7.3779,7.2951,7.1802,7.0374,7.082,7.1453,7.0215,7.0671,7.134,7.0719,7.1355,7.2065,7.1833,7.2026,7.2181,7.1872,7.1794,7.1678,7.1369,7.0595,6.9319,6.723,6.723,6.5257,5.8836,0.0,5.9377,0.0,0.0,0.0,0.0,5.4699,5.3773,0.0,0.0,0.0,0.0,0.0,0.0,5.5983,5.7203,0.0,6.1089,6.0704,6.1589,6.382,6.4436,6.4897,6.5243,6.5516,6.5391,6.4911,6.4817,6.4753,6.4842,6.5394,6.575,6.5879,6.6192,6.6393,6.6569,6.6885,6.713,6.7309,9.6562,9.6562,9.6054,0.0,9.4844,0.0,9.4219,9.5469,9.6172,9.5234,9.582,9.5664,9.3984,9.3828,9.3476,9.2656,0.0,0.0,0.0,9.1758,9.0898,8.9961,8.914,8.7539,8.5039,8.4922,8.4062,8.2304,8.0625,7.9414,7.8633,7.7773,7.7343,7.7305,7.7265,7.7265,7.7187,7.7187,7.7187,7.7187,7.7187,7.7187,7.7187,7.7187,7.6719,7.5976,7.5976,7.6015,7.5976,7.5156,7.539,7.5937,7.5078,7.4726,7.4333,7.2427,7.1932,7.1979,7.1882,7.1809,7.1708,7.1684,7.1572,7.1717,7.2568,7.338,7.369,7.2877,7.2684,7.2413,7.1562,7.0711,7.0131,6.9938,6.8545,6.5992,6.1698,0.0,6.0954,0.0,0.0,0.0,0.0,5.7454,5.7394,0.0,0.0,0.0,0.0,0.0,5.3472,5.4972,5.6588,5.8231,5.9935,6.155,6.3205,6.4897,6.6436,6.7628,6.8359,6.7552,6.7167,6.7077,6.652,6.6187,6.6128,6.6306,6.6329,6.6307,6.6291,6.623,6.6303,6.7243,6.7044,6.6429,0.0,0.0,9.7304,9.6875,9.6953,9.6836,9.6015,9.6211,9.5937,9.4414,9.4375,9.4101,9.3047,9.289,9.2812,9.2617,9.2617,9.2304,9.164,9.1406,9.0625,8.9062,8.8828,8.7812,8.5937,8.5234,8.4062,8.2304,8.1211,8.0586,8.039,7.9399,7.8697,7.8203,7.8071,7.7722,7.7187,7.7187,7.7187,7.7187,7.7187,7.7187,7.7187,7.7187,7.707,7.6875,7.6875,7.7305,7.7851,7.7656,7.7695,7.7734,7.6875,7.6133,7.5349,7.3987,7.3768,7.389,7.3594,7.3631,7.3661,7.3535,7.3394,7.3496,7.4309,7.4193,7.3844,7.3612,7.3574,7.3342,7.2452,7.2104,7.133,6.9396,6.8197,6.5992,6.1698,6.0344,0.0,0.0,5.7898,5.8974,6.0832,6.0987,6.0404,0.0,0.0,0.0,0.0,5.9935,6.1204,6.0331,6.1281,6.2627,6.4359,6.4782,6.582,6.7513,6.7898,6.8205,6.8385,6.8205,6.7744,6.7103,6.6996,6.661,6.6108,6.6088,6.6167,6.6291,6.6118,6.6535,6.7243,6.7416,6.7802,6.8261,9.7695,9.7695,9.7578,9.7226,9.7148,9.6875,9.6015,9.5898,9.5429,9.4062,9.3906,9.3554,9.2695,9.2617,9.2617,9.2617,9.2617,9.2226,9.1367,9.0937,9.0117,8.875,8.8359,8.7344,8.5625,8.5156,8.4022,8.2215,8.1747,8.127,8.0816,8.0267,7.9604,7.8861,7.878,7.8511,7.8122,7.7833,7.7683,7.7685,7.7343,7.7187,7.7187,7.7187,7.7187,7.7187,7.7187,7.7773,7.8437,7.8047,7.8164,7.8437,7.793,7.7419,7.6931,7.6663,7.59,7.513,7.5357,7.5441,7.5288,7.4691,7.4795,7.5044,7.5082,7.5082,7.4928,7.4541,7.4154,7.3612,7.2761,7.2258,7.1291,6.9164,6.7423,6.5141,6.1582,5.9996,0.0,5.9687,6.046,6.1737,6.3737,6.3582,6.2959,6.1908,6.2012,0.0,6.0512,6.3089,6.4012,6.2704,6.4205,6.5667,6.7013,6.7051,6.7705,6.9013,6.9013,6.9206,6.9513,6.9194,6.877,6.8257,6.7961,6.7559,6.7143,6.6711,6.683,6.7191,6.6734,6.715,6.8044,6.8392,6.8643,6.8828,9.7695,9.7695,9.7461,9.6797,9.6679,9.6406,9.5547,9.5273,9.4883,9.4023,9.3789,9.3437,9.2695,9.2617,9.2617,9.2617,9.2617,9.2187,9.1172,9.039,8.957,8.8554,8.7851,8.6717,8.5116,8.4801,8.3812,8.2081,8.2081,8.1616,8.0812,8.0793,8.0325,7.9481,7.9462,7.9384,7.9253,7.8685,7.8444,7.8373,7.7641,7.7341,7.7342,7.7225,7.7187,7.7187,7.7187,7.7773,7.8398,7.7656,7.7968,7.8632,7.8554,7.8383,7.8394,7.9016,7.7711,7.6236,7.7098,7.7157,7.6749,7.5763,7.6072,7.6359,7.5508,7.5856,7.6204,7.5469,7.4734,7.396,7.2993,7.2065,7.0827,6.8738,6.6263,6.371,6.1079,0.0,6.019,6.1002,6.2859,6.4636,6.6074,6.56,6.5157,6.5191,6.3755,6.3397,6.4743,6.5166,6.4897,6.3897,6.609,6.7705,6.859,6.8744,6.9167,6.9898,6.9898,7.0244,7.086,7.0272,6.9887,6.9667,6.9077,6.8641,6.8372,6.7679,6.7833,6.836,6.7704,6.7959,6.8795,6.9541,6.9405,6.896,9.7695,9.7695,9.7656,9.7539,9.75,9.7226,9.6406,9.5664,9.4883,9.4023,9.3242,9.2734,9.2617,9.2617,9.2617,9.2617,9.2617,9.1914,9.0312,9.0078,8.9297,8.7734,8.7407,8.6801,8.5864,8.4278,8.2975,8.1939,8.1939,8.185,8.1714,8.1578,8.112,8.0377,8.0287,7.9867,7.9286,7.9193,7.9121,7.9082,7.8291,7.8035,7.8047,7.7307,7.7097,7.7187,7.7187,7.7773,7.8476,7.8359,7.8782,7.9311,7.8709,7.8325,7.8158,7.8252,7.7941,7.7734,7.8629,7.882,7.8572,7.7699,7.7472,7.7248,7.6397,7.6281,7.6359,7.6243,7.6088,7.5546,7.3999,7.2993,7.1137,6.723,6.4483,6.193,5.9339,0.0,6.019,6.1002,6.3903,6.6165,6.7095,6.7012,6.7186,6.7846,6.6936,6.6128,6.5705,6.7744,6.8167,6.6551,6.7628,6.8629,6.9475,7.0167,7.0591,7.0706,7.0706,7.0783,7.0898,7.085,7.0426,6.9719,6.9706,6.9256,6.8462,6.8467,6.8517,6.8547,6.849,6.8992,6.9705,6.9759,6.972,6.9733,9.7695,9.7695,9.7695,9.7695,9.7695,9.7578,9.7187,9.6054,9.5078,9.4648,9.3437,9.2617,9.2617,9.2617,9.2617,9.2617,9.2617,9.207,9.0781,9.0273,8.9217,8.7408,8.684,8.591,8.4532,8.3192,8.2266,8.1789,8.1789,8.1779,8.167,8.1607,8.1413,8.1078,8.1015,8.0793,8.0466,8.0059,7.9633,7.9182,7.841,7.7882,7.7567,7.714,7.7039,7.7096,7.7096,7.7315,7.7642,7.8146,7.8543,7.8903,7.9003,7.8913,7.8798,7.8792,7.8691,7.8766,7.953,7.9786,7.9728,7.9259,7.9072,7.8834,7.7983,7.779,7.7674,7.721,7.7094,7.6591,7.485,7.3844,7.2065,6.8236,6.545,0.0,0.0,6.0692,6.1892,6.3632,6.6456,6.891,7.0672,7.0382,7.0194,7.0517,6.9669,6.9167,6.9283,7.0398,7.0898,7.0552,7.0475,7.0398,7.036,7.1668,7.2066,7.1645,7.2107,7.2365,7.2366,7.1981,7.1582,7.1146,7.0783,7.032,6.9873,6.9509,6.9598,6.991,6.9482,6.983,7.0527,7.0491,7.0465,7.0491,9.7695,9.7695,9.7695,9.7695,9.7695,9.7656,9.7461,9.6172,9.5117,9.4922,9.3554,9.2617,9.2617,9.2617,9.2617,9.2617,9.2617,9.2226,9.1325,9.0427,8.9208,8.7567,8.6281,8.4802,8.3143,8.224,8.1779,8.1659,8.1659,8.1613,8.1491,8.1491,8.1491,8.1491,8.1491,8.1491,8.1477,8.0916,8.0291,7.9651,7.8909,7.8267,7.7788,7.7614,7.7543,7.7547,7.7564,7.7519,7.7506,7.8197,7.8481,7.8682,7.9317,7.9447,7.9332,7.9332,7.9259,7.9349,8.0275,8.06,8.0581,8.0275,8.0188,7.9995,7.9183,7.8989,7.8796,7.8138,7.7983,7.7481,7.574,7.4889,7.3226,6.9435,0.0,0.0,0.0,6.2859,6.4367,6.7346,6.9396,7.1551,7.3852,7.3263,7.27,7.2637,7.1955,7.1838,7.2492,7.2531,7.2877,7.3532,7.2902,7.2195,7.1541,7.2863,7.3251,7.2611,7.3304,7.3652,7.3665,7.2877,7.2452,7.2353,7.1588,7.119,7.1091,7.0459,7.0575,7.1077,7.0459,7.0614,7.1142,7.1056,7.103,7.1018,9.7695,9.7695,9.7695,9.7695,9.7695,9.7461,9.6719,9.5781,9.4922,9.4101,9.3164,9.2617,9.2617,9.2617,9.2617,9.2617,9.2617,9.2184,9.1168,9.0306,8.9408,8.8465,8.585,8.3902,8.2854,8.1991,8.1502,8.1528,8.1528,8.1516,8.1491,8.1491,8.1491,8.1491,8.1491,8.1491,8.1504,8.1439,8.1374,8.1257,8.0392,8.0112,8.0072,7.9462,7.9193,7.916,7.9256,7.9232,7.9148,7.9331,7.9349,7.9333,7.9459,7.9355,7.92,7.9191,7.9125,7.9361,8.0962,8.14,8.1206,8.0382,8.0188,7.9995,7.9183,7.8989,7.8989,7.8912,7.8912,7.837,7.663,7.6243,7.4579,6.9628,0.0,0.0,6.5953,6.5876,6.7462,7.164,7.2297,7.3109,7.4839,7.4212,7.3712,7.37,7.3574,7.3536,7.3575,7.3575,7.3613,7.3691,7.3536,7.347,7.3393,7.3575,7.3652,7.3613,7.3652,7.3703,7.3665,7.2877,7.2452,7.2353,7.1622,7.1258,7.1201,7.1181,7.1242,7.128,7.1203,7.1242,7.1269,7.1142,7.1093,7.1068,9.7695,9.7695,9.7695,9.7695,9.7695,9.7617,9.7304,9.6523,9.5898,9.5547,9.4297,9.3398,9.3398,9.2929,9.2617,9.2617,9.2617,9.2417,9.1943,9.0525,8.8779,8.6738,8.5048,8.4014,8.3592,8.2238,8.1774,8.2316,8.1774,8.1491,8.1491,8.1491,8.1491,8.1491,8.1491,8.1491,8.1491,8.1491,8.1194,8.0653,8.0343,7.998,7.9639,7.9359,7.9267,7.9236,7.9297,7.922,7.9185,7.9765,7.9973,8.003,8.0036,8.0022,7.9932,7.983,7.983,8.0112,8.1192,8.1117,8.073,8.0962,8.1001,8.0923,8.0614,8.0536,8.042,7.9879,8.0188,8.0034,7.8332,7.8022,7.6862,7.3303,0.0,7.1717,7.0363,7.0634,7.1756,7.3922,7.4154,7.4618,7.5779,7.5565,7.5335,7.5335,7.5272,7.5234,7.5234,7.5234,7.5234,7.5234,7.5247,7.4745,7.3665,7.4719,7.499,7.4487,7.5027,7.5323,7.5371,7.4494,7.4108,7.4045,7.3242,7.2595,7.207,7.2093,7.1794,7.1291,7.1258,7.1236,7.1224,7.113,7.1068,7.103,9.7695,9.7695,9.7695,9.7695,9.7695,9.7617,9.7344,9.6836,9.6406,9.6133,9.4804,9.3906,9.3906,9.3084,9.2533,9.2533,9.2486,9.2375,9.224,9.0509,8.8284,8.5568,8.4815,8.4211,8.3708,8.2509,8.2084,8.2393,8.1774,8.1491,8.1491,8.1491,8.1491,8.1491,8.1491,8.1491,8.1491,8.1491,8.1155,8.0614,8.0614,8.0322,7.9931,7.9961,7.9942,7.9931,7.9961,7.989,7.9891,8.0477,8.0725,8.0805,8.0795,8.0796,8.0715,8.0624,8.0655,8.087,8.1359,8.1078,8.0769,8.1336,8.1526,8.1562,8.1516,8.1526,8.1391,8.081,8.1088,8.1064,7.9675,7.9629,7.895,7.6359,7.6165,7.5817,7.4386,7.4763,7.5552,7.6626,7.6583,7.6671,7.7229,7.7289,7.7046,7.6455,7.6603,7.6582,7.6263,7.6263,7.6263,7.6263,7.6313,7.5772,7.4576,7.5684,7.5979,7.5449,7.6067,7.6362,7.6359,7.5508,7.5109,7.5082,7.427,7.3574,7.2993,7.2993,7.2491,7.1717,7.1943,7.1893,7.1649,7.1861,7.1762,7.1454,9.7695,9.7695,9.7695,9.7695,9.7695,9.7422,9.664,9.6523,9.6211,9.5312,9.4453,9.3906,9.3906,9.3027,9.2404,9.2404,9.2201,9.2012,9.1887,9.021,8.8041,8.5449,8.5294,8.4521,8.2857,8.2819,8.2393,8.1542,8.1504,8.1491,8.1491,8.1491,8.1491,8.1491,8.1491,8.1491,8.1491,8.1491,8.1491,8.1491,8.1491,8.1491,8.1528,8.1649,8.1635,8.1528,8.1659,8.1596,8.1541,8.1659,8.1698,8.1698,8.1698,8.1624,8.1491,8.1491,8.1504,8.1504,8.1491,8.1504,8.1504,8.1504,8.1613,8.1679,8.1526,8.1624,8.1698,8.1698,8.1602,8.1267,8.0543,8.1021,8.0653,7.8138,7.846,7.8718,7.7829,7.7845,7.8522,8.0192,7.9803,7.9332,7.9209,7.9304,7.8624,7.6734,7.7395,7.7467,7.6459,7.6409,7.6409,7.6409,7.6409,7.6409,7.6409,7.6409,7.6397,7.6397,7.6397,7.6397,7.6359,7.5508,7.5109,7.5082,7.427,7.3922,7.3922,7.3922,7.3419,7.2684,7.3574,7.338,7.2711,7.3504,7.3249,7.2464,9.7695,9.7695,9.7695,9.7695,9.7695,9.7617,9.7383,9.7344,9.7265,9.6992,9.5703,9.4804,9.4804,9.3378,9.2404,9.2404,9.1694,9.0922,9.0188,8.9551,8.8582,8.719,8.5952,8.5333,8.5449,8.3708,8.2973,8.3322,8.2122,8.1491,8.1491,8.1491,8.1491,8.1491,8.1491,8.1491,8.1491,8.1491,8.1491,8.1491,8.1491,8.1491,8.1504,8.155,8.1526,8.1504,8.155,8.1526,8.1516,8.155,8.1573,8.1573,8.1573,8.1526,8.1491,8.1491,8.1585,8.1607,8.1553,8.1639,8.174,8.1679,8.165,8.1679,8.1659,8.1723,8.1812,8.1726,8.1689,8.1592,8.1469,8.1549,8.1173,7.9825,8.0413,8.0681,7.9728,7.9726,7.9987,8.0493,7.9773,7.9291,7.9357,7.9306,7.8824,7.7715,7.7877,7.8175,7.8482,7.852,7.852,7.852,7.789,7.7563,7.7467,7.6759,7.6397,7.6397,7.6397,7.6397,7.6397,7.6127,7.6011,7.6011,7.574,7.5314,7.4734,7.4734,7.427,7.3535,7.3806,7.3728,7.3535,7.3783,7.3261,7.2416,9.7695,9.7695,9.7695,9.7695,9.7695,9.7695,9.7695,9.7422,9.7226,9.7226,9.5742,9.4687,9.4687,9.33,9.2354,9.2276,9.1631,9.0955,9.0357,8.9617,8.8969,8.8428,8.6726,8.5913,8.6068,8.4598,8.3708,8.3592,8.2548,8.1852,8.1491,8.1491,8.1491,8.1491,8.1491,8.1491,8.1491,8.1491,8.1491,8.1491,8.1491,8.1491,8.1491,8.1491,8.1491,8.1491,8.1491,8.1491,8.1491,8.1491,8.1491,8.1491,8.1491,8.1491,8.1516,8.1546,8.1602,8.1596,8.1591,8.1689,8.1812,8.1781,8.182,8.1849,8.1789,8.189,8.1961,8.1883,8.1812,8.182,8.1961,8.1877,8.1617,8.1073,8.1506,8.1689,8.1089,8.113,8.1207,8.1207,8.0758,8.0285,7.9998,8.0251,8.009,7.9218,7.8867,7.8886,7.9388,7.9388,7.9388,7.9388,7.8564,7.8215,7.8474,7.755,7.701,7.69,7.7248,7.7248,7.69,7.69,7.6707,7.6397,7.6397,7.6088,7.5624,7.5624,7.5121,7.4425,7.4734,7.4695,7.4425,7.4773,7.4069,7.2993,9.7695,9.7695,9.7695,9.7695,9.7695,9.7695,9.7695,9.707,9.6562,9.6523,9.5039,9.3984,9.3906,9.2985,9.2329,9.2119,9.1866,9.1677,9.16,9.013,8.9317,8.9317,8.7654,8.6339,8.5565,8.5372,8.4559,8.3012,8.2935,8.2509,8.1736,8.1658,8.162,8.162,8.1542,8.1491,8.1491,8.1491,8.1491,8.1491,8.1491,8.1491,8.1491,8.1491,8.1491,8.1491,8.1491,8.1491,8.1491,8.1491,8.1491,8.1491,8.1491,8.1491,8.1514,8.1669,8.1596,8.155,8.167,8.1735,8.1748,8.1896,8.201,8.2088,8.1956,8.201,8.2104,8.2098,8.1997,8.1967,8.2095,8.2001,8.1927,8.1927,8.1939,8.1939,8.1927,8.2019,8.2107,8.2107,8.2217,8.1949,8.1022,8.1674,8.1833,8.0983,8.0197,7.97,7.9656,7.965,7.965,7.965,7.8793,7.8748,7.9522,7.8737,7.817,7.786,7.8596,7.8518,7.7744,7.7666,7.719,7.6432,7.6416,7.6405,7.6409,7.6421,7.5956,7.5314,7.6088,7.5895,7.5314,7.6127,7.5392,7.3976,9.7695,9.7695,9.7695,9.7695,9.7695,9.7695,9.7695,9.7539,9.7226,9.6562,9.5586,9.4607,9.3837,9.2922,9.23,9.1976,9.1798,9.1406,9.0749,9.0323,9.013,9.013,8.8505,8.7538,8.7345,8.5991,8.514,8.4753,8.4134,8.3708,8.3515,8.2857,8.2509,8.2471,8.1813,8.1491,8.1491,8.1491,8.1491,8.1491,8.1491,8.1491,8.1491,8.1491,8.1491,8.1491,8.1491,8.1491,8.1491,8.1491,8.1491,8.1491,8.1491,8.1491,8.1514,8.1669,8.167,8.1679,8.182,8.1939,8.201,8.207,8.2161,8.2218,8.2092,8.2164,8.2219,8.2107,8.2085,8.2095,8.222,8.2157,8.2074,8.2074,8.2157,8.2168,8.2081,8.2166,8.2263,8.2263,8.2171,8.209,8.1989,8.1562,8.1484,8.1951,8.1169,8.0972,8.1632,8.1671,8.1671,8.1671,8.0812,8.0408,8.052,8.0318,7.9832,7.9024,7.855,7.82,7.8005,7.7297,7.684,7.6555,7.6661,7.66,7.6421,7.6516,7.6369,7.6127,7.632,7.6281,7.6127,7.632,7.5716,7.4562,9.7695,9.7695,9.7695,9.7695,9.7695,9.7695,9.7695,9.7383,9.6992,9.6562,9.5742,9.4843,9.3893,9.3324,9.2719,9.1946,9.176,9.1522,9.1058,9.0633,9.04,9.04,8.8776,8.7925,8.7925,8.661,8.572,8.5294,8.4869,8.4482,8.4095,8.3631,8.3206,8.278,8.2316,8.189,8.1491,8.1491,8.1491,8.1491,8.1491,8.1491,8.1491,8.1491,8.1491,8.1542,8.1968,8.2122,8.2045,8.1658,8.1491,8.1491,8.1491,8.155,8.1607,8.1779,8.1789,8.1827,8.1961,8.2066,8.2098,8.2098,8.2214,8.2265,8.2217,8.2262,8.2265,8.2215,8.2212,8.2218,8.2304,8.2222,8.2212,8.2212,8.2263,8.2265,8.2215,8.2263,8.2304,8.2304,8.2221,8.2219,8.2304,8.1875,8.1797,8.2265,8.1875,8.1836,8.2265,8.2304,8.2304,8.2304,8.1445,8.117,8.1511,8.1119,8.0875,8.0771,8.0178,7.9694,7.9265,7.8837,7.8371,7.7913,7.7553,7.735,7.7192,7.6848,7.6626,7.6496,7.6564,7.6516,7.6421,7.6493,7.5836,7.4821,9.7695,9.7695,9.7695,9.7695,9.7695,9.7695,9.7695,9.7148,9.664,9.6523,9.5742,9.4843,9.3944,9.3592,9.2984,9.1985,9.176,9.1716,9.1716,9.1019,9.0633,9.0633,8.9163,8.835,8.835,8.7345,8.6416,8.5526,8.5526,8.5178,8.4521,8.4366,8.3863,8.3012,8.2857,8.2316,8.1491,8.1491,8.1491,8.1504,8.1658,8.1736,8.1736,8.1736,8.1736,8.1813,8.2548,8.2895,8.2932,8.2223,8.191,8.179,8.179,8.1765,8.1748,8.1903,8.1945,8.1967,8.2095,8.2113,8.2113,8.2113,8.2335,8.2539,8.2539,8.2422,8.2304,8.2304,8.2304,8.2304,8.2304,8.2304,8.2304,8.2304,8.2304,8.2304,8.2304,8.2304,8.2304,8.2304,8.2304,8.2304,8.2304,8.2304,8.2304,8.2304,8.2304,8.2304,8.2304,8.2304,8.2304,8.2304,8.1601,8.1562,8.2304,8.1562,8.1562,8.2304,8.2085,8.1509,8.0651,8.0495,8.0095,7.9377,7.8535,7.813,7.8018,7.7178,7.6755,7.6668,7.6761,7.6653,7.6465,7.6555,7.6051,7.5136,9.7695,9.7695,9.7695,9.7695,9.7695,9.7695,9.7695,9.7617,9.7304,9.6601,9.5742,9.4802,9.3832,9.2788,9.2093,9.1915,9.176,9.1716,9.1716,9.16,9.1522,9.1522,9.0594,9.0052,9.0052,8.8544,8.7306,8.6416,8.6416,8.6377,8.6261,8.5488,8.4714,8.3902,8.3128,8.2316,8.1491,8.1491,8.1491,8.1568,8.2316,8.2625,8.2625,8.2625,8.2625,8.2625,8.2741,8.3351,8.4067,8.3951,8.349,8.2992,8.2992,8.2454,8.1909,8.2019,8.2081,8.2098,8.2221,8.2265,8.2265,8.2265,8.2851,8.3437,8.3437,8.2851,8.2304,8.2304,8.2304,8.2304,8.2304,8.2304,8.2304,8.2304,8.2304,8.2304,8.2304,8.2304,8.2304,8.2304,8.2304,8.2304,8.2304,8.2304,8.2304,8.2304,8.2304,8.2304,8.2304,8.2304,8.2304,8.2304,8.2187,8.2187,8.2304,8.2187,8.2187,8.2304,8.2264,8.1793,8.0934,8.0152,7.9711,7.9515,7.8777,7.832,7.8024,7.7294,7.6882,7.678,7.6793,7.678,7.6734,7.6652,7.6505,7.6255,9.7695,9.7695,9.7695,9.7695,9.7695,9.7695,9.7695,9.7695,9.7422,9.6601,9.6172,9.5348,9.3859,9.262,9.1861,9.1798,9.2172,9.2218,9.1716,9.218,9.2218,9.1716,9.0865,9.04,9.04,8.9319,8.8505,8.8041,8.7074,8.661,8.661,8.6223,8.5565,8.4714,8.3902,8.3051,8.22,8.1697,8.1491,8.1542,8.1929,8.2355,8.278,8.278,8.3089,8.3515,8.3515,8.415,8.4893,8.4466,8.4123,8.3948,8.3948,8.3365,8.2756,8.2791,8.2862,8.2844,8.2421,8.3008,8.3515,8.2539,8.332,8.4219,8.3711,8.3672,8.3594,8.3125,8.3047,8.289,8.2383,8.2304,8.2304,8.2304,8.2304,8.2304,8.2304,8.2304,8.2304,8.2304,8.2304,8.2304,8.2304,8.2304,8.2304,8.2304,8.2304,8.2304,8.2304,8.2304,8.2304,8.2304,8.2304,8.2304,8.2304,8.2304,8.2304,8.2304,8.2304,8.2109,8.1719,8.1328,8.1131,8.1046,8.0233,7.9565,7.8911,7.8149,7.7466,7.6938,7.6981,7.6972,7.6882,7.6761,7.6706,7.666]}]]